<?xml version="1.0"?>
<gpx xmlns="http://www.topografix.com/GPX/1/1" xmlns:xsi="http://www.w3.org/2001/XMLSchema-instance" xmlns:wptx1="http://www.garmin.com/xmlschemas/WaypointExtension/v1" xmlns:gpxtrx="http://www.garmin.com/xmlschemas/GpxExtensions/v3" xmlns:gpxtpx="http://www.garmin.com/xmlschemas/TrackPointExtension/v1" xmlns:gpxx="http://www.garmin.com/xmlschemas/GpxExtensions/v3" xmlns:trp="http://www.garmin.com/xmlschemas/TripExtensions/v1" xmlns:adv="http://www.garmin.com/xmlschemas/AdventuresExtensions/v1" xmlns:prs="http://www.garmin.com/xmlschemas/PressureExtension/v1" xmlns:tmd="http://www.garmin.com/xmlschemas/TripMetaDataExtensions/v1" xmlns:vptm="http://www.garmin.com/xmlschemas/ViaPointTransportationModeExtensions/v1" xmlns:ctx="http://www.garmin.com/xmlschemas/CreationTimeExtension/v1" xmlns:gpxacc="http://www.garmin.com/xmlschemas/AccelerationExtension/v1" xmlns:gpxpx="http://www.garmin.com/xmlschemas/PowerExtension/v1" xmlns:vidx1="http://www.garmin.com/xmlschemas/VideoExtension/v1" creator="Garmin Desktop App" version="1.1" xsi:schemaLocation="http://www.topografix.com/GPX/1/1 http://www.topografix.com/GPX/1/1/gpx.xsd http://www.garmin.com/xmlschemas/WaypointExtension/v1 http://www8.garmin.com/xmlschemas/WaypointExtensionv1.xsd http://www.garmin.com/xmlschemas/TrackPointExtension/v1 http://www.garmin.com/xmlschemas/TrackPointExtensionv1.xsd http://www.garmin.com/xmlschemas/GpxExtensions/v3 http://www8.garmin.com/xmlschemas/GpxExtensionsv3.xsd http://www.garmin.com/xmlschemas/ActivityExtension/v1 http://www8.garmin.com/xmlschemas/ActivityExtensionv1.xsd http://www.garmin.com/xmlschemas/AdventuresExtensions/v1 http://www8.garmin.com/xmlschemas/AdventuresExtensionv1.xsd http://www.garmin.com/xmlschemas/PressureExtension/v1 http://www.garmin.com/xmlschemas/PressureExtensionv1.xsd http://www.garmin.com/xmlschemas/TripExtensions/v1 http://www.garmin.com/xmlschemas/TripExtensionsv1.xsd http://www.garmin.com/xmlschemas/TripMetaDataExtensions/v1 http://www.garmin.com/xmlschemas/TripMetaDataExtensionsv1.xsd http://www.garmin.com/xmlschemas/ViaPointTransportationModeExtensions/v1 http://www.garmin.com/xmlschemas/ViaPointTransportationModeExtensionsv1.xsd http://www.garmin.com/xmlschemas/CreationTimeExtension/v1 http://www.garmin.com/xmlschemas/CreationTimeExtensionsv1.xsd http://www.garmin.com/xmlschemas/AccelerationExtension/v1 http://www.garmin.com/xmlschemas/AccelerationExtensionv1.xsd http://www.garmin.com/xmlschemas/PowerExtension/v1 http://www.garmin.com/xmlschemas/PowerExtensionv1.xsd http://www.garmin.com/xmlschemas/VideoExtension/v1 http://www.garmin.com/xmlschemas/VideoExtensionv1.xsd">

  <metadata>
    <link href="http://www.garmin.com">
      <text>Garmin International</text>
    </link>
    <time>2014-06-14T19:23:31Z</time>
    <bounds maxlat="46.573808938264847" maxlon="6.805249750614166" minlat="46.504423124715686" minlon="6.733751362189651"/>
  </metadata>

  <trk>
    <name>matrace</name>
    <extensions>
      <gpxx:TrackExtension>
        <gpxx:DisplayColor>DarkGray</gpxx:DisplayColor>
      </gpxx:TrackExtension>
    </extensions>
    <trkseg>
      <trkpt lat="46.539980666711926" lon="6.768388319760561">
        <ele>717.279999999999973</ele>
        <time>2014-06-14T14:47:03Z</time>
      </trkpt>
      <trkpt lat="46.539988126605749" lon="6.768447076901793">
        <ele>717.279999999999973</ele>
        <time>2014-06-14T14:47:05Z</time>
      </trkpt>
      <trkpt lat="46.539997095242143" lon="6.768476665019989">
        <ele>717.279999999999973</ele>
        <time>2014-06-14T14:47:06Z</time>
      </trkpt>
      <trkpt lat="46.540008578449488" lon="6.768509019166231">
        <ele>717.759999999999991</ele>
        <time>2014-06-14T14:47:07Z</time>
      </trkpt>
      <trkpt lat="46.540022324770689" lon="6.768540032207966">
        <ele>717.759999999999991</ele>
        <time>2014-06-14T14:47:08Z</time>
      </trkpt>
      <trkpt lat="46.540035735815763" lon="6.768573056906462">
        <ele>717.759999999999991</ele>
        <time>2014-06-14T14:47:09Z</time>
      </trkpt>
      <trkpt lat="46.540050068870187" lon="6.768607841804624">
        <ele>717.759999999999991</ele>
        <time>2014-06-14T14:47:10Z</time>
      </trkpt>
      <trkpt lat="46.540067419409752" lon="6.768644554540515">
        <ele>718.240000000000009</ele>
        <time>2014-06-14T14:47:11Z</time>
      </trkpt>
      <trkpt lat="46.540358103811741" lon="6.769274538382888">
        <ele>720.159999999999968</ele>
        <time>2014-06-14T14:47:27Z</time>
      </trkpt>
      <trkpt lat="46.540391715243459" lon="6.769386688247323">
        <ele>721.129999999999995</ele>
        <time>2014-06-14T14:47:30Z</time>
      </trkpt>
      <trkpt lat="46.540389871224761" lon="6.76942516118288">
        <ele>721.129999999999995</ele>
        <time>2014-06-14T14:47:31Z</time>
      </trkpt>
      <trkpt lat="46.540385596454144" lon="6.769447540864348">
        <ele>721.610000000000014</ele>
        <time>2014-06-14T14:47:32Z</time>
      </trkpt>
      <trkpt lat="46.540374616160989" lon="6.769468076527119">
        <ele>721.610000000000014</ele>
        <time>2014-06-14T14:47:33Z</time>
      </trkpt>
      <trkpt lat="46.540353326126933" lon="6.769486768171191">
        <ele>721.610000000000014</ele>
        <time>2014-06-14T14:47:34Z</time>
      </trkpt>
      <trkpt lat="46.540331784635782" lon="6.769491545855999">
        <ele>721.610000000000014</ele>
        <time>2014-06-14T14:47:35Z</time>
      </trkpt>
      <trkpt lat="46.540295155718923" lon="6.769495569169521">
        <ele>721.129999999999995</ele>
        <time>2014-06-14T14:47:36Z</time>
      </trkpt>
      <trkpt lat="46.540251402184367" lon="6.769499257206917">
        <ele>720.649999999999977</ele>
        <time>2014-06-14T14:47:37Z</time>
      </trkpt>
      <trkpt lat="46.540207900106907" lon="6.769506717100739">
        <ele>720.159999999999968</ele>
        <time>2014-06-14T14:47:38Z</time>
      </trkpt>
      <trkpt lat="46.539536090567708" lon="6.769680054858327">
        <ele>714.879999999999995</ele>
        <time>2014-06-14T14:47:48Z</time>
      </trkpt>
      <trkpt lat="46.539466772228479" lon="6.769719114527106">
        <ele>714.399999999999977</ele>
        <time>2014-06-14T14:47:49Z</time>
      </trkpt>
      <trkpt lat="46.539405165240169" lon="6.769782733172178">
        <ele>713.919999999999959</ele>
        <time>2014-06-14T14:47:50Z</time>
      </trkpt>
      <trkpt lat="46.539365267381072" lon="6.769869150593877">
        <ele>713.440000000000055</ele>
        <time>2014-06-14T14:47:51Z</time>
      </trkpt>
      <trkpt lat="46.539339451119304" lon="6.769983815029263">
        <ele>712.950000000000045</ele>
        <time>2014-06-14T14:47:52Z</time>
      </trkpt>
      <trkpt lat="46.539327464997768" lon="6.770077692344785">
        <ele>712.470000000000027</ele>
        <time>2014-06-14T14:47:53Z</time>
      </trkpt>
      <trkpt lat="46.539317239075899" lon="6.77018690854311">
        <ele>711.990000000000009</ele>
        <time>2014-06-14T14:47:54Z</time>
      </trkpt>
      <trkpt lat="46.539230989292264" lon="6.770641375333071">
        <ele>709.590000000000032</ele>
        <time>2014-06-14T14:47:58Z</time>
      </trkpt>
      <trkpt lat="46.539190085604787" lon="6.770744891837239">
        <ele>709.590000000000032</ele>
        <time>2014-06-14T14:47:59Z</time>
      </trkpt>
      <trkpt lat="46.539138872176409" lon="6.770842624828219">
        <ele>709.110000000000014</ele>
        <time>2014-06-14T14:48:00Z</time>
      </trkpt>
      <trkpt lat="46.53908371925354" lon="6.770923677831888">
        <ele>709.110000000000014</ele>
        <time>2014-06-14T14:48:01Z</time>
      </trkpt>
      <trkpt lat="46.539024626836181" lon="6.770994924008846">
        <ele>709.110000000000014</ele>
        <time>2014-06-14T14:48:02Z</time>
      </trkpt>
      <trkpt lat="46.538965115323663" lon="6.77105862647295">
        <ele>709.590000000000032</ele>
        <time>2014-06-14T14:48:03Z</time>
      </trkpt>
      <trkpt lat="46.538903843611479" lon="6.771110258996487">
        <ele>709.590000000000032</ele>
        <time>2014-06-14T14:48:04Z</time>
      </trkpt>
      <trkpt lat="46.538841314613819" lon="6.77115292288363">
        <ele>709.590000000000032</ele>
        <time>2014-06-14T14:48:05Z</time>
      </trkpt>
      <trkpt lat="46.538775516673923" lon="6.771196173503995">
        <ele>710.07000000000005</ele>
        <time>2014-06-14T14:48:06Z</time>
      </trkpt>
      <trkpt lat="46.53783967718482" lon="6.771849878132343">
        <ele>711.990000000000009</ele>
        <time>2014-06-14T14:48:22Z</time>
      </trkpt>
      <trkpt lat="46.537811681628227" lon="6.77188734523952">
        <ele>712.470000000000027</ele>
        <time>2014-06-14T14:48:23Z</time>
      </trkpt>
      <trkpt lat="46.537671452388167" lon="6.772448848932981">
        <ele>713.919999999999959</ele>
        <time>2014-06-14T14:48:34Z</time>
      </trkpt>
      <trkpt lat="46.537552597001195" lon="6.772950841113925">
        <ele>709.110000000000014</ele>
        <time>2014-06-14T14:48:39Z</time>
      </trkpt>
      <trkpt lat="46.537563912570477" lon="6.773045556619763">
        <ele>708.629999999999995</ele>
        <time>2014-06-14T14:48:40Z</time>
      </trkpt>
      <trkpt lat="46.537602134048939" lon="6.773138260468841">
        <ele>708.149999999999977</ele>
        <time>2014-06-14T14:48:41Z</time>
      </trkpt>
      <trkpt lat="46.537641948089004" lon="6.773194083943963">
        <ele>708.149999999999977</ele>
        <time>2014-06-14T14:48:42Z</time>
      </trkpt>
      <trkpt lat="46.537692993879318" lon="6.773246387019753">
        <ele>707.669999999999959</ele>
        <time>2014-06-14T14:48:43Z</time>
      </trkpt>
      <trkpt lat="46.537745213136077" lon="6.773292403668165">
        <ele>707.669999999999959</ele>
        <time>2014-06-14T14:48:44Z</time>
      </trkpt>
      <trkpt lat="46.538383662700653" lon="6.773734129965305">
        <ele>707.190000000000055</ele>
        <time>2014-06-14T14:48:58Z</time>
      </trkpt>
      <trkpt lat="46.539002917706966" lon="6.774210473522544">
        <ele>709.590000000000032</ele>
        <time>2014-06-14T14:49:16Z</time>
      </trkpt>
      <trkpt lat="46.539564337581396" lon="6.774615989997983">
        <ele>711.990000000000009</ele>
        <time>2014-06-14T14:49:37Z</time>
      </trkpt>
      <trkpt lat="46.539961472153664" lon="6.775041790679097">
        <ele>712.470000000000027</ele>
        <time>2014-06-14T14:49:55Z</time>
      </trkpt>
      <trkpt lat="46.539974128827453" lon="6.775052351877093">
        <ele>712.470000000000027</ele>
        <time>2014-06-14T14:50:01Z</time>
      </trkpt>
      <trkpt lat="46.539977984502912" lon="6.775051597505808">
        <ele>699.980000000000018</ele>
        <time>2014-06-14T14:50:32Z</time>
      </trkpt>
      <trkpt lat="46.53998083434999" lon="6.775059560313821">
        <ele>711.509999999999991</ele>
        <time>2014-06-14T14:51:07Z</time>
      </trkpt>
      <trkpt lat="46.53997253626585" lon="6.775059225037694">
        <ele>711.990000000000009</ele>
        <time>2014-06-14T14:51:28Z</time>
      </trkpt>
      <trkpt lat="46.539991814643145" lon="6.775076240301132">
        <ele>712.470000000000027</ele>
        <time>2014-06-14T14:51:59Z</time>
      </trkpt>
      <trkpt lat="46.539988378062844" lon="6.775070708245039">
        <ele>712.470000000000027</ele>
        <time>2014-06-14T14:52:13Z</time>
      </trkpt>
      <trkpt lat="46.540035903453827" lon="6.775122256949544">
        <ele>711.509999999999991</ele>
        <time>2014-06-14T14:52:17Z</time>
      </trkpt>
      <trkpt lat="46.540056187659502" lon="6.775148827582598">
        <ele>711.029999999999973</ele>
        <time>2014-06-14T14:52:18Z</time>
      </trkpt>
      <trkpt lat="46.540078148245811" lon="6.775173302739859">
        <ele>711.029999999999973</ele>
        <time>2014-06-14T14:52:19Z</time>
      </trkpt>
      <trkpt lat="46.540670916438103" lon="6.775831198319793">
        <ele>713.919999999999959</ele>
        <time>2014-06-14T14:52:38Z</time>
      </trkpt>
      <trkpt lat="46.541003761813045" lon="6.776710795238614">
        <ele>714.399999999999977</ele>
        <time>2014-06-14T14:52:54Z</time>
      </trkpt>
      <trkpt lat="46.54103678651154" lon="6.776988655328751">
        <ele>715.840000000000032</ele>
        <time>2014-06-14T14:52:59Z</time>
      </trkpt>
      <trkpt lat="46.541024297475815" lon="6.777046490460634">
        <ele>715.840000000000032</ele>
        <time>2014-06-14T14:53:00Z</time>
      </trkpt>
      <trkpt lat="46.541005773469806" lon="6.777104828506708">
        <ele>715.360000000000014</ele>
        <time>2014-06-14T14:53:01Z</time>
      </trkpt>
      <trkpt lat="46.540982723236084" lon="6.777165764942765">
        <ele>714.879999999999995</ele>
        <time>2014-06-14T14:53:02Z</time>
      </trkpt>
      <trkpt lat="46.540959170088172" lon="6.777219409123063">
        <ele>714.879999999999995</ele>
        <time>2014-06-14T14:53:03Z</time>
      </trkpt>
      <trkpt lat="46.540701845660806" lon="6.777724418789148">
        <ele>716.799999999999955</ele>
        <time>2014-06-14T14:53:14Z</time>
      </trkpt>
      <trkpt lat="46.54063755646348" lon="6.777755348011851">
        <ele>716.799999999999955</ele>
        <time>2014-06-14T14:53:16Z</time>
      </trkpt>
      <trkpt lat="46.540593132376671" lon="6.777739590033889">
        <ele>716.799999999999955</ele>
        <time>2014-06-14T14:53:17Z</time>
      </trkpt>
      <trkpt lat="46.540554072707891" lon="6.777708660811186">
        <ele>716.32000000000005</ele>
        <time>2014-06-14T14:53:18Z</time>
      </trkpt>
      <trkpt lat="46.54030286706984" lon="6.777488803490996">
        <ele>714.399999999999977</ele>
        <time>2014-06-14T14:53:23Z</time>
      </trkpt>
      <trkpt lat="46.540245786309242" lon="6.777465837076306">
        <ele>713.919999999999959</ele>
        <time>2014-06-14T14:53:24Z</time>
      </trkpt>
      <trkpt lat="46.540172193199396" lon="6.777451168745756">
        <ele>713.440000000000055</ele>
        <time>2014-06-14T14:53:25Z</time>
      </trkpt>
      <trkpt lat="46.540105305612087" lon="6.777445049956441">
        <ele>712.950000000000045</ele>
        <time>2014-06-14T14:53:26Z</time>
      </trkpt>
      <trkpt lat="46.540031796321273" lon="6.777447732165456">
        <ele>711.990000000000009</ele>
        <time>2014-06-14T14:53:27Z</time>
      </trkpt>
      <trkpt lat="46.539950994774699" lon="6.777471285313368">
        <ele>711.029999999999973</ele>
        <time>2014-06-14T14:53:28Z</time>
      </trkpt>
      <trkpt lat="46.539886454120278" lon="6.777510596439242">
        <ele>710.549999999999955</ele>
        <time>2014-06-14T14:53:29Z</time>
      </trkpt>
      <trkpt lat="46.539824511855841" lon="6.777571532875299">
        <ele>709.110000000000014</ele>
        <time>2014-06-14T14:53:30Z</time>
      </trkpt>
      <trkpt lat="46.539766173809767" lon="6.777646886184812">
        <ele>707.669999999999959</ele>
        <time>2014-06-14T14:53:31Z</time>
      </trkpt>
      <trkpt lat="46.539707500487566" lon="6.7777338065207">
        <ele>706.230000000000018</ele>
        <time>2014-06-14T14:53:32Z</time>
      </trkpt>
      <trkpt lat="46.539664836600423" lon="6.777811506763101">
        <ele>704.779999999999973</ele>
        <time>2014-06-14T14:53:33Z</time>
      </trkpt>
      <trkpt lat="46.539625525474548" lon="6.777896415442228">
        <ele>703.340000000000032</ele>
        <time>2014-06-14T14:53:34Z</time>
      </trkpt>
      <trkpt lat="46.539487559348345" lon="6.778350630775094">
        <ele>696.610000000000014</ele>
        <time>2014-06-14T14:53:40Z</time>
      </trkpt>
      <trkpt lat="46.539509352296591" lon="6.778385750949383">
        <ele>696.610000000000014</ele>
        <time>2014-06-14T14:53:41Z</time>
      </trkpt>
      <trkpt lat="46.539537431672215" lon="6.778399664908648">
        <ele>696.610000000000014</ele>
        <time>2014-06-14T14:53:42Z</time>
      </trkpt>
      <trkpt lat="46.539612198248506" lon="6.778421122580767">
        <ele>697.090000000000032</ele>
        <time>2014-06-14T14:53:44Z</time>
      </trkpt>
      <trkpt lat="46.540286606177688" lon="6.778851114213467">
        <ele>698.049999999999955</ele>
        <time>2014-06-14T14:54:01Z</time>
      </trkpt>
      <trkpt lat="46.540519958361983" lon="6.779072228819132">
        <ele>698.529999999999973</ele>
        <time>2014-06-14T14:54:07Z</time>
      </trkpt>
      <trkpt lat="46.540713999420404" lon="6.779220420867205">
        <ele>698.529999999999973</ele>
        <time>2014-06-14T14:54:11Z</time>
      </trkpt>
      <trkpt lat="46.541008120402694" lon="6.779561396688223">
        <ele>698.049999999999955</ele>
        <time>2014-06-14T14:54:18Z</time>
      </trkpt>
      <trkpt lat="46.541520673781633" lon="6.780319288372993">
        <ele>698.529999999999973</ele>
        <time>2014-06-14T14:54:32Z</time>
      </trkpt>
      <trkpt lat="46.542191645130515" lon="6.781103080138564">
        <ele>698.049999999999955</ele>
        <time>2014-06-14T14:54:46Z</time>
      </trkpt>
      <trkpt lat="46.542226346209645" lon="6.781173991039395">
        <ele>697.57000000000005</ele>
        <time>2014-06-14T14:54:47Z</time>
      </trkpt>
      <trkpt lat="46.542317206040025" lon="6.781370798125863">
        <ele>698.049999999999955</ele>
        <time>2014-06-14T14:54:50Z</time>
      </trkpt>
      <trkpt lat="46.542348386719823" lon="6.781418826431036">
        <ele>698.529999999999973</ele>
        <time>2014-06-14T14:54:51Z</time>
      </trkpt>
      <trkpt lat="46.542385015636683" lon="6.781460484489799">
        <ele>698.529999999999973</ele>
        <time>2014-06-14T14:54:52Z</time>
      </trkpt>
      <trkpt lat="46.542965630069375" lon="6.781878909096122">
        <ele>700.940000000000055</ele>
        <time>2014-06-14T14:55:09Z</time>
      </trkpt>
      <trkpt lat="46.543374918401241" lon="6.782280653715134">
        <ele>705.259999999999991</ele>
        <time>2014-06-14T14:55:26Z</time>
      </trkpt>
      <trkpt lat="46.543609360232949" lon="6.782553987577558">
        <ele>704.779999999999973</ele>
        <time>2014-06-14T14:55:34Z</time>
      </trkpt>
      <trkpt lat="46.543636433780193" lon="6.782598244026303">
        <ele>704.299999999999955</ele>
        <time>2014-06-14T14:55:35Z</time>
      </trkpt>
      <trkpt lat="46.543862158432603" lon="6.783005939796567">
        <ele>704.779999999999973</ele>
        <time>2014-06-14T14:55:46Z</time>
      </trkpt>
      <trkpt lat="46.543888477608562" lon="6.783067965880036">
        <ele>704.779999999999973</ele>
        <time>2014-06-14T14:55:47Z</time>
      </trkpt>
      <trkpt lat="46.544028539210558" lon="6.783400727435946">
        <ele>704.299999999999955</ele>
        <time>2014-06-14T14:55:52Z</time>
      </trkpt>
      <trkpt lat="46.544063491746783" lon="6.78345856256783">
        <ele>704.779999999999973</ele>
        <time>2014-06-14T14:55:53Z</time>
      </trkpt>
      <trkpt lat="46.544100288301706" lon="6.783507680520415">
        <ele>704.779999999999973</ele>
        <time>2014-06-14T14:55:54Z</time>
      </trkpt>
      <trkpt lat="46.544504715129733" lon="6.783975390717387">
        <ele>708.629999999999995</ele>
        <time>2014-06-14T14:56:08Z</time>
      </trkpt>
      <trkpt lat="46.54471417888999" lon="6.784324580803514">
        <ele>712.950000000000045</ele>
        <time>2014-06-14T14:56:25Z</time>
      </trkpt>
      <trkpt lat="46.544893719255924" lon="6.784406471997499">
        <ele>715.840000000000032</ele>
        <time>2014-06-14T14:56:38Z</time>
      </trkpt>
      <trkpt lat="46.545084910467267" lon="6.784272696822882">
        <ele>717.759999999999991</ele>
        <time>2014-06-14T14:56:49Z</time>
      </trkpt>
      <trkpt lat="46.545089185237885" lon="6.784302368760109">
        <ele>718.240000000000009</ele>
        <time>2014-06-14T14:56:50Z</time>
      </trkpt>
      <trkpt lat="46.54508407227695" lon="6.784344110637903">
        <ele>718.720000000000027</ele>
        <time>2014-06-14T14:56:51Z</time>
      </trkpt>
      <trkpt lat="46.545076947659254" lon="6.784369256347418">
        <ele>718.720000000000027</ele>
        <time>2014-06-14T14:56:52Z</time>
      </trkpt>
      <trkpt lat="46.545064961537719" lon="6.784414434805512">
        <ele>718.240000000000009</ele>
        <time>2014-06-14T14:56:53Z</time>
      </trkpt>
      <trkpt lat="46.545053226873279" lon="6.784463049843907">
        <ele>718.240000000000009</ele>
        <time>2014-06-14T14:56:54Z</time>
      </trkpt>
      <trkpt lat="46.544947866350412" lon="6.78496353328228">
        <ele>715.840000000000032</ele>
        <time>2014-06-14T14:57:01Z</time>
      </trkpt>
      <trkpt lat="46.544945016503334" lon="6.785056488588452">
        <ele>715.360000000000014</ele>
        <time>2014-06-14T14:57:02Z</time>
      </trkpt>
      <trkpt lat="46.544956918805838" lon="6.785254217684269">
        <ele>714.879999999999995</ele>
        <time>2014-06-14T14:57:04Z</time>
      </trkpt>
      <trkpt lat="46.544972341507673" lon="6.785356560721993">
        <ele>714.399999999999977</ele>
        <time>2014-06-14T14:57:05Z</time>
      </trkpt>
      <trkpt lat="46.545399818569422" lon="6.786673357710242">
        <ele>710.07000000000005</ele>
        <time>2014-06-14T14:57:17Z</time>
      </trkpt>
      <trkpt lat="46.545808268710971" lon="6.787601569667459">
        <ele>706.710000000000036</ele>
        <time>2014-06-14T14:57:26Z</time>
      </trkpt>
      <trkpt lat="46.545814806595445" lon="6.787685640156269">
        <ele>706.230000000000018</ele>
        <time>2014-06-14T14:57:27Z</time>
      </trkpt>
      <trkpt lat="46.545808855444193" lon="6.787773985415697">
        <ele>705.75</ele>
        <time>2014-06-14T14:57:28Z</time>
      </trkpt>
      <trkpt lat="46.545793684199452" lon="6.787863755598664">
        <ele>704.779999999999973</ele>
        <time>2014-06-14T14:57:29Z</time>
      </trkpt>
      <trkpt lat="46.545659406110644" lon="6.78810934536159">
        <ele>701.419999999999959</ele>
        <time>2014-06-14T14:57:32Z</time>
      </trkpt>
      <trkpt lat="46.545067224651575" lon="6.788855837658048">
        <ele>698.049999999999955</ele>
        <time>2014-06-14T14:57:41Z</time>
      </trkpt>
      <trkpt lat="46.54489447362721" lon="6.789078712463379">
        <ele>698.529999999999973</ele>
        <time>2014-06-14T14:57:44Z</time>
      </trkpt>
      <trkpt lat="46.544810486957431" lon="6.78927862085402">
        <ele>699.5</ele>
        <time>2014-06-14T14:57:47Z</time>
      </trkpt>
      <trkpt lat="46.544826328754425" lon="6.789331175386906">
        <ele>699.980000000000018</ele>
        <time>2014-06-14T14:57:48Z</time>
      </trkpt>
      <trkpt lat="46.544848959892988" lon="6.789373336359859">
        <ele>699.980000000000018</ele>
        <time>2014-06-14T14:57:49Z</time>
      </trkpt>
      <trkpt lat="46.54488030821085" lon="6.789424465969205">
        <ele>699.980000000000018</ele>
        <time>2014-06-14T14:57:50Z</time>
      </trkpt>
      <trkpt lat="46.544910734519362" lon="6.789482468739152">
        <ele>699.980000000000018</ele>
        <time>2014-06-14T14:57:51Z</time>
      </trkpt>
      <trkpt lat="46.545203179121017" lon="6.790089653804898">
        <ele>700.460000000000036</ele>
        <time>2014-06-14T14:58:01Z</time>
      </trkpt>
      <trkpt lat="46.545237880200148" lon="6.790142292156816">
        <ele>700.460000000000036</ele>
        <time>2014-06-14T14:58:02Z</time>
      </trkpt>
      <trkpt lat="46.54591572470963" lon="6.790991127490997">
        <ele>697.090000000000032</ele>
        <time>2014-06-14T14:58:17Z</time>
      </trkpt>
      <trkpt lat="46.546484688296914" lon="6.791928559541702">
        <ele>697.090000000000032</ele>
        <time>2014-06-14T14:58:29Z</time>
      </trkpt>
      <trkpt lat="46.546498518437147" lon="6.791995111852884">
        <ele>697.090000000000032</ele>
        <time>2014-06-14T14:58:30Z</time>
      </trkpt>
      <trkpt lat="46.546494914218783" lon="6.792050851508975">
        <ele>697.090000000000032</ele>
        <time>2014-06-14T14:58:31Z</time>
      </trkpt>
      <trkpt lat="46.546470858156681" lon="6.792092509567738">
        <ele>697.57000000000005</ele>
        <time>2014-06-14T14:58:32Z</time>
      </trkpt>
      <trkpt lat="46.546445963904262" lon="6.79210189729929">
        <ele>697.57000000000005</ele>
        <time>2014-06-14T14:58:33Z</time>
      </trkpt>
      <trkpt lat="46.546429703012109" lon="6.792100053280592">
        <ele>697.57000000000005</ele>
        <time>2014-06-14T14:58:34Z</time>
      </trkpt>
      <trkpt lat="46.546403970569372" lon="6.792090917006135">
        <ele>697.57000000000005</ele>
        <time>2014-06-14T14:58:35Z</time>
      </trkpt>
      <trkpt lat="46.546079171821475" lon="6.792097873985767">
        <ele>698.529999999999973</ele>
        <time>2014-06-14T14:58:46Z</time>
      </trkpt>
      <trkpt lat="46.546066934242845" lon="6.792109776288271">
        <ele>699.019999999999982</ele>
        <time>2014-06-14T14:58:47Z</time>
      </trkpt>
      <trkpt lat="46.546052852645516" lon="6.792125785723329">
        <ele>699.019999999999982</ele>
        <time>2014-06-14T14:58:48Z</time>
      </trkpt>
      <trkpt lat="46.546038435772061" lon="6.792144645005465">
        <ele>699.5</ele>
        <time>2014-06-14T14:58:49Z</time>
      </trkpt>
      <trkpt lat="46.546023348346353" lon="6.792168198153377">
        <ele>699.5</ele>
        <time>2014-06-14T14:58:50Z</time>
      </trkpt>
      <trkpt lat="46.54600759036839" lon="6.792197786271572">
        <ele>699.980000000000018</ele>
        <time>2014-06-14T14:58:51Z</time>
      </trkpt>
      <trkpt lat="46.545991078019142" lon="6.792227877303958">
        <ele>699.980000000000018</ele>
        <time>2014-06-14T14:58:52Z</time>
      </trkpt>
      <trkpt lat="46.545657310634851" lon="6.792641943320632">
        <ele>700.460000000000036</ele>
        <time>2014-06-14T14:59:02Z</time>
      </trkpt>
      <trkpt lat="46.545630069449544" lon="6.792699359357357">
        <ele>700.460000000000036</ele>
        <time>2014-06-14T14:59:03Z</time>
      </trkpt>
      <trkpt lat="46.545576006174088" lon="6.792854256927967">
        <ele>699.980000000000018</ele>
        <time>2014-06-14T14:59:05Z</time>
      </trkpt>
      <trkpt lat="46.545554045587778" lon="6.792940087616444">
        <ele>699.980000000000018</ele>
        <time>2014-06-14T14:59:06Z</time>
      </trkpt>
      <trkpt lat="46.545496713370085" lon="6.793141840025783">
        <ele>699.5</ele>
        <time>2014-06-14T14:59:08Z</time>
      </trkpt>
      <trkpt lat="46.545446086674929" lon="6.793242506682873">
        <ele>699.019999999999982</ele>
        <time>2014-06-14T14:59:09Z</time>
      </trkpt>
      <trkpt lat="46.545403422787786" lon="6.793308891355991">
        <ele>698.529999999999973</ele>
        <time>2014-06-14T14:59:10Z</time>
      </trkpt>
      <trkpt lat="46.545355478301644" lon="6.793344849720597">
        <ele>698.049999999999955</ele>
        <time>2014-06-14T14:59:11Z</time>
      </trkpt>
      <trkpt lat="46.545287584885955" lon="6.793358428403735">
        <ele>697.57000000000005</ele>
        <time>2014-06-14T14:59:12Z</time>
      </trkpt>
      <trkpt lat="46.545211393386126" lon="6.793351555243134">
        <ele>697.090000000000032</ele>
        <time>2014-06-14T14:59:13Z</time>
      </trkpt>
      <trkpt lat="46.545098908245564" lon="6.793309729546309">
        <ele>696.129999999999995</ele>
        <time>2014-06-14T14:59:14Z</time>
      </trkpt>
      <trkpt lat="46.544166756793857" lon="6.792760631069541">
        <ele>688.440000000000055</ele>
        <time>2014-06-14T14:59:24Z</time>
      </trkpt>
      <trkpt lat="46.543957628309727" lon="6.792655438184738">
        <ele>687</ele>
        <time>2014-06-14T14:59:26Z</time>
      </trkpt>
      <trkpt lat="46.543845981359482" lon="6.792627861723304">
        <ele>686.039999999999964</ele>
        <time>2014-06-14T14:59:27Z</time>
      </trkpt>
      <trkpt lat="46.542700510472059" lon="6.792309936136007">
        <ele>676.419999999999959</ele>
        <time>2014-06-14T14:59:36Z</time>
      </trkpt>
      <trkpt lat="46.541755199432373" lon="6.79183560423553">
        <ele>668.25</ele>
        <time>2014-06-14T14:59:44Z</time>
      </trkpt>
      <trkpt lat="46.541642965748906" lon="6.791752874851227">
        <ele>667.769999999999982</ele>
        <time>2014-06-14T14:59:45Z</time>
      </trkpt>
      <trkpt lat="46.541529390960932" lon="6.791674755513668">
        <ele>666.809999999999945</ele>
        <time>2014-06-14T14:59:46Z</time>
      </trkpt>
      <trkpt lat="46.541410367935896" lon="6.79161524400115">
        <ele>666.330000000000041</ele>
        <time>2014-06-14T14:59:47Z</time>
      </trkpt>
      <trkpt lat="46.541288159787655" lon="6.791574005037546">
        <ele>665.370000000000005</ele>
        <time>2014-06-14T14:59:48Z</time>
      </trkpt>
      <trkpt lat="46.541164526715875" lon="6.791543327271938">
        <ele>664.889999999999986</ele>
        <time>2014-06-14T14:59:49Z</time>
      </trkpt>
      <trkpt lat="46.54104458168149" lon="6.791527485474944">
        <ele>663.92999999999995</ele>
        <time>2014-06-14T14:59:50Z</time>
      </trkpt>
      <trkpt lat="46.540923211723566" lon="6.791539136320353">
        <ele>662.970000000000027</ele>
        <time>2014-06-14T14:59:51Z</time>
      </trkpt>
      <trkpt lat="46.540805529803038" lon="6.791587835177779">
        <ele>662.490000000000009</ele>
        <time>2014-06-14T14:59:52Z</time>
      </trkpt>
      <trkpt lat="46.540701510384679" lon="6.791660254821181">
        <ele>662.009999999999991</ele>
        <time>2014-06-14T14:59:53Z</time>
      </trkpt>
      <trkpt lat="46.540603190660477" lon="6.791741559281945">
        <ele>661.519999999999982</ele>
        <time>2014-06-14T14:59:54Z</time>
      </trkpt>
      <trkpt lat="46.540417950600386" lon="6.791882878169417">
        <ele>661.039999999999964</ele>
        <time>2014-06-14T14:59:56Z</time>
      </trkpt>
      <trkpt lat="46.540326420217752" lon="6.791925625875592">
        <ele>661.039999999999964</ele>
        <time>2014-06-14T14:59:57Z</time>
      </trkpt>
      <trkpt lat="46.540231788530946" lon="6.791949179023504">
        <ele>661.519999999999982</ele>
        <time>2014-06-14T14:59:58Z</time>
      </trkpt>
      <trkpt lat="46.540139419957995" lon="6.791948508471251">
        <ele>662.009999999999991</ele>
        <time>2014-06-14T14:59:59Z</time>
      </trkpt>
      <trkpt lat="46.540055517107248" lon="6.791925709694624">
        <ele>662.490000000000009</ele>
        <time>2014-06-14T15:00:00Z</time>
      </trkpt>
      <trkpt lat="46.539976391941309" lon="6.791899222880602">
        <ele>662.490000000000009</ele>
        <time>2014-06-14T15:00:01Z</time>
      </trkpt>
      <trkpt lat="46.539900954812765" lon="6.79188983514905">
        <ele>663.450000000000045</ele>
        <time>2014-06-14T15:00:02Z</time>
      </trkpt>
      <trkpt lat="46.539821494370699" lon="6.791928643360734">
        <ele>663.450000000000045</ele>
        <time>2014-06-14T15:00:03Z</time>
      </trkpt>
      <trkpt lat="46.539760641753674" lon="6.792024280875921">
        <ele>663.450000000000045</ele>
        <time>2014-06-14T15:00:04Z</time>
      </trkpt>
      <trkpt lat="46.539731388911605" lon="6.792096197605133">
        <ele>662.970000000000027</ele>
        <time>2014-06-14T15:00:05Z</time>
      </trkpt>
      <trkpt lat="46.539681432768703" lon="6.792211113497615">
        <ele>662.009999999999991</ele>
        <time>2014-06-14T15:00:06Z</time>
      </trkpt>
      <trkpt lat="46.539366105571389" lon="6.792809497565031">
        <ele>658.639999999999986</ele>
        <time>2014-06-14T15:00:11Z</time>
      </trkpt>
      <trkpt lat="46.539295027032495" lon="6.792899603024125">
        <ele>659.120000000000005</ele>
        <time>2014-06-14T15:00:12Z</time>
      </trkpt>
      <trkpt lat="46.539220260456204" lon="6.792963389307261">
        <ele>659.600000000000023</ele>
        <time>2014-06-14T15:00:13Z</time>
      </trkpt>
      <trkpt lat="46.539145410060883" lon="6.79299951530993">
        <ele>660.080000000000041</ele>
        <time>2014-06-14T15:00:14Z</time>
      </trkpt>
      <trkpt lat="46.539077013731003" lon="6.793012423440814">
        <ele>661.039999999999964</ele>
        <time>2014-06-14T15:00:15Z</time>
      </trkpt>
      <trkpt lat="46.539010461419821" lon="6.793015021830797">
        <ele>661.519999999999982</ele>
        <time>2014-06-14T15:00:16Z</time>
      </trkpt>
      <trkpt lat="46.538665629923344" lon="6.792969256639481">
        <ele>666.330000000000041</ele>
        <time>2014-06-14T15:00:24Z</time>
      </trkpt>
      <trkpt lat="46.538170678541064" lon="6.792506827041507">
        <ele>669.220000000000027</ele>
        <time>2014-06-14T15:00:37Z</time>
      </trkpt>
      <trkpt lat="46.537880161777139" lon="6.792316306382418">
        <ele>668.730000000000018</ele>
        <time>2014-06-14T15:00:43Z</time>
      </trkpt>
      <trkpt lat="46.537839258089662" lon="6.792287053540349">
        <ele>668.730000000000018</ele>
        <time>2014-06-14T15:00:44Z</time>
      </trkpt>
      <trkpt lat="46.537794498726726" lon="6.7922567948699">
        <ele>668.730000000000018</ele>
        <time>2014-06-14T15:00:45Z</time>
      </trkpt>
      <trkpt lat="46.537619987502694" lon="6.792100640013814">
        <ele>668.25</ele>
        <time>2014-06-14T15:00:49Z</time>
      </trkpt>
      <trkpt lat="46.537546813488007" lon="6.792020089924335">
        <ele>668.25</ele>
        <time>2014-06-14T15:00:51Z</time>
      </trkpt>
      <trkpt lat="46.537080612033606" lon="6.791640892624855">
        <ele>663.92999999999995</ele>
        <time>2014-06-14T15:01:03Z</time>
      </trkpt>
      <trkpt lat="46.536978520452976" lon="6.791539890691638">
        <ele>662.970000000000027</ele>
        <time>2014-06-14T15:01:06Z</time>
      </trkpt>
      <trkpt lat="46.536943735554814" lon="6.791497897356749">
        <ele>662.490000000000009</ele>
        <time>2014-06-14T15:01:07Z</time>
      </trkpt>
      <trkpt lat="46.536613404750824" lon="6.79110411554575">
        <ele>657.67999999999995</ele>
        <time>2014-06-14T15:01:17Z</time>
      </trkpt>
      <trkpt lat="46.536133289337158" lon="6.790504474192858">
        <ele>650.950000000000045</ele>
        <time>2014-06-14T15:01:30Z</time>
      </trkpt>
      <trkpt lat="46.535829696804285" lon="6.789973312988877">
        <ele>649.029999999999973</ele>
        <time>2014-06-14T15:01:40Z</time>
      </trkpt>
      <trkpt lat="46.535505652427673" lon="6.789568131789565">
        <ele>648.07000000000005</ele>
        <time>2014-06-14T15:01:50Z</time>
      </trkpt>
      <trkpt lat="46.534962253645062" lon="6.78913445211947">
        <ele>648.07000000000005</ele>
        <time>2014-06-14T15:02:02Z</time>
      </trkpt>
      <trkpt lat="46.534544248133898" lon="6.788834212347865">
        <ele>652.870000000000005</ele>
        <time>2014-06-14T15:02:13Z</time>
      </trkpt>
      <trkpt lat="46.533993473276496" lon="6.788414278998971">
        <ele>655.759999999999991</ele>
        <time>2014-06-14T15:02:27Z</time>
      </trkpt>
      <trkpt lat="46.533948378637433" lon="6.788380667567253">
        <ele>655.759999999999991</ele>
        <time>2014-06-14T15:02:28Z</time>
      </trkpt>
      <trkpt lat="46.533546634018421" lon="6.78799744695425">
        <ele>655.759999999999991</ele>
        <time>2014-06-14T15:02:38Z</time>
      </trkpt>
      <trkpt lat="46.533507406711578" lon="6.787955369800329">
        <ele>655.759999999999991</ele>
        <time>2014-06-14T15:02:39Z</time>
      </trkpt>
      <trkpt lat="46.533426102250814" lon="6.78787138313055">
        <ele>655.759999999999991</ele>
        <time>2014-06-14T15:02:41Z</time>
      </trkpt>
      <trkpt lat="46.533390814438462" lon="6.787823187187314">
        <ele>655.279999999999973</ele>
        <time>2014-06-14T15:02:42Z</time>
      </trkpt>
      <trkpt lat="46.533358879387379" lon="6.78777264431119">
        <ele>654.799999999999955</ele>
        <time>2014-06-14T15:02:43Z</time>
      </trkpt>
      <trkpt lat="46.533302385360003" lon="6.787673151120543">
        <ele>654.799999999999955</ele>
        <time>2014-06-14T15:02:45Z</time>
      </trkpt>
      <trkpt lat="46.533279251307249" lon="6.787613471969962">
        <ele>654.309999999999945</ele>
        <time>2014-06-14T15:02:46Z</time>
      </trkpt>
      <trkpt lat="46.533196605741978" lon="6.78729236125946">
        <ele>651.42999999999995</ele>
        <time>2014-06-14T15:02:52Z</time>
      </trkpt>
      <trkpt lat="46.533029051497579" lon="6.786590963602066">
        <ele>649.029999999999973</ele>
        <time>2014-06-14T15:03:04Z</time>
      </trkpt>
      <trkpt lat="46.532864095643163" lon="6.786013282835484">
        <ele>644.700000000000045</ele>
        <time>2014-06-14T15:03:15Z</time>
      </trkpt>
      <trkpt lat="46.532563855871558" lon="6.785592427477241">
        <ele>646.139999999999986</ele>
        <time>2014-06-14T15:03:25Z</time>
      </trkpt>
      <trkpt lat="46.532230256125331" lon="6.785269556567073">
        <ele>646.620000000000005</ele>
        <time>2014-06-14T15:03:34Z</time>
      </trkpt>
      <trkpt lat="46.531708231195807" lon="6.78486873395741">
        <ele>650.470000000000027</ele>
        <time>2014-06-14T15:03:46Z</time>
      </trkpt>
      <trkpt lat="46.531655173748732" lon="6.784836379811168">
        <ele>650.470000000000027</ele>
        <time>2014-06-14T15:03:47Z</time>
      </trkpt>
      <trkpt lat="46.531552830711007" lon="6.784770665690303">
        <ele>650.950000000000045</ele>
        <time>2014-06-14T15:03:49Z</time>
      </trkpt>
      <trkpt lat="46.531456774100661" lon="6.784706963226199">
        <ele>650.950000000000045</ele>
        <time>2014-06-14T15:03:51Z</time>
      </trkpt>
      <trkpt lat="46.531365914270282" lon="6.784628089517355">
        <ele>651.42999999999995</ele>
        <time>2014-06-14T15:03:53Z</time>
      </trkpt>
      <trkpt lat="46.531320568174124" lon="6.784591041505337">
        <ele>651.42999999999995</ele>
        <time>2014-06-14T15:03:54Z</time>
      </trkpt>
      <trkpt lat="46.531179081648588" lon="6.78448123857379">
        <ele>653.830000000000041</ele>
        <time>2014-06-14T15:03:57Z</time>
      </trkpt>
      <trkpt lat="46.530678849667311" lon="6.784165408462286">
        <ele>664.409999999999968</ele>
        <time>2014-06-14T15:04:08Z</time>
      </trkpt>
      <trkpt lat="46.530261095613241" lon="6.7839608900249">
        <ele>673.539999999999964</ele>
        <time>2014-06-14T15:04:18Z</time>
      </trkpt>
      <trkpt lat="46.53021952137351" lon="6.783936247229576">
        <ele>674.019999999999982</ele>
        <time>2014-06-14T15:04:19Z</time>
      </trkpt>
      <trkpt lat="46.530174510553479" lon="6.783911352977157">
        <ele>674.5</ele>
        <time>2014-06-14T15:04:20Z</time>
      </trkpt>
      <trkpt lat="46.529686516150832" lon="6.783610107377172">
        <ele>675.460000000000036</ele>
        <time>2014-06-14T15:04:33Z</time>
      </trkpt>
      <trkpt lat="46.52964293025434" lon="6.783568952232599">
        <ele>674.980000000000018</ele>
        <time>2014-06-14T15:04:35Z</time>
      </trkpt>
      <trkpt lat="46.529347971081734" lon="6.783109456300735">
        <ele>676.419999999999959</ele>
        <time>2014-06-14T15:04:46Z</time>
      </trkpt>
      <trkpt lat="46.529044713824987" lon="6.782760517671704">
        <ele>679.309999999999945</ele>
        <time>2014-06-14T15:04:55Z</time>
      </trkpt>
      <trkpt lat="46.528996685519814" lon="6.782721122726798">
        <ele>679.309999999999945</ele>
        <time>2014-06-14T15:04:56Z</time>
      </trkpt>
      <trkpt lat="46.5289490763098" lon="6.782683404162526">
        <ele>679.789999999999964</ele>
        <time>2014-06-14T15:04:57Z</time>
      </trkpt>
      <trkpt lat="46.52814575470984" lon="6.78216858766973">
        <ele>676.909999999999968</ele>
        <time>2014-06-14T15:05:12Z</time>
      </trkpt>
      <trkpt lat="46.528090601786971" lon="6.782140843570232">
        <ele>676.909999999999968</ele>
        <time>2014-06-14T15:05:13Z</time>
      </trkpt>
      <trkpt lat="46.528027905151248" lon="6.782120894640684">
        <ele>676.909999999999968</ele>
        <time>2014-06-14T15:05:14Z</time>
      </trkpt>
      <trkpt lat="46.527260039001703" lon="6.781781930476427">
        <ele>679.789999999999964</ele>
        <time>2014-06-14T15:05:26Z</time>
      </trkpt>
      <trkpt lat="46.527118049561977" lon="6.781739769503474">
        <ele>680.75</ele>
        <time>2014-06-14T15:05:28Z</time>
      </trkpt>
      <trkpt lat="46.52686751447618" lon="6.781690148636699">
        <ele>680.75</ele>
        <time>2014-06-14T15:05:32Z</time>
      </trkpt>
      <trkpt lat="46.526764081791043" lon="6.781687047332525">
        <ele>681.710000000000036</ele>
        <time>2014-06-14T15:05:35Z</time>
      </trkpt>
      <trkpt lat="46.526736505329609" lon="6.781674642115831">
        <ele>682.190000000000055</ele>
        <time>2014-06-14T15:05:36Z</time>
      </trkpt>
      <trkpt lat="46.526455376297235" lon="6.78147716447711">
        <ele>684.120000000000005</ele>
        <time>2014-06-14T15:05:44Z</time>
      </trkpt>
      <trkpt lat="46.526341298595071" lon="6.781428046524525">
        <ele>684.120000000000005</ele>
        <time>2014-06-14T15:05:46Z</time>
      </trkpt>
      <trkpt lat="46.526289582252502" lon="6.781408935785294">
        <ele>684.120000000000005</ele>
        <time>2014-06-14T15:05:47Z</time>
      </trkpt>
      <trkpt lat="46.526108365505934" lon="6.781331235542893">
        <ele>683.149999999999977</ele>
        <time>2014-06-14T15:05:50Z</time>
      </trkpt>
      <trkpt lat="46.525400513783097" lon="6.780946003273129">
        <ele>678.350000000000023</ele>
        <time>2014-06-14T15:06:00Z</time>
      </trkpt>
      <trkpt lat="46.525245448574424" lon="6.780804516747594">
        <ele>676.419999999999959</ele>
        <time>2014-06-14T15:06:03Z</time>
      </trkpt>
      <trkpt lat="46.525064399465919" lon="6.780582396313548">
        <ele>674.019999999999982</ele>
        <time>2014-06-14T15:06:07Z</time>
      </trkpt>
      <trkpt lat="46.525030452758074" lon="6.780527411028743">
        <ele>673.539999999999964</ele>
        <time>2014-06-14T15:06:08Z</time>
      </trkpt>
      <trkpt lat="46.524957111105323" lon="6.780404364690185">
        <ele>672.100000000000023</ele>
        <time>2014-06-14T15:06:10Z</time>
      </trkpt>
      <trkpt lat="46.524919224902987" lon="6.780345859006047">
        <ele>671.139999999999986</ele>
        <time>2014-06-14T15:06:11Z</time>
      </trkpt>
      <trkpt lat="46.524738259613514" lon="6.780067328363657">
        <ele>667.769999999999982</ele>
        <time>2014-06-14T15:06:15Z</time>
      </trkpt>
      <trkpt lat="46.524684866890311" lon="6.779997004196048">
        <ele>666.809999999999945</ele>
        <time>2014-06-14T15:06:16Z</time>
      </trkpt>
      <trkpt lat="46.524635246023536" lon="6.779928859323263">
        <ele>666.330000000000041</ele>
        <time>2014-06-14T15:06:17Z</time>
      </trkpt>
      <trkpt lat="46.523932842537761" lon="6.779071474447846">
        <ele>672.100000000000023</ele>
        <time>2014-06-14T15:06:29Z</time>
      </trkpt>
      <trkpt lat="46.52380283921957" lon="6.778839714825153">
        <ele>674.980000000000018</ele>
        <time>2014-06-14T15:06:32Z</time>
      </trkpt>
      <trkpt lat="46.523758247494698" lon="6.778771486133337">
        <ele>675.460000000000036</ele>
        <time>2014-06-14T15:06:33Z</time>
      </trkpt>
      <trkpt lat="46.52371876873076" lon="6.778698898851871">
        <ele>675.940000000000055</ele>
        <time>2014-06-14T15:06:34Z</time>
      </trkpt>
      <trkpt lat="46.523442333564162" lon="6.778224147856236">
        <ele>678.350000000000023</ele>
        <time>2014-06-14T15:06:41Z</time>
      </trkpt>
      <trkpt lat="46.523408135399222" lon="6.778149465098977">
        <ele>678.350000000000023</ele>
        <time>2014-06-14T15:06:42Z</time>
      </trkpt>
      <trkpt lat="46.523371506482363" lon="6.778076374903321">
        <ele>678.830000000000041</ele>
        <time>2014-06-14T15:06:43Z</time>
      </trkpt>
      <trkpt lat="46.523333787918091" lon="6.778002614155412">
        <ele>678.830000000000041</ele>
        <time>2014-06-14T15:06:44Z</time>
      </trkpt>
      <trkpt lat="46.523298751562834" lon="6.777928601950407">
        <ele>678.830000000000041</ele>
        <time>2014-06-14T15:06:45Z</time>
      </trkpt>
      <trkpt lat="46.523232366889715" lon="6.777779823169112">
        <ele>679.309999999999945</ele>
        <time>2014-06-14T15:06:47Z</time>
      </trkpt>
      <trkpt lat="46.523184673860669" lon="6.777629116550088">
        <ele>679.789999999999964</ele>
        <time>2014-06-14T15:06:49Z</time>
      </trkpt>
      <trkpt lat="46.523169418796897" lon="6.777556864544749">
        <ele>680.269999999999982</ele>
        <time>2014-06-14T15:06:50Z</time>
      </trkpt>
      <trkpt lat="46.523160114884377" lon="6.777489893138409">
        <ele>680.75</ele>
        <time>2014-06-14T15:06:51Z</time>
      </trkpt>
      <trkpt lat="46.523159192875028" lon="6.777415042743087">
        <ele>681.230000000000018</ele>
        <time>2014-06-14T15:06:52Z</time>
      </trkpt>
      <trkpt lat="46.523166904225945" lon="6.777351340278983">
        <ele>681.710000000000036</ele>
        <time>2014-06-14T15:06:53Z</time>
      </trkpt>
      <trkpt lat="46.523179057985544" lon="6.77729400806129">
        <ele>681.710000000000036</ele>
        <time>2014-06-14T15:06:54Z</time>
      </trkpt>
      <trkpt lat="46.523192133754492" lon="6.777228377759457">
        <ele>681.710000000000036</ele>
        <time>2014-06-14T15:06:55Z</time>
      </trkpt>
      <trkpt lat="46.523210154846311" lon="6.777100972831249">
        <ele>682.190000000000055</ele>
        <time>2014-06-14T15:06:57Z</time>
      </trkpt>
      <trkpt lat="46.523216105997562" lon="6.776659414172173">
        <ele>682.669999999999959</ele>
        <time>2014-06-14T15:07:04Z</time>
      </trkpt>
      <trkpt lat="46.523185847327113" lon="6.776129007339478">
        <ele>683.149999999999977</ele>
        <time>2014-06-14T15:07:13Z</time>
      </trkpt>
      <trkpt lat="46.523158019408584" lon="6.776088103652">
        <ele>683.149999999999977</ele>
        <time>2014-06-14T15:07:14Z</time>
      </trkpt>
      <trkpt lat="46.52310898527503" lon="6.776071926578879">
        <ele>683.149999999999977</ele>
        <time>2014-06-14T15:07:15Z</time>
      </trkpt>
      <trkpt lat="46.523063974454999" lon="6.776080392301083">
        <ele>683.149999999999977</ele>
        <time>2014-06-14T15:07:16Z</time>
      </trkpt>
      <trkpt lat="46.523032374680042" lon="6.776091624051332">
        <ele>683.629999999999995</ele>
        <time>2014-06-14T15:07:17Z</time>
      </trkpt>
      <trkpt lat="46.522454274818301" lon="6.776490015909076">
        <ele>686.519999999999982</ele>
        <time>2014-06-14T15:07:32Z</time>
      </trkpt>
      <trkpt lat="46.521849688142538" lon="6.776881534606218">
        <ele>680.75</ele>
        <time>2014-06-14T15:07:41Z</time>
      </trkpt>
      <trkpt lat="46.521521117538214" lon="6.777114635333419">
        <ele>678.350000000000023</ele>
        <time>2014-06-14T15:07:45Z</time>
      </trkpt>
      <trkpt lat="46.521458588540554" lon="6.77718261256814">
        <ele>677.870000000000005</ele>
        <time>2014-06-14T15:07:46Z</time>
      </trkpt>
      <trkpt lat="46.521412990987301" lon="6.777270957827568">
        <ele>677.389999999999986</ele>
        <time>2014-06-14T15:07:47Z</time>
      </trkpt>
      <trkpt lat="46.521385833621025" lon="6.777375647798181">
        <ele>676.909999999999968</ele>
        <time>2014-06-14T15:07:48Z</time>
      </trkpt>
      <trkpt lat="46.521369908004999" lon="6.777488468214869">
        <ele>676.419999999999959</ele>
        <time>2014-06-14T15:07:49Z</time>
      </trkpt>
      <trkpt lat="46.521358173340559" lon="6.777617633342743">
        <ele>676.419999999999959</ele>
        <time>2014-06-14T15:07:50Z</time>
      </trkpt>
      <trkpt lat="46.521328249946237" lon="6.777824917808175">
        <ele>675.940000000000055</ele>
        <time>2014-06-14T15:07:52Z</time>
      </trkpt>
      <trkpt lat="46.521299248561263" lon="6.7779272608459">
        <ele>675.940000000000055</ele>
        <time>2014-06-14T15:07:53Z</time>
      </trkpt>
      <trkpt lat="46.521261110901833" lon="6.778014935553074">
        <ele>675.460000000000036</ele>
        <time>2014-06-14T15:07:54Z</time>
      </trkpt>
      <trkpt lat="46.521212328225374" lon="6.778087941929698">
        <ele>675.460000000000036</ele>
        <time>2014-06-14T15:07:55Z</time>
      </trkpt>
      <trkpt lat="46.521157845854759" lon="6.778138233348727">
        <ele>675.460000000000036</ele>
        <time>2014-06-14T15:07:56Z</time>
      </trkpt>
      <trkpt lat="46.521097747609019" lon="6.77816522307694">
        <ele>675.460000000000036</ele>
        <time>2014-06-14T15:07:57Z</time>
      </trkpt>
      <trkpt lat="46.521034464240074" lon="6.778165893629193">
        <ele>675.460000000000036</ele>
        <time>2014-06-14T15:07:58Z</time>
      </trkpt>
      <trkpt lat="46.520972521975636" lon="6.778145106509328">
        <ele>675.940000000000055</ele>
        <time>2014-06-14T15:07:59Z</time>
      </trkpt>
      <trkpt lat="46.520912004634738" lon="6.778113590553403">
        <ele>675.940000000000055</ele>
        <time>2014-06-14T15:08:00Z</time>
      </trkpt>
      <trkpt lat="46.520855762064457" lon="6.778086014091969">
        <ele>675.940000000000055</ele>
        <time>2014-06-14T15:08:01Z</time>
      </trkpt>
      <trkpt lat="46.52079775929451" lon="6.778064724057913">
        <ele>675.940000000000055</ele>
        <time>2014-06-14T15:08:02Z</time>
      </trkpt>
      <trkpt lat="46.520443707704544" lon="6.77801770158112">
        <ele>677.389999999999986</ele>
        <time>2014-06-14T15:08:08Z</time>
      </trkpt>
      <trkpt lat="46.520387465134263" lon="6.778033124282956">
        <ele>677.389999999999986</ele>
        <time>2014-06-14T15:08:09Z</time>
      </trkpt>
      <trkpt lat="46.520333401858807" lon="6.77805483341217">
        <ele>677.870000000000005</ele>
        <time>2014-06-14T15:08:10Z</time>
      </trkpt>
      <trkpt lat="46.520281601697206" lon="6.7780826613307">
        <ele>677.870000000000005</ele>
        <time>2014-06-14T15:08:11Z</time>
      </trkpt>
      <trkpt lat="46.520230639725924" lon="6.778113422915339">
        <ele>677.870000000000005</ele>
        <time>2014-06-14T15:08:12Z</time>
      </trkpt>
      <trkpt lat="46.519886814057827" lon="6.778483903035522">
        <ele>676.419999999999959</ele>
        <time>2014-06-14T15:08:19Z</time>
      </trkpt>
      <trkpt lat="46.519460259005427" lon="6.779391579329967">
        <ele>676.419999999999959</ele>
        <time>2014-06-14T15:08:29Z</time>
      </trkpt>
      <trkpt lat="46.519405273720622" lon="6.779465591534972">
        <ele>676.419999999999959</ele>
        <time>2014-06-14T15:08:30Z</time>
      </trkpt>
      <trkpt lat="46.519009983167052" lon="6.779837915673852">
        <ele>674.980000000000018</ele>
        <time>2014-06-14T15:08:36Z</time>
      </trkpt>
      <trkpt lat="46.518538249656558" lon="6.780107896775007">
        <ele>678.830000000000041</ele>
        <time>2014-06-14T15:08:44Z</time>
      </trkpt>
      <trkpt lat="46.518500195816159" lon="6.780123570933938">
        <ele>679.309999999999945</ele>
        <time>2014-06-14T15:08:45Z</time>
      </trkpt>
      <trkpt lat="46.518467254936695" lon="6.780135976150632">
        <ele>679.789999999999964</ele>
        <time>2014-06-14T15:08:46Z</time>
      </trkpt>
      <trkpt lat="46.51843816973269" lon="6.780148129910231">
        <ele>680.269999999999982</ele>
        <time>2014-06-14T15:08:47Z</time>
      </trkpt>
      <trkpt lat="46.518411263823509" lon="6.780157936736941">
        <ele>680.75</ele>
        <time>2014-06-14T15:08:48Z</time>
      </trkpt>
      <trkpt lat="46.517898626625538" lon="6.780291544273496">
        <ele>684.120000000000005</ele>
        <time>2014-06-14T15:09:07Z</time>
      </trkpt>
      <trkpt lat="46.517341230064631" lon="6.780334375798702">
        <ele>685.080000000000041</ele>
        <time>2014-06-14T15:09:21Z</time>
      </trkpt>
      <trkpt lat="46.517202258110046" lon="6.780315516516566">
        <ele>685.559999999999945</ele>
        <time>2014-06-14T15:09:24Z</time>
      </trkpt>
      <trkpt lat="46.516473786905408" lon="6.77988619543612">
        <ele>686.519999999999982</ele>
        <time>2014-06-14T15:09:39Z</time>
      </trkpt>
      <trkpt lat="46.515803150832653" lon="6.779798269271851">
        <ele>687</ele>
        <time>2014-06-14T15:09:51Z</time>
      </trkpt>
      <trkpt lat="46.515740538015962" lon="6.779836574569345">
        <ele>686.519999999999982</ele>
        <time>2014-06-14T15:09:52Z</time>
      </trkpt>
      <trkpt lat="46.515679098665714" lon="6.779884435236454">
        <ele>686.519999999999982</ele>
        <time>2014-06-14T15:09:53Z</time>
      </trkpt>
      <trkpt lat="46.515516741201282" lon="6.780004799365997">
        <ele>685.559999999999945</ele>
        <time>2014-06-14T15:09:56Z</time>
      </trkpt>
      <trkpt lat="46.515463264659047" lon="6.780011504888535">
        <ele>685.080000000000041</ele>
        <time>2014-06-14T15:09:57Z</time>
      </trkpt>
      <trkpt lat="46.515422193333507" lon="6.779997842386365">
        <ele>684.600000000000023</ele>
        <time>2014-06-14T15:09:58Z</time>
      </trkpt>
      <trkpt lat="46.51540475897491" lon="6.779975295066833">
        <ele>684.600000000000023</ele>
        <time>2014-06-14T15:09:59Z</time>
      </trkpt>
      <trkpt lat="46.515374919399619" lon="6.77992626093328">
        <ele>684.120000000000005</ele>
        <time>2014-06-14T15:10:00Z</time>
      </trkpt>
      <trkpt lat="46.515339044854045" lon="6.779871946200728">
        <ele>683.629999999999995</ele>
        <time>2014-06-14T15:10:01Z</time>
      </trkpt>
      <trkpt lat="46.515291184186935" lon="6.779825259000063">
        <ele>682.669999999999959</ele>
        <time>2014-06-14T15:10:02Z</time>
      </trkpt>
      <trkpt lat="46.515235779806972" lon="6.779778404161334">
        <ele>682.190000000000055</ele>
        <time>2014-06-14T15:10:03Z</time>
      </trkpt>
      <trkpt lat="46.514597916975617" lon="6.779247494414449">
        <ele>679.789999999999964</ele>
        <time>2014-06-14T15:10:13Z</time>
      </trkpt>
      <trkpt lat="46.514535890892148" lon="6.779186809435487">
        <ele>679.789999999999964</ele>
        <time>2014-06-14T15:10:14Z</time>
      </trkpt>
      <trkpt lat="46.514470428228378" lon="6.779131488874555">
        <ele>679.309999999999945</ele>
        <time>2014-06-14T15:10:15Z</time>
      </trkpt>
      <trkpt lat="46.513709351420403" lon="6.778517011553049">
        <ele>678.830000000000041</ele>
        <time>2014-06-14T15:10:27Z</time>
      </trkpt>
      <trkpt lat="46.513676913455129" lon="6.778459595516324">
        <ele>679.309999999999945</ele>
        <time>2014-06-14T15:10:28Z</time>
      </trkpt>
      <trkpt lat="46.513664843514562" lon="6.778399748727679">
        <ele>679.309999999999945</ele>
        <time>2014-06-14T15:10:29Z</time>
      </trkpt>
      <trkpt lat="46.513669034466147" lon="6.778348870575428">
        <ele>679.789999999999964</ele>
        <time>2014-06-14T15:10:30Z</time>
      </trkpt>
      <trkpt lat="46.513683451339602" lon="6.778307463973761">
        <ele>679.789999999999964</ele>
        <time>2014-06-14T15:10:31Z</time>
      </trkpt>
      <trkpt lat="46.513699544593692" lon="6.778271589428186">
        <ele>680.269999999999982</ele>
        <time>2014-06-14T15:10:32Z</time>
      </trkpt>
      <trkpt lat="46.51382795535028" lon="6.777588380500674">
        <ele>681.710000000000036</ele>
        <time>2014-06-14T15:10:46Z</time>
      </trkpt>
      <trkpt lat="46.513923006132245" lon="6.777356201782823">
        <ele>684.120000000000005</ele>
        <time>2014-06-14T15:10:57Z</time>
      </trkpt>
      <trkpt lat="46.514007830992341" lon="6.777260731905699">
        <ele>684.600000000000023</ele>
        <time>2014-06-14T15:11:00Z</time>
      </trkpt>
      <trkpt lat="46.51404345408082" lon="6.777200466021895">
        <ele>685.080000000000041</ele>
        <time>2014-06-14T15:11:01Z</time>
      </trkpt>
      <trkpt lat="46.514072874560952" lon="6.777131650596857">
        <ele>685.080000000000041</ele>
        <time>2014-06-14T15:11:02Z</time>
      </trkpt>
      <trkpt lat="46.514229951426387" lon="6.776712136343122">
        <ele>687.480000000000018</ele>
        <time>2014-06-14T15:11:12Z</time>
      </trkpt>
      <trkpt lat="46.514250990003347" lon="6.776587665081024">
        <ele>688.919999999999959</ele>
        <time>2014-06-14T15:11:16Z</time>
      </trkpt>
      <trkpt lat="46.514242021366954" lon="6.776556987315416">
        <ele>688.919999999999959</ele>
        <time>2014-06-14T15:11:17Z</time>
      </trkpt>
      <trkpt lat="46.514222575351596" lon="6.776523375883698">
        <ele>689.399999999999977</ele>
        <time>2014-06-14T15:11:18Z</time>
      </trkpt>
      <trkpt lat="46.514193238690495" lon="6.776491440832615">
        <ele>689.399999999999977</ele>
        <time>2014-06-14T15:11:19Z</time>
      </trkpt>
      <trkpt lat="46.514155268669128" lon="6.776463445276022">
        <ele>688.919999999999959</ele>
        <time>2014-06-14T15:11:20Z</time>
      </trkpt>
      <trkpt lat="46.514114197343588" lon="6.77643796429038">
        <ele>688.919999999999959</ele>
        <time>2014-06-14T15:11:21Z</time>
      </trkpt>
      <trkpt lat="46.5136559586972" lon="6.7760553304106">
        <ele>684.600000000000023</ele>
        <time>2014-06-14T15:11:31Z</time>
      </trkpt>
      <trkpt lat="46.51354213245213" lon="6.775966985151172">
        <ele>684.120000000000005</ele>
        <time>2014-06-14T15:11:34Z</time>
      </trkpt>
      <trkpt lat="46.513526542112231" lon="6.775938989594579">
        <ele>684.120000000000005</ele>
        <time>2014-06-14T15:11:35Z</time>
      </trkpt>
      <trkpt lat="46.513509778305888" lon="6.775921052321792">
        <ele>683.629999999999995</ele>
        <time>2014-06-14T15:11:36Z</time>
      </trkpt>
      <trkpt lat="46.513494690880179" lon="6.775907138362527">
        <ele>683.629999999999995</ele>
        <time>2014-06-14T15:11:37Z</time>
      </trkpt>
      <trkpt lat="46.51347910054028" lon="6.775891799479723">
        <ele>684.120000000000005</ele>
        <time>2014-06-14T15:11:38Z</time>
      </trkpt>
      <trkpt lat="46.513443309813738" lon="6.775879478082061">
        <ele>684.600000000000023</ele>
        <time>2014-06-14T15:11:40Z</time>
      </trkpt>
      <trkpt lat="46.513423779979348" lon="6.775881489738822">
        <ele>684.600000000000023</ele>
        <time>2014-06-14T15:11:41Z</time>
      </trkpt>
      <trkpt lat="46.513402992859483" lon="6.775873526930809">
        <ele>684.600000000000023</ele>
        <time>2014-06-14T15:11:42Z</time>
      </trkpt>
      <trkpt lat="46.513379774987698" lon="6.77585793659091">
        <ele>685.080000000000041</ele>
        <time>2014-06-14T15:11:43Z</time>
      </trkpt>
      <trkpt lat="46.513353455811739" lon="6.775838490575552">
        <ele>685.559999999999945</ele>
        <time>2014-06-14T15:11:44Z</time>
      </trkpt>
      <trkpt lat="46.513324957340956" lon="6.775814266875386">
        <ele>685.559999999999945</ele>
        <time>2014-06-14T15:11:45Z</time>
      </trkpt>
      <trkpt lat="46.513289837166667" lon="6.775791803374887">
        <ele>686.039999999999964</ele>
        <time>2014-06-14T15:11:46Z</time>
      </trkpt>
      <trkpt lat="46.513246586546302" lon="6.77577193826437">
        <ele>686.519999999999982</ele>
        <time>2014-06-14T15:11:47Z</time>
      </trkpt>
      <trkpt lat="46.513204425573349" lon="6.775758443400264">
        <ele>686.519999999999982</ele>
        <time>2014-06-14T15:11:48Z</time>
      </trkpt>
      <trkpt lat="46.513164276257157" lon="6.775745786726475">
        <ele>686.519999999999982</ele>
        <time>2014-06-14T15:11:49Z</time>
      </trkpt>
      <trkpt lat="46.513129910454154" lon="6.775728771463037">
        <ele>687</ele>
        <time>2014-06-14T15:11:50Z</time>
      </trkpt>
      <trkpt lat="46.513045839965343" lon="6.775656016543508">
        <ele>687</ele>
        <time>2014-06-14T15:11:55Z</time>
      </trkpt>
      <trkpt lat="46.513034189119935" lon="6.775634223595262">
        <ele>687</ele>
        <time>2014-06-14T15:11:56Z</time>
      </trkpt>
      <trkpt lat="46.513018179684877" lon="6.775620896369219">
        <ele>687</ele>
        <time>2014-06-14T15:11:57Z</time>
      </trkpt>
      <trkpt lat="46.513000661507249" lon="6.775613939389586">
        <ele>687</ele>
        <time>2014-06-14T15:11:58Z</time>
      </trkpt>
      <trkpt lat="46.51298264041543" lon="6.775609580799937">
        <ele>687</ele>
        <time>2014-06-14T15:11:59Z</time>
      </trkpt>
      <trkpt lat="46.512961769476533" lon="6.77560530602932">
        <ele>687.480000000000018</ele>
        <time>2014-06-14T15:12:00Z</time>
      </trkpt>
      <trkpt lat="46.512942491099238" lon="6.775596253573895">
        <ele>687.480000000000018</ele>
        <time>2014-06-14T15:12:01Z</time>
      </trkpt>
      <trkpt lat="46.512921703979373" lon="6.775582758709788">
        <ele>687.480000000000018</ele>
        <time>2014-06-14T15:12:02Z</time>
      </trkpt>
      <trkpt lat="46.512897228822112" lon="6.77556918002665">
        <ele>687.480000000000018</ele>
        <time>2014-06-14T15:12:03Z</time>
      </trkpt>
      <trkpt lat="46.512871747836471" lon="6.775554427877069">
        <ele>687.480000000000018</ele>
        <time>2014-06-14T15:12:04Z</time>
      </trkpt>
      <trkpt lat="46.512850625440478" lon="6.775537496432662">
        <ele>687.480000000000018</ele>
        <time>2014-06-14T15:12:05Z</time>
      </trkpt>
      <trkpt lat="46.512829754501581" lon="6.775518553331494">
        <ele>687.480000000000018</ele>
        <time>2014-06-14T15:12:06Z</time>
      </trkpt>
      <trkpt lat="46.512807793915272" lon="6.775499023497105">
        <ele>687.480000000000018</ele>
        <time>2014-06-14T15:12:07Z</time>
      </trkpt>
      <trkpt lat="46.512507805600762" lon="6.775341778993607">
        <ele>688.919999999999959</ele>
        <time>2014-06-14T15:12:17Z</time>
      </trkpt>
      <trkpt lat="46.512296916916966" lon="6.775214876979589">
        <ele>688.440000000000055</ele>
        <time>2014-06-14T15:12:22Z</time>
      </trkpt>
      <trkpt lat="46.512086866423488" lon="6.775070205330849">
        <ele>688.440000000000055</ele>
        <time>2014-06-14T15:12:27Z</time>
      </trkpt>
      <trkpt lat="46.512065241113305" lon="6.775034414604306">
        <ele>688.919999999999959</ele>
        <time>2014-06-14T15:12:28Z</time>
      </trkpt>
      <trkpt lat="46.512038502842188" lon="6.775006335228682">
        <ele>688.919999999999959</ele>
        <time>2014-06-14T15:12:29Z</time>
      </trkpt>
      <trkpt lat="46.512009920552373" lon="6.774990661069751">
        <ele>688.919999999999959</ele>
        <time>2014-06-14T15:12:30Z</time>
      </trkpt>
      <trkpt lat="46.511982763186097" lon="6.774982279166579">
        <ele>688.919999999999959</ele>
        <time>2014-06-14T15:12:31Z</time>
      </trkpt>
      <trkpt lat="46.511954851448536" lon="6.774965012446046">
        <ele>688.919999999999959</ele>
        <time>2014-06-14T15:12:32Z</time>
      </trkpt>
      <trkpt lat="46.511923586949706" lon="6.774943135678768">
        <ele>688.440000000000055</ele>
        <time>2014-06-14T15:12:33Z</time>
      </trkpt>
      <trkpt lat="46.511889724060893" lon="6.774920672178268">
        <ele>688.440000000000055</ele>
        <time>2014-06-14T15:12:34Z</time>
      </trkpt>
      <trkpt lat="46.511549586430192" lon="6.774684470146894">
        <ele>683.629999999999995</ele>
        <time>2014-06-14T15:12:43Z</time>
      </trkpt>
      <trkpt lat="46.511501474305987" lon="6.774665024131536">
        <ele>683.149999999999977</ele>
        <time>2014-06-14T15:12:44Z</time>
      </trkpt>
      <trkpt lat="46.511451601982117" lon="6.774641973897815">
        <ele>682.669999999999959</ele>
        <time>2014-06-14T15:12:45Z</time>
      </trkpt>
      <trkpt lat="46.511396784335375" lon="6.774608613923192">
        <ele>682.669999999999959</ele>
        <time>2014-06-14T15:12:46Z</time>
      </trkpt>
      <trkpt lat="46.511346325278282" lon="6.774570140987635">
        <ele>682.190000000000055</ele>
        <time>2014-06-14T15:12:47Z</time>
      </trkpt>
      <trkpt lat="46.511310283094645" lon="6.774520101025701">
        <ele>682.190000000000055</ele>
        <time>2014-06-14T15:12:48Z</time>
      </trkpt>
      <trkpt lat="46.511285053566098" lon="6.77445606328547">
        <ele>682.190000000000055</ele>
        <time>2014-06-14T15:12:49Z</time>
      </trkpt>
      <trkpt lat="46.5112573094666" lon="6.774382386356592">
        <ele>682.190000000000055</ele>
        <time>2014-06-14T15:12:50Z</time>
      </trkpt>
      <trkpt lat="46.511217495426536" lon="6.774309547618032">
        <ele>681.710000000000036</ele>
        <time>2014-06-14T15:12:51Z</time>
      </trkpt>
      <trkpt lat="46.511162593960762" lon="6.77423763088882">
        <ele>681.710000000000036</ele>
        <time>2014-06-14T15:12:52Z</time>
      </trkpt>
      <trkpt lat="46.51109361089766" lon="6.77416387014091">
        <ele>681.710000000000036</ele>
        <time>2014-06-14T15:12:53Z</time>
      </trkpt>
      <trkpt lat="46.511037452146411" lon="6.77411156706512">
        <ele>681.710000000000036</ele>
        <time>2014-06-14T15:12:54Z</time>
      </trkpt>
      <trkpt lat="46.510981125757098" lon="6.774058090522885">
        <ele>682.190000000000055</ele>
        <time>2014-06-14T15:12:55Z</time>
      </trkpt>
      <trkpt lat="46.510931085795164" lon="6.774007631465793">
        <ele>683.149999999999977</ele>
        <time>2014-06-14T15:12:56Z</time>
      </trkpt>
      <trkpt lat="46.510838381946087" lon="6.773915514349937">
        <ele>684.120000000000005</ele>
        <time>2014-06-14T15:12:58Z</time>
      </trkpt>
      <trkpt lat="46.510651046410203" lon="6.773712672293186">
        <ele>684.600000000000023</ele>
        <time>2014-06-14T15:13:02Z</time>
      </trkpt>
      <trkpt lat="46.509861890226603" lon="6.773080760613084">
        <ele>682.669999999999959</ele>
        <time>2014-06-14T15:13:15Z</time>
      </trkpt>
      <trkpt lat="46.50890551507473" lon="6.772482795640826">
        <ele>679.789999999999964</ele>
        <time>2014-06-14T15:13:31Z</time>
      </trkpt>
      <trkpt lat="46.508398493751884" lon="6.772196553647518">
        <ele>678.830000000000041</ele>
        <time>2014-06-14T15:13:41Z</time>
      </trkpt>
      <trkpt lat="46.508190454915166" lon="6.772039979696274">
        <ele>676.909999999999968</ele>
        <time>2014-06-14T15:13:49Z</time>
      </trkpt>
      <trkpt lat="46.508184419944882" lon="6.772016510367393">
        <ele>676.419999999999959</ele>
        <time>2014-06-14T15:13:50Z</time>
      </trkpt>
      <trkpt lat="46.508168913424015" lon="6.771994130685925">
        <ele>675.940000000000055</ele>
        <time>2014-06-14T15:13:51Z</time>
      </trkpt>
      <trkpt lat="46.508145360276103" lon="6.771976863965392">
        <ele>675.940000000000055</ele>
        <time>2014-06-14T15:13:52Z</time>
      </trkpt>
      <trkpt lat="46.508116694167256" lon="6.771962698549032">
        <ele>675.460000000000036</ele>
        <time>2014-06-14T15:13:53Z</time>
      </trkpt>
      <trkpt lat="46.508083837106824" lon="6.771949790418148">
        <ele>675.460000000000036</ele>
        <time>2014-06-14T15:13:54Z</time>
      </trkpt>
      <trkpt lat="46.507620820775628" lon="6.771772429347038">
        <ele>674.5</ele>
        <time>2014-06-14T15:14:04Z</time>
      </trkpt>
      <trkpt lat="46.507571619004011" lon="6.771771423518658">
        <ele>674.5</ele>
        <time>2014-06-14T15:14:05Z</time>
      </trkpt>
      <trkpt lat="46.507523925974965" lon="6.771780559793115">
        <ele>674.5</ele>
        <time>2014-06-14T15:14:06Z</time>
      </trkpt>
      <trkpt lat="46.507476316764951" lon="6.771794557571411">
        <ele>674.980000000000018</ele>
        <time>2014-06-14T15:14:07Z</time>
      </trkpt>
      <trkpt lat="46.507426528260112" lon="6.771804532036185">
        <ele>674.5</ele>
        <time>2014-06-14T15:14:08Z</time>
      </trkpt>
      <trkpt lat="46.507371962070465" lon="6.771800927817822">
        <ele>674.019999999999982</ele>
        <time>2014-06-14T15:14:09Z</time>
      </trkpt>
      <trkpt lat="46.50731211528182" lon="6.771787935867906">
        <ele>673.539999999999964</ele>
        <time>2014-06-14T15:14:10Z</time>
      </trkpt>
      <trkpt lat="46.507247909903526" lon="6.771768992766738">
        <ele>673.059999999999945</ele>
        <time>2014-06-14T15:14:11Z</time>
      </trkpt>
      <trkpt lat="46.506624715402722" lon="6.771465232595801">
        <ele>671.620000000000005</ele>
        <time>2014-06-14T15:14:20Z</time>
      </trkpt>
      <trkpt lat="46.506507536396384" lon="6.771320560947061">
        <ele>675.940000000000055</ele>
        <time>2014-06-14T15:14:29Z</time>
      </trkpt>
      <trkpt lat="46.506475852802396" lon="6.771297007799149">
        <ele>676.419999999999959</ele>
        <time>2014-06-14T15:14:31Z</time>
      </trkpt>
      <trkpt lat="46.506471242755651" lon="6.771264486014843">
        <ele>676.909999999999968</ele>
        <time>2014-06-14T15:14:32Z</time>
      </trkpt>
      <trkpt lat="46.506474511697888" lon="6.771227521821856">
        <ele>676.909999999999968</ele>
        <time>2014-06-14T15:14:33Z</time>
      </trkpt>
      <trkpt lat="46.506477864459157" lon="6.771193323656917">
        <ele>676.909999999999968</ele>
        <time>2014-06-14T15:14:34Z</time>
      </trkpt>
      <trkpt lat="46.506478786468506" lon="6.771153761073947">
        <ele>676.909999999999968</ele>
        <time>2014-06-14T15:14:35Z</time>
      </trkpt>
      <trkpt lat="46.506479540839791" lon="6.770851509645581">
        <ele>676.419999999999959</ele>
        <time>2014-06-14T15:14:41Z</time>
      </trkpt>
      <trkpt lat="46.506486078724265" lon="6.770792584866285">
        <ele>676.419999999999959</ele>
        <time>2014-06-14T15:14:42Z</time>
      </trkpt>
      <trkpt lat="46.506501836702228" lon="6.770672556012869">
        <ele>676.909999999999968</ele>
        <time>2014-06-14T15:14:44Z</time>
      </trkpt>
      <trkpt lat="46.506513319909573" lon="6.770618325099349">
        <ele>676.909999999999968</ele>
        <time>2014-06-14T15:14:45Z</time>
      </trkpt>
      <trkpt lat="46.50652689859271" lon="6.770568452775478">
        <ele>676.909999999999968</ele>
        <time>2014-06-14T15:14:46Z</time>
      </trkpt>
      <trkpt lat="46.506544919684529" lon="6.770520424470305">
        <ele>676.909999999999968</ele>
        <time>2014-06-14T15:14:47Z</time>
      </trkpt>
      <trkpt lat="46.506567299365997" lon="6.770473569631577">
        <ele>676.909999999999968</ele>
        <time>2014-06-14T15:14:48Z</time>
      </trkpt>
      <trkpt lat="46.506589008495212" lon="6.770425289869308">
        <ele>676.419999999999959</ele>
        <time>2014-06-14T15:14:49Z</time>
      </trkpt>
      <trkpt lat="46.506607951596379" lon="6.770374914631248">
        <ele>676.909999999999968</ele>
        <time>2014-06-14T15:14:50Z</time>
      </trkpt>
      <trkpt lat="46.506751449778676" lon="6.770049277693033">
        <ele>678.830000000000041</ele>
        <time>2014-06-14T15:14:57Z</time>
      </trkpt>
      <trkpt lat="46.506776008754969" lon="6.769996471703053">
        <ele>679.309999999999945</ele>
        <time>2014-06-14T15:14:58Z</time>
      </trkpt>
      <trkpt lat="46.506795957684517" lon="6.769933607429266">
        <ele>679.309999999999945</ele>
        <time>2014-06-14T15:14:59Z</time>
      </trkpt>
      <trkpt lat="46.506809201091528" lon="6.769862277433276">
        <ele>679.309999999999945</ele>
        <time>2014-06-14T15:15:00Z</time>
      </trkpt>
      <trkpt lat="46.506816577166319" lon="6.769785583019257">
        <ele>678.830000000000041</ele>
        <time>2014-06-14T15:15:01Z</time>
      </trkpt>
      <trkpt lat="46.50682395324111" lon="6.769709140062332">
        <ele>678.350000000000023</ele>
        <time>2014-06-14T15:15:02Z</time>
      </trkpt>
      <trkpt lat="46.506834179162979" lon="6.769626243039966">
        <ele>678.350000000000023</ele>
        <time>2014-06-14T15:15:03Z</time>
      </trkpt>
      <trkpt lat="46.506845494732261" lon="6.769555499777198">
        <ele>678.350000000000023</ele>
        <time>2014-06-14T15:15:04Z</time>
      </trkpt>
      <trkpt lat="46.506860833615065" lon="6.769490791484714">
        <ele>678.350000000000023</ele>
        <time>2014-06-14T15:15:05Z</time>
      </trkpt>
      <trkpt lat="46.506933169439435" lon="6.769221145659685">
        <ele>678.350000000000023</ele>
        <time>2014-06-14T15:15:09Z</time>
      </trkpt>
      <trkpt lat="46.506966361775994" lon="6.769088795408607">
        <ele>678.350000000000023</ele>
        <time>2014-06-14T15:15:11Z</time>
      </trkpt>
      <trkpt lat="46.506968373432755" lon="6.769012771546841">
        <ele>678.350000000000023</ele>
        <time>2014-06-14T15:15:12Z</time>
      </trkpt>
      <trkpt lat="46.506950519979" lon="6.76869560033083">
        <ele>678.350000000000023</ele>
        <time>2014-06-14T15:15:17Z</time>
      </trkpt>
      <trkpt lat="46.50692218914628" lon="6.768610272556543">
        <ele>678.830000000000041</ele>
        <time>2014-06-14T15:15:18Z</time>
      </trkpt>
      <trkpt lat="46.506895618513227" lon="6.768561657518148">
        <ele>679.309999999999945</ele>
        <time>2014-06-14T15:15:19Z</time>
      </trkpt>
      <trkpt lat="46.506868293508887" lon="6.768514551222324">
        <ele>679.789999999999964</ele>
        <time>2014-06-14T15:15:20Z</time>
      </trkpt>
      <trkpt lat="46.506843734532595" lon="6.768465600907803">
        <ele>680.269999999999982</ele>
        <time>2014-06-14T15:15:21Z</time>
      </trkpt>
      <trkpt lat="46.506570400670171" lon="6.76785665564239">
        <ele>686.039999999999964</ele>
        <time>2014-06-14T15:15:37Z</time>
      </trkpt>
      <trkpt lat="46.506517427042127" lon="6.767392549663782">
        <ele>685.559999999999945</ele>
        <time>2014-06-14T15:15:50Z</time>
      </trkpt>
      <trkpt lat="46.506528910249472" lon="6.76732842810452">
        <ele>686.039999999999964</ele>
        <time>2014-06-14T15:15:52Z</time>
      </trkpt>
      <trkpt lat="46.50666419416666" lon="6.767404451966286">
        <ele>687.480000000000018</ele>
        <time>2014-06-14T15:15:58Z</time>
      </trkpt>
      <trkpt lat="46.506891762837768" lon="6.7676782887429">
        <ele>692.289999999999964</ele>
        <time>2014-06-14T15:16:12Z</time>
      </trkpt>
      <trkpt lat="46.506913136690855" lon="6.76768122240901">
        <ele>692.769999999999982</ele>
        <time>2014-06-14T15:16:17Z</time>
      </trkpt>
      <trkpt lat="46.506577106192708" lon="6.767341000959277">
        <ele>691.330000000000041</ele>
        <time>2014-06-14T15:16:26Z</time>
      </trkpt>
      <trkpt lat="46.506492616608739" lon="6.767232790589333">
        <ele>690.840000000000032</ele>
        <time>2014-06-14T15:16:28Z</time>
      </trkpt>
      <trkpt lat="46.506464704871178" lon="6.767171351239085">
        <ele>690.840000000000032</ele>
        <time>2014-06-14T15:16:29Z</time>
      </trkpt>
      <trkpt lat="46.506450790911913" lon="6.767108989879489">
        <ele>690.840000000000032</ele>
        <time>2014-06-14T15:16:30Z</time>
      </trkpt>
      <trkpt lat="46.506448863074183" lon="6.767052663490176">
        <ele>690.840000000000032</ele>
        <time>2014-06-14T15:16:31Z</time>
      </trkpt>
      <trkpt lat="46.506448443979025" lon="6.76699323579669">
        <ele>690.840000000000032</ele>
        <time>2014-06-14T15:16:32Z</time>
      </trkpt>
      <trkpt lat="46.506447689607739" lon="6.766942106187344">
        <ele>690.840000000000032</ele>
        <time>2014-06-14T15:16:33Z</time>
      </trkpt>
      <trkpt lat="46.50639982894063" lon="6.766329389065504">
        <ele>690.360000000000014</ele>
        <time>2014-06-14T15:16:46Z</time>
      </trkpt>
      <trkpt lat="46.506224982440472" lon="6.765772076323628">
        <ele>694.690000000000055</ele>
        <time>2014-06-14T15:17:03Z</time>
      </trkpt>
      <trkpt lat="46.506115347146988" lon="6.765383658930659">
        <ele>698.049999999999955</ele>
        <time>2014-06-14T15:17:17Z</time>
      </trkpt>
      <trkpt lat="46.506054913625121" lon="6.764927767217159">
        <ele>700.940000000000055</ele>
        <time>2014-06-14T15:17:34Z</time>
      </trkpt>
      <trkpt lat="46.506067151203752" lon="6.764901783317327">
        <ele>701.419999999999959</ele>
        <time>2014-06-14T15:17:35Z</time>
      </trkpt>
      <trkpt lat="46.506217606365681" lon="6.764890970662236">
        <ele>703.340000000000032</ele>
        <time>2014-06-14T15:17:43Z</time>
      </trkpt>
      <trkpt lat="46.506465543061495" lon="6.765077132731676">
        <ele>705.259999999999991</ele>
        <time>2014-06-14T15:17:57Z</time>
      </trkpt>
      <trkpt lat="46.506693195551634" lon="6.765202609822154">
        <ele>715.840000000000032</ele>
        <time>2014-06-14T15:18:10Z</time>
      </trkpt>
      <trkpt lat="46.506863264366984" lon="6.765256421640515">
        <ele>725.92999999999995</ele>
        <time>2014-06-14T15:18:23Z</time>
      </trkpt>
      <trkpt lat="46.507043978199363" lon="6.765341581776738">
        <ele>736.509999999999991</ele>
        <time>2014-06-14T15:18:36Z</time>
      </trkpt>
      <trkpt lat="46.507204156368971" lon="6.765439230948687">
        <ele>743.240000000000009</ele>
        <time>2014-06-14T15:18:47Z</time>
      </trkpt>
      <trkpt lat="46.507298955693841" lon="6.765497149899602">
        <ele>748.519999999999982</ele>
        <time>2014-06-14T15:18:53Z</time>
      </trkpt>
      <trkpt lat="46.507409932091832" lon="6.765594044700265">
        <ele>758.139999999999986</ele>
        <time>2014-06-14T15:19:03Z</time>
      </trkpt>
      <trkpt lat="46.50742988102138" lon="6.765621704980731">
        <ele>759.580000000000041</ele>
        <time>2014-06-14T15:19:05Z</time>
      </trkpt>
      <trkpt lat="46.507495427504182" lon="6.76566026173532">
        <ele>764.870000000000005</ele>
        <time>2014-06-14T15:19:11Z</time>
      </trkpt>
      <trkpt lat="46.507658371701837" lon="6.765806274488568">
        <ele>774.480000000000018</ele>
        <time>2014-06-14T15:19:24Z</time>
      </trkpt>
      <trkpt lat="46.507907481864095" lon="6.765993693843484">
        <ele>775.919999999999959</ele>
        <time>2014-06-14T15:19:37Z</time>
      </trkpt>
      <trkpt lat="46.508069420233369" lon="6.766155632212758">
        <ele>775.440000000000055</ele>
        <time>2014-06-14T15:19:48Z</time>
      </trkpt>
      <trkpt lat="46.508254744112492" lon="6.766358222812414">
        <ele>775.919999999999959</ele>
        <time>2014-06-14T15:20:01Z</time>
      </trkpt>
      <trkpt lat="46.508493460714817" lon="6.766351601108909">
        <ele>777.840000000000032</ele>
        <time>2014-06-14T15:20:16Z</time>
      </trkpt>
      <trkpt lat="46.508711809292436" lon="6.766239954158664">
        <ele>781.690000000000055</ele>
        <time>2014-06-14T15:20:26Z</time>
      </trkpt>
      <trkpt lat="46.50895094498992" lon="6.766099641099572">
        <ele>787.460000000000036</ele>
        <time>2014-06-14T15:20:34Z</time>
      </trkpt>
      <trkpt lat="46.509311199188232" lon="6.765882382169366">
        <ele>796.110000000000014</ele>
        <time>2014-06-14T15:20:43Z</time>
      </trkpt>
      <trkpt lat="46.509540444239974" lon="6.76584986038506">
        <ele>801.399999999999977</ele>
        <time>2014-06-14T15:20:48Z</time>
      </trkpt>
      <trkpt lat="46.509760050103068" lon="6.766005093231797">
        <ele>806.67999999999995</ele>
        <time>2014-06-14T15:20:53Z</time>
      </trkpt>
      <trkpt lat="46.509981919080019" lon="6.766254371032119">
        <ele>809.57000000000005</ele>
        <time>2014-06-14T15:20:58Z</time>
      </trkpt>
      <trkpt lat="46.510073281824589" lon="6.766327880322933">
        <ele>811.490000000000009</ele>
        <time>2014-06-14T15:21:00Z</time>
      </trkpt>
      <trkpt lat="46.51060251519084" lon="6.766264261677861">
        <ele>815.82000000000005</ele>
        <time>2014-06-14T15:21:10Z</time>
      </trkpt>
      <trkpt lat="46.510828156024218" lon="6.765868971124291">
        <ele>816.299999999999955</ele>
        <time>2014-06-14T15:21:16Z</time>
      </trkpt>
      <trkpt lat="46.510679880157113" lon="6.765166148543358">
        <ele>815.82000000000005</ele>
        <time>2014-06-14T15:21:26Z</time>
      </trkpt>
      <trkpt lat="46.510247457772493" lon="6.764638340100646">
        <ele>807.639999999999986</ele>
        <time>2014-06-14T15:21:36Z</time>
      </trkpt>
      <trkpt lat="46.509605571627617" lon="6.764227375388145">
        <ele>781.690000000000055</ele>
        <time>2014-06-14T15:21:47Z</time>
      </trkpt>
      <trkpt lat="46.509325783699751" lon="6.764090834185481">
        <ele>776.879999999999995</ele>
        <time>2014-06-14T15:21:52Z</time>
      </trkpt>
      <trkpt lat="46.50914641097188" lon="6.763970050960779">
        <ele>775.440000000000055</ele>
        <time>2014-06-14T15:21:55Z</time>
      </trkpt>
      <trkpt lat="46.50822532363236" lon="6.763267060741782">
        <ele>762.460000000000036</ele>
        <time>2014-06-14T15:22:09Z</time>
      </trkpt>
      <trkpt lat="46.50814569555223" lon="6.763228084892035">
        <ele>760.539999999999964</ele>
        <time>2014-06-14T15:22:10Z</time>
      </trkpt>
      <trkpt lat="46.507437424734235" lon="6.762921055778861">
        <ele>743.720000000000027</ele>
        <time>2014-06-14T15:22:21Z</time>
      </trkpt>
      <trkpt lat="46.507244054228067" lon="6.762819886207581">
        <ele>740.350000000000023</ele>
        <time>2014-06-14T15:22:27Z</time>
      </trkpt>
      <trkpt lat="46.506719095632434" lon="6.762405065819621">
        <ele>734.100000000000023</ele>
        <time>2014-06-14T15:22:36Z</time>
      </trkpt>
      <trkpt lat="46.505963215604424" lon="6.761740883812308">
        <ele>724.970000000000027</ele>
        <time>2014-06-14T15:22:49Z</time>
      </trkpt>
      <trkpt lat="46.505410512909293" lon="6.761842304840684">
        <ele>720.649999999999977</ele>
        <time>2014-06-14T15:22:57Z</time>
      </trkpt>
      <trkpt lat="46.505361646413803" lon="6.761922435835004">
        <ele>720.159999999999968</ele>
        <time>2014-06-14T15:22:58Z</time>
      </trkpt>
      <trkpt lat="46.505205575376749" lon="6.762069119140506">
        <ele>718.720000000000027</ele>
        <time>2014-06-14T15:23:02Z</time>
      </trkpt>
      <trkpt lat="46.50516165420413" lon="6.762022934854031">
        <ele>718.240000000000009</ele>
        <time>2014-06-14T15:23:03Z</time>
      </trkpt>
      <trkpt lat="46.505143381655216" lon="6.76198722794652">
        <ele>718.240000000000009</ele>
        <time>2014-06-14T15:23:04Z</time>
      </trkpt>
      <trkpt lat="46.505115972831845" lon="6.761920507997274">
        <ele>718.240000000000009</ele>
        <time>2014-06-14T15:23:05Z</time>
      </trkpt>
      <trkpt lat="46.505087139084935" lon="6.761844819411635">
        <ele>718.240000000000009</ele>
        <time>2014-06-14T15:23:06Z</time>
      </trkpt>
      <trkpt lat="46.505047995597124" lon="6.761758653447032">
        <ele>717.759999999999991</ele>
        <time>2014-06-14T15:23:07Z</time>
      </trkpt>
      <trkpt lat="46.504747588187456" lon="6.76127040758729">
        <ele>715.840000000000032</ele>
        <time>2014-06-14T15:23:12Z</time>
      </trkpt>
      <trkpt lat="46.504664607346058" lon="6.761194719001651">
        <ele>715.360000000000014</ele>
        <time>2014-06-14T15:23:13Z</time>
      </trkpt>
      <trkpt lat="46.504465453326702" lon="6.76104761660099">
        <ele>713.440000000000055</ele>
        <time>2014-06-14T15:23:16Z</time>
      </trkpt>
      <trkpt lat="46.504432009533048" lon="6.761004282161593">
        <ele>712.950000000000045</ele>
        <time>2014-06-14T15:23:17Z</time>
      </trkpt>
      <trkpt lat="46.504423124715686" lon="6.760957175865769">
        <ele>712.950000000000045</ele>
        <time>2014-06-14T15:23:18Z</time>
      </trkpt>
      <trkpt lat="46.504435194656253" lon="6.760916775092483">
        <ele>711.990000000000009</ele>
        <time>2014-06-14T15:23:19Z</time>
      </trkpt>
      <trkpt lat="46.50445363484323" lon="6.760893221944571">
        <ele>711.509999999999991</ele>
        <time>2014-06-14T15:23:20Z</time>
      </trkpt>
      <trkpt lat="46.504487078636885" lon="6.760870087891817">
        <ele>711.029999999999973</ele>
        <time>2014-06-14T15:23:21Z</time>
      </trkpt>
      <trkpt lat="46.504533011466265" lon="6.760841254144907">
        <ele>710.549999999999955</ele>
        <time>2014-06-14T15:23:22Z</time>
      </trkpt>
      <trkpt lat="46.504751527681947" lon="6.760752070695162">
        <ele>710.549999999999955</ele>
        <time>2014-06-14T15:23:25Z</time>
      </trkpt>
      <trkpt lat="46.504914052784443" lon="6.76071485504508">
        <ele>710.549999999999955</ele>
        <time>2014-06-14T15:23:27Z</time>
      </trkpt>
      <trkpt lat="46.505009355023503" lon="6.760664395987988">
        <ele>711.029999999999973</ele>
        <time>2014-06-14T15:23:29Z</time>
      </trkpt>
      <trkpt lat="46.505136005580425" lon="6.760609159246087">
        <ele>711.990000000000009</ele>
        <time>2014-06-14T15:23:31Z</time>
      </trkpt>
      <trkpt lat="46.505399867892265" lon="6.760466163977981">
        <ele>718.240000000000009</ele>
        <time>2014-06-14T15:23:41Z</time>
      </trkpt>
      <trkpt lat="46.505739502608776" lon="6.760264076292515">
        <ele>722.090000000000032</ele>
        <time>2014-06-14T15:23:52Z</time>
      </trkpt>
      <trkpt lat="46.506178043782711" lon="6.76007229834795">
        <ele>719.67999999999995</ele>
        <time>2014-06-14T15:24:03Z</time>
      </trkpt>
      <trkpt lat="46.50652882643044" lon="6.760024521499872">
        <ele>721.129999999999995</ele>
        <time>2014-06-14T15:24:15Z</time>
      </trkpt>
      <trkpt lat="46.506742648780346" lon="6.760097611695528">
        <ele>728.340000000000032</ele>
        <time>2014-06-14T15:24:27Z</time>
      </trkpt>
      <trkpt lat="46.506792437285185" lon="6.76011043600738">
        <ele>729.299999999999955</ele>
        <time>2014-06-14T15:24:30Z</time>
      </trkpt>
      <trkpt lat="46.506815990433097" lon="6.760105239227414">
        <ele>729.779999999999973</ele>
        <time>2014-06-14T15:24:31Z</time>
      </trkpt>
      <trkpt lat="46.506837364286184" lon="6.760099371895194">
        <ele>729.779999999999973</ele>
        <time>2014-06-14T15:24:32Z</time>
      </trkpt>
      <trkpt lat="46.506857983767986" lon="6.760092414915562">
        <ele>730.259999999999991</ele>
        <time>2014-06-14T15:24:33Z</time>
      </trkpt>
      <trkpt lat="46.506881956011057" lon="6.760094426572323">
        <ele>730.740000000000009</ele>
        <time>2014-06-14T15:24:34Z</time>
      </trkpt>
      <trkpt lat="46.506905509158969" lon="6.760094258934259">
        <ele>731.220000000000027</ele>
        <time>2014-06-14T15:24:35Z</time>
      </trkpt>
      <trkpt lat="46.50693241506815" lon="6.760093504562974">
        <ele>731.700000000000045</ele>
        <time>2014-06-14T15:24:36Z</time>
      </trkpt>
      <trkpt lat="46.506965355947614" lon="6.76009283401072">
        <ele>732.17999999999995</ele>
        <time>2014-06-14T15:24:37Z</time>
      </trkpt>
      <trkpt lat="46.506998799741268" lon="6.760092498734593">
        <ele>732.659999999999968</ele>
        <time>2014-06-14T15:24:38Z</time>
      </trkpt>
      <trkpt lat="46.507268361747265" lon="6.760117392987013">
        <ele>735.07000000000005</ele>
        <time>2014-06-14T15:24:43Z</time>
      </trkpt>
      <trkpt lat="46.50747531093657" lon="6.760161062702537">
        <ele>734.100000000000023</ele>
        <time>2014-06-14T15:24:46Z</time>
      </trkpt>
      <trkpt lat="46.507550245150924" lon="6.760185034945607">
        <ele>733.620000000000005</ele>
        <time>2014-06-14T15:24:47Z</time>
      </trkpt>
      <trkpt lat="46.507625347003341" lon="6.760208755731583">
        <ele>733.139999999999986</ele>
        <time>2014-06-14T15:24:48Z</time>
      </trkpt>
      <trkpt lat="46.50783003307879" lon="6.760292407125235">
        <ele>732.659999999999968</ele>
        <time>2014-06-14T15:24:51Z</time>
      </trkpt>
      <trkpt lat="46.507894657552242" lon="6.760324006900191">
        <ele>732.17999999999995</ele>
        <time>2014-06-14T15:24:52Z</time>
      </trkpt>
      <trkpt lat="46.507961545139551" lon="6.76035619340837">
        <ele>732.17999999999995</ele>
        <time>2014-06-14T15:24:53Z</time>
      </trkpt>
      <trkpt lat="46.508163549005985" lon="6.76047638989985">
        <ele>731.700000000000045</ele>
        <time>2014-06-14T15:24:56Z</time>
      </trkpt>
      <trkpt lat="46.509107770398259" lon="6.76116387359798">
        <ele>724.970000000000027</ele>
        <time>2014-06-14T15:25:10Z</time>
      </trkpt>
      <trkpt lat="46.509631052613258" lon="6.76156360656023">
        <ele>715.360000000000014</ele>
        <time>2014-06-14T15:25:22Z</time>
      </trkpt>
      <trkpt lat="46.510062636807561" lon="6.7620590608567">
        <ele>710.549999999999955</ele>
        <time>2014-06-14T15:25:35Z</time>
      </trkpt>
      <trkpt lat="46.510098092257977" lon="6.762096108868718">
        <ele>710.07000000000005</ele>
        <time>2014-06-14T15:25:36Z</time>
      </trkpt>
      <trkpt lat="46.510544177144766" lon="6.762565830722451">
        <ele>708.629999999999995</ele>
        <time>2014-06-14T15:25:48Z</time>
      </trkpt>
      <trkpt lat="46.511152870953083" lon="6.763118114322424">
        <ele>709.110000000000014</ele>
        <time>2014-06-14T15:26:04Z</time>
      </trkpt>
      <trkpt lat="46.511255297809839" lon="6.763231521472335">
        <ele>709.110000000000014</ele>
        <time>2014-06-14T15:26:07Z</time>
      </trkpt>
      <trkpt lat="46.511686714366078" lon="6.763424808159471">
        <ele>708.149999999999977</ele>
        <time>2014-06-14T15:26:19Z</time>
      </trkpt>
      <trkpt lat="46.511811017990112" lon="6.763385999947786">
        <ele>707.669999999999959</ele>
        <time>2014-06-14T15:26:22Z</time>
      </trkpt>
      <trkpt lat="46.511853095144033" lon="6.763369487598538">
        <ele>707.669999999999959</ele>
        <time>2014-06-14T15:26:23Z</time>
      </trkpt>
      <trkpt lat="46.511897016316652" lon="6.763358591124415">
        <ele>707.669999999999959</ele>
        <time>2014-06-14T15:26:24Z</time>
      </trkpt>
      <trkpt lat="46.511938842013478" lon="6.763348784297705">
        <ele>707.669999999999959</ele>
        <time>2014-06-14T15:26:25Z</time>
      </trkpt>
      <trkpt lat="46.511980919167399" lon="6.763335959985852">
        <ele>707.190000000000055</ele>
        <time>2014-06-14T15:26:26Z</time>
      </trkpt>
      <trkpt lat="46.512019308283925" lon="6.763316933065653">
        <ele>707.190000000000055</ele>
        <time>2014-06-14T15:26:27Z</time>
      </trkpt>
      <trkpt lat="46.512049818411469" lon="6.763276448473334">
        <ele>707.190000000000055</ele>
        <time>2014-06-14T15:26:28Z</time>
      </trkpt>
      <trkpt lat="46.512043196707964" lon="6.763142170384526">
        <ele>707.190000000000055</ele>
        <time>2014-06-14T15:26:31Z</time>
      </trkpt>
      <trkpt lat="46.512006483972073" lon="6.763080898672342">
        <ele>707.669999999999959</ele>
        <time>2014-06-14T15:26:32Z</time>
      </trkpt>
      <trkpt lat="46.511951498687267" lon="6.762976963073015">
        <ele>707.669999999999959</ele>
        <time>2014-06-14T15:26:34Z</time>
      </trkpt>
      <trkpt lat="46.511928448453546" lon="6.762916697189212">
        <ele>707.669999999999959</ele>
        <time>2014-06-14T15:26:35Z</time>
      </trkpt>
      <trkpt lat="46.511915037408471" lon="6.76285358145833">
        <ele>707.669999999999959</ele>
        <time>2014-06-14T15:26:36Z</time>
      </trkpt>
      <trkpt lat="46.511914618313313" lon="6.762789711356163">
        <ele>707.669999999999959</ele>
        <time>2014-06-14T15:26:37Z</time>
      </trkpt>
      <trkpt lat="46.51192962191999" lon="6.762718046084046">
        <ele>708.149999999999977</ele>
        <time>2014-06-14T15:26:38Z</time>
      </trkpt>
      <trkpt lat="46.511946218088269" lon="6.762667922303081">
        <ele>708.149999999999977</ele>
        <time>2014-06-14T15:26:39Z</time>
      </trkpt>
      <trkpt lat="46.511970777064562" lon="6.762604638934135">
        <ele>708.149999999999977</ele>
        <time>2014-06-14T15:26:40Z</time>
      </trkpt>
      <trkpt lat="46.512464638799429" lon="6.76145170815289">
        <ele>707.669999999999959</ele>
        <time>2014-06-14T15:26:59Z</time>
      </trkpt>
      <trkpt lat="46.512668905779719" lon="6.76102657802403">
        <ele>711.509999999999991</ele>
        <time>2014-06-14T15:27:15Z</time>
      </trkpt>
      <trkpt lat="46.512901084497571" lon="6.760642603039742">
        <ele>715.840000000000032</ele>
        <time>2014-06-14T15:27:34Z</time>
      </trkpt>
      <trkpt lat="46.512927822768688" lon="6.760654002428055">
        <ele>715.840000000000032</ele>
        <time>2014-06-14T15:27:36Z</time>
      </trkpt>
      <trkpt lat="46.512952884659171" lon="6.760672442615032">
        <ele>715.840000000000032</ele>
        <time>2014-06-14T15:27:37Z</time>
      </trkpt>
      <trkpt lat="46.513253292068839" lon="6.760745784267783">
        <ele>719.67999999999995</ele>
        <time>2014-06-14T15:27:52Z</time>
      </trkpt>
      <trkpt lat="46.513259327039123" lon="6.760710664093494">
        <ele>720.159999999999968</ele>
        <time>2014-06-14T15:27:54Z</time>
      </trkpt>
      <trkpt lat="46.513258488848805" lon="6.760674873366952">
        <ele>720.649999999999977</ele>
        <time>2014-06-14T15:27:55Z</time>
      </trkpt>
      <trkpt lat="46.513257399201393" lon="6.760651487857103">
        <ele>721.129999999999995</ele>
        <time>2014-06-14T15:27:56Z</time>
      </trkpt>
      <trkpt lat="46.51305983774364" lon="6.76023306325078">
        <ele>725.450000000000045</ele>
        <time>2014-06-14T15:28:14Z</time>
      </trkpt>
      <trkpt lat="46.512874513864517" lon="6.759905247017741">
        <ele>728.82000000000005</ele>
        <time>2014-06-14T15:28:29Z</time>
      </trkpt>
      <trkpt lat="46.512664128094912" lon="6.759565360844135">
        <ele>730.740000000000009</ele>
        <time>2014-06-14T15:28:44Z</time>
      </trkpt>
      <trkpt lat="46.512551894411445" lon="6.759161185473204">
        <ele>733.139999999999986</ele>
        <time>2014-06-14T15:28:59Z</time>
      </trkpt>
      <trkpt lat="46.51269530877471" lon="6.758785592392087">
        <ele>738.42999999999995</ele>
        <time>2014-06-14T15:29:14Z</time>
      </trkpt>
      <trkpt lat="46.513009713962674" lon="6.75859565846622">
        <ele>743.240000000000009</ele>
        <time>2014-06-14T15:29:32Z</time>
      </trkpt>
      <trkpt lat="46.513218339532614" lon="6.758415112271905">
        <ele>745.639999999999986</ele>
        <time>2014-06-14T15:29:46Z</time>
      </trkpt>
      <trkpt lat="46.513377511873841" lon="6.758178407326341">
        <ele>748.039999999999964</ele>
        <time>2014-06-14T15:30:00Z</time>
      </trkpt>
      <trkpt lat="46.513497540727258" lon="6.75790524110198">
        <ele>751.409999999999968</ele>
        <time>2014-06-14T15:30:16Z</time>
      </trkpt>
      <trkpt lat="46.513538025319576" lon="6.757730226963758">
        <ele>753.809999999999945</ele>
        <time>2014-06-14T15:30:25Z</time>
      </trkpt>
      <trkpt lat="46.513522434979677" lon="6.757708936929703">
        <ele>753.809999999999945</ele>
        <time>2014-06-14T15:30:27Z</time>
      </trkpt>
      <trkpt lat="46.513513550162315" lon="6.75769217312336">
        <ele>753.330000000000041</ele>
        <time>2014-06-14T15:30:28Z</time>
      </trkpt>
      <trkpt lat="46.513494690880179" lon="6.757668452337384">
        <ele>752.850000000000023</ele>
        <time>2014-06-14T15:30:29Z</time>
      </trkpt>
      <trkpt lat="46.513488152995706" lon="6.757659567520022">
        <ele>752.850000000000023</ele>
        <time>2014-06-14T15:30:30Z</time>
      </trkpt>
      <trkpt lat="46.513158995658159" lon="6.757397465407848">
        <ele>752.370000000000005</ele>
        <time>2014-06-14T15:30:45Z</time>
      </trkpt>
      <trkpt lat="46.512587517499924" lon="6.75709119066596">
        <ele>750.450000000000045</ele>
        <time>2014-06-14T15:31:01Z</time>
      </trkpt>
      <trkpt lat="46.512323152273893" lon="6.756820622831583">
        <ele>750.450000000000045</ele>
        <time>2014-06-14T15:31:08Z</time>
      </trkpt>
      <trkpt lat="46.512287110090256" lon="6.756779300048947">
        <ele>750.450000000000045</ele>
        <time>2014-06-14T15:31:09Z</time>
      </trkpt>
      <trkpt lat="46.512247966602445" lon="6.756741665303707">
        <ele>749.970000000000027</ele>
        <time>2014-06-14T15:31:10Z</time>
      </trkpt>
      <trkpt lat="46.512205554172397" lon="6.756706880405545">
        <ele>749.970000000000027</ele>
        <time>2014-06-14T15:31:11Z</time>
      </trkpt>
      <trkpt lat="46.512165991589427" lon="6.75667536444962">
        <ele>749.970000000000027</ele>
        <time>2014-06-14T15:31:12Z</time>
      </trkpt>
      <trkpt lat="46.512125674635172" lon="6.756645860150456">
        <ele>749.970000000000027</ele>
        <time>2014-06-14T15:31:13Z</time>
      </trkpt>
      <trkpt lat="46.511758295819163" lon="6.756221149116755">
        <ele>750.92999999999995</ele>
        <time>2014-06-14T15:31:26Z</time>
      </trkpt>
      <trkpt lat="46.511565512046218" lon="6.755971787497401">
        <ele>753.330000000000041</ele>
        <time>2014-06-14T15:31:37Z</time>
      </trkpt>
      <trkpt lat="46.511352444067597" lon="6.755801299586892">
        <ele>756.690000000000055</ele>
        <time>2014-06-14T15:31:51Z</time>
      </trkpt>
      <trkpt lat="46.511078774929047" lon="6.755637684836984">
        <ele>758.620000000000005</ele>
        <time>2014-06-14T15:32:08Z</time>
      </trkpt>
      <trkpt lat="46.510863862931728" lon="6.755388407036662">
        <ele>761.019999999999982</ele>
        <time>2014-06-14T15:32:24Z</time>
      </trkpt>
      <trkpt lat="46.510660266503692" lon="6.755029242485762">
        <ele>766.309999999999945</ele>
        <time>2014-06-14T15:32:43Z</time>
      </trkpt>
      <trkpt lat="46.510438481345773" lon="6.754884570837021">
        <ele>768.710000000000036</ele>
        <time>2014-06-14T15:32:59Z</time>
      </trkpt>
      <trkpt lat="46.510222563520074" lon="6.754737971350551">
        <ele>771.110000000000014</ele>
        <time>2014-06-14T15:33:14Z</time>
      </trkpt>
      <trkpt lat="46.510195322334766" lon="6.75472036935389">
        <ele>771.600000000000023</ele>
        <time>2014-06-14T15:33:17Z</time>
      </trkpt>
      <trkpt lat="46.510182330384851" lon="6.754727493971586">
        <ele>771.600000000000023</ele>
        <time>2014-06-14T15:33:18Z</time>
      </trkpt>
      <trkpt lat="46.510168248787522" lon="6.754735372960567">
        <ele>771.600000000000023</ele>
        <time>2014-06-14T15:33:19Z</time>
      </trkpt>
      <trkpt lat="46.510154083371162" lon="6.754738138988614">
        <ele>771.600000000000023</ele>
        <time>2014-06-14T15:33:20Z</time>
      </trkpt>
      <trkpt lat="46.510137235745788" lon="6.754735540598631">
        <ele>772.080000000000041</ele>
        <time>2014-06-14T15:33:21Z</time>
      </trkpt>
      <trkpt lat="46.509892651811242" lon="6.754693128168583">
        <ele>771.600000000000023</ele>
        <time>2014-06-14T15:33:32Z</time>
      </trkpt>
      <trkpt lat="46.509820148348808" lon="6.754773175343871">
        <ele>770.629999999999995</ele>
        <time>2014-06-14T15:33:41Z</time>
      </trkpt>
      <trkpt lat="46.509801205247641" lon="6.75481759943068">
        <ele>769.669999999999959</ele>
        <time>2014-06-14T15:33:47Z</time>
      </trkpt>
      <trkpt lat="46.509787878021598" lon="6.754829753190279">
        <ele>769.669999999999959</ele>
        <time>2014-06-14T15:33:48Z</time>
      </trkpt>
      <trkpt lat="46.509776897728443" lon="6.754838805645704">
        <ele>769.669999999999959</ele>
        <time>2014-06-14T15:33:49Z</time>
      </trkpt>
      <trkpt lat="46.509765582159162" lon="6.754844002425671">
        <ele>769.669999999999959</ele>
        <time>2014-06-14T15:33:50Z</time>
      </trkpt>
      <trkpt lat="46.509753176942468" lon="6.754845511168242">
        <ele>769.669999999999959</ele>
        <time>2014-06-14T15:33:51Z</time>
      </trkpt>
      <trkpt lat="46.509739514440298" lon="6.754843918606639">
        <ele>769.669999999999959</ele>
        <time>2014-06-14T15:33:52Z</time>
      </trkpt>
      <trkpt lat="46.509721660986543" lon="6.75483469851315">
        <ele>770.149999999999977</ele>
        <time>2014-06-14T15:33:53Z</time>
      </trkpt>
      <trkpt lat="46.509699281305075" lon="6.754822712391615">
        <ele>770.149999999999977</ele>
        <time>2014-06-14T15:33:54Z</time>
      </trkpt>
      <trkpt lat="46.50936434045434" lon="6.754578128457069">
        <ele>770.149999999999977</ele>
        <time>2014-06-14T15:34:05Z</time>
      </trkpt>
      <trkpt lat="46.50932427495718" lon="6.754586761817336">
        <ele>770.149999999999977</ele>
        <time>2014-06-14T15:34:06Z</time>
      </trkpt>
      <trkpt lat="46.509288987144828" lon="6.75460989587009">
        <ele>770.629999999999995</ele>
        <time>2014-06-14T15:34:07Z</time>
      </trkpt>
      <trkpt lat="46.508811637759209" lon="6.755041060969234">
        <ele>769.669999999999959</ele>
        <time>2014-06-14T15:34:22Z</time>
      </trkpt>
      <trkpt lat="46.508402600884438" lon="6.755101578310132">
        <ele>772.559999999999945</ele>
        <time>2014-06-14T15:34:36Z</time>
      </trkpt>
      <trkpt lat="46.508142845705152" lon="6.755063273012638">
        <ele>775.919999999999959</ele>
        <time>2014-06-14T15:34:50Z</time>
      </trkpt>
      <trkpt lat="46.508094146847725" lon="6.755025219172239">
        <ele>776.399999999999977</ele>
        <time>2014-06-14T15:34:53Z</time>
      </trkpt>
      <trkpt lat="46.508084507659078" lon="6.754998899996281">
        <ele>776.879999999999995</ele>
        <time>2014-06-14T15:34:54Z</time>
      </trkpt>
      <trkpt lat="46.508078137412667" lon="6.754972245544195">
        <ele>776.879999999999995</ele>
        <time>2014-06-14T15:34:55Z</time>
      </trkpt>
      <trkpt lat="46.50807729922235" lon="6.754946177825332">
        <ele>777.360000000000014</ele>
        <time>2014-06-14T15:34:56Z</time>
      </trkpt>
      <trkpt lat="46.508081993088126" lon="6.754922457039356">
        <ele>777.360000000000014</ele>
        <time>2014-06-14T15:34:57Z</time>
      </trkpt>
      <trkpt lat="46.508091045543551" lon="6.754899742081761">
        <ele>777.840000000000032</ele>
        <time>2014-06-14T15:34:58Z</time>
      </trkpt>
      <trkpt lat="46.508101942017674" lon="6.754877278581262">
        <ele>777.840000000000032</ele>
        <time>2014-06-14T15:34:59Z</time>
      </trkpt>
      <trkpt lat="46.508176038041711" lon="6.754719447344542">
        <ele>780.25</ele>
        <time>2014-06-14T15:35:07Z</time>
      </trkpt>
      <trkpt lat="46.508173020556569" lon="6.754695558920503">
        <ele>780.730000000000018</ele>
        <time>2014-06-14T15:35:08Z</time>
      </trkpt>
      <trkpt lat="46.508167823776603" lon="6.754671167582273">
        <ele>780.730000000000018</ele>
        <time>2014-06-14T15:35:09Z</time>
      </trkpt>
      <trkpt lat="46.508159022778273" lon="6.754649374634027">
        <ele>780.730000000000018</ele>
        <time>2014-06-14T15:35:10Z</time>
      </trkpt>
      <trkpt lat="46.508147874847054" lon="6.754629677161574">
        <ele>780.730000000000018</ele>
        <time>2014-06-14T15:35:11Z</time>
      </trkpt>
      <trkpt lat="46.508093224838376" lon="6.754568489268422">
        <ele>781.690000000000055</ele>
        <time>2014-06-14T15:35:15Z</time>
      </trkpt>
      <trkpt lat="46.50807780213654" lon="6.754563460126519">
        <ele>781.690000000000055</ele>
        <time>2014-06-14T15:35:16Z</time>
      </trkpt>
      <trkpt lat="46.507985265925527" lon="6.754441503435373">
        <ele>785.049999999999955</ele>
        <time>2014-06-14T15:35:25Z</time>
      </trkpt>
      <trkpt lat="46.507988618686795" lon="6.754420716315508">
        <ele>785.049999999999955</ele>
        <time>2014-06-14T15:35:26Z</time>
      </trkpt>
      <trkpt lat="46.507994653657079" lon="6.754392301663756">
        <ele>785.049999999999955</ele>
        <time>2014-06-14T15:35:27Z</time>
      </trkpt>
      <trkpt lat="46.507997000589967" lon="6.754377381876111">
        <ele>785.529999999999973</ele>
        <time>2014-06-14T15:35:28Z</time>
      </trkpt>
      <trkpt lat="46.507998676970601" lon="6.754354415461421">
        <ele>785.529999999999973</ele>
        <time>2014-06-14T15:35:29Z</time>
      </trkpt>
      <trkpt lat="46.508049638941884" lon="6.75414620898664">
        <ele>787.460000000000036</ele>
        <time>2014-06-14T15:35:38Z</time>
      </trkpt>
      <trkpt lat="46.507929107174277" lon="6.753763658925891">
        <ele>789.860000000000014</ele>
        <time>2014-06-14T15:35:55Z</time>
      </trkpt>
      <trkpt lat="46.50779290124774" lon="6.753281196579337">
        <ele>792.740000000000009</ele>
        <time>2014-06-14T15:36:14Z</time>
      </trkpt>
      <trkpt lat="46.507834810763597" lon="6.752786915749311">
        <ele>795.149999999999977</ele>
        <time>2014-06-14T15:36:32Z</time>
      </trkpt>
      <trkpt lat="46.507915025576949" lon="6.752203200012445">
        <ele>797.07000000000005</ele>
        <time>2014-06-14T15:36:51Z</time>
      </trkpt>
      <trkpt lat="46.507995827123523" lon="6.751573886722326">
        <ele>802.360000000000014</ele>
        <time>2014-06-14T15:37:10Z</time>
      </trkpt>
      <trkpt lat="46.508060619235039" lon="6.751074828207493">
        <ele>807.639999999999986</ele>
        <time>2014-06-14T15:37:26Z</time>
      </trkpt>
      <trkpt lat="46.507989205420017" lon="6.750343507155776">
        <ele>808.610000000000014</ele>
        <time>2014-06-14T15:37:47Z</time>
      </trkpt>
      <trkpt lat="46.507809497416019" lon="6.74974026158452">
        <ele>806.67999999999995</ele>
        <time>2014-06-14T15:37:58Z</time>
      </trkpt>
      <trkpt lat="46.507792985066772" lon="6.749662226065993">
        <ele>806.67999999999995</ele>
        <time>2014-06-14T15:37:59Z</time>
      </trkpt>
      <trkpt lat="46.507762474939227" lon="6.749493330717087">
        <ele>805.720000000000027</ele>
        <time>2014-06-14T15:38:01Z</time>
      </trkpt>
      <trkpt lat="46.507754847407341" lon="6.749397777020931">
        <ele>804.759999999999991</ele>
        <time>2014-06-14T15:38:02Z</time>
      </trkpt>
      <trkpt lat="46.507747136056423" lon="6.74929317086935">
        <ele>804.279999999999973</ele>
        <time>2014-06-14T15:38:03Z</time>
      </trkpt>
      <trkpt lat="46.507727019488811" lon="6.749186050146818">
        <ele>803.32000000000005</ele>
        <time>2014-06-14T15:38:04Z</time>
      </trkpt>
      <trkpt lat="46.507689468562603" lon="6.749074403196573">
        <ele>802.840000000000032</ele>
        <time>2014-06-14T15:38:05Z</time>
      </trkpt>
      <trkpt lat="46.507651498541236" lon="6.748982453718781">
        <ele>802.840000000000032</ele>
        <time>2014-06-14T15:38:06Z</time>
      </trkpt>
      <trkpt lat="46.507372967898846" lon="6.748298741877079">
        <ele>801.879999999999995</ele>
        <time>2014-06-14T15:38:13Z</time>
      </trkpt>
      <trkpt lat="46.507332567125559" lon="6.748221041634679">
        <ele>801.879999999999995</ele>
        <time>2014-06-14T15:38:14Z</time>
      </trkpt>
      <trkpt lat="46.507281186059117" lon="6.748140323907137">
        <ele>801.399999999999977</ele>
        <time>2014-06-14T15:38:15Z</time>
      </trkpt>
      <trkpt lat="46.507233576849103" lon="6.748078968375921">
        <ele>801.399999999999977</ele>
        <time>2014-06-14T15:38:16Z</time>
      </trkpt>
      <trkpt lat="46.507179010659456" lon="6.748014679178596">
        <ele>800.919999999999959</ele>
        <time>2014-06-14T15:38:17Z</time>
      </trkpt>
      <trkpt lat="46.506600324064493" lon="6.747083030641079">
        <ele>795.629999999999995</ele>
        <time>2014-06-14T15:38:29Z</time>
      </trkpt>
      <trkpt lat="46.506473002955317" lon="6.746840542182326">
        <ele>793.710000000000036</ele>
        <time>2014-06-14T15:38:32Z</time>
      </trkpt>
      <trkpt lat="46.506449785083532" lon="6.746758734807372">
        <ele>792.740000000000009</ele>
        <time>2014-06-14T15:38:33Z</time>
      </trkpt>
      <trkpt lat="46.506448276340961" lon="6.746672317385674">
        <ele>791.779999999999973</ele>
        <time>2014-06-14T15:38:34Z</time>
      </trkpt>
      <trkpt lat="46.506476942449808" lon="6.746598808094859">
        <ele>791.299999999999955</ele>
        <time>2014-06-14T15:38:35Z</time>
      </trkpt>
      <trkpt lat="46.506530502811074" lon="6.746535357087851">
        <ele>790.82000000000005</ele>
        <time>2014-06-14T15:38:36Z</time>
      </trkpt>
      <trkpt lat="46.506568808108568" lon="6.746503002941608">
        <ele>790.340000000000032</ele>
        <time>2014-06-14T15:38:37Z</time>
      </trkpt>
      <trkpt lat="46.506623290479183" lon="6.746460841968656">
        <ele>789.860000000000014</ele>
        <time>2014-06-14T15:38:38Z</time>
      </trkpt>
      <trkpt lat="46.506679030135274" lon="6.746419351547956">
        <ele>789.379999999999995</ele>
        <time>2014-06-14T15:38:39Z</time>
      </trkpt>
      <trkpt lat="46.50688941590488" lon="6.746254228055477">
        <ele>787.460000000000036</ele>
        <time>2014-06-14T15:38:43Z</time>
      </trkpt>
      <trkpt lat="46.506927972659469" lon="6.746197398751974">
        <ele>787.460000000000036</ele>
        <time>2014-06-14T15:38:44Z</time>
      </trkpt>
      <trkpt lat="46.506954543292522" lon="6.746134283021092">
        <ele>787.940000000000055</ele>
        <time>2014-06-14T15:38:45Z</time>
      </trkpt>
      <trkpt lat="46.506973234936595" lon="6.746072256937623">
        <ele>788.419999999999959</ele>
        <time>2014-06-14T15:38:46Z</time>
      </trkpt>
      <trkpt lat="46.506984299048781" lon="6.746017690747976">
        <ele>789.379999999999995</ele>
        <time>2014-06-14T15:38:47Z</time>
      </trkpt>
      <trkpt lat="46.506991256028414" lon="6.745963208377361">
        <ele>790.340000000000032</ele>
        <time>2014-06-14T15:38:48Z</time>
      </trkpt>
      <trkpt lat="46.507065100595355" lon="6.74523213878274">
        <ele>796.110000000000014</ele>
        <time>2014-06-14T15:39:02Z</time>
      </trkpt>
      <trkpt lat="46.507070967927575" lon="6.745166508480906">
        <ele>796.110000000000014</ele>
        <time>2014-06-14T15:39:03Z</time>
      </trkpt>
      <trkpt lat="46.507072979584336" lon="6.745100039988756">
        <ele>796.590000000000032</ele>
        <time>2014-06-14T15:39:04Z</time>
      </trkpt>
      <trkpt lat="46.507067531347275" lon="6.74503281712532">
        <ele>797.07000000000005</ele>
        <time>2014-06-14T15:39:05Z</time>
      </trkpt>
      <trkpt lat="46.507055293768644" lon="6.744969198480248">
        <ele>797.07000000000005</ele>
        <time>2014-06-14T15:39:06Z</time>
      </trkpt>
      <trkpt lat="46.507037943229079" lon="6.744908094406128">
        <ele>797.549999999999955</ele>
        <time>2014-06-14T15:39:07Z</time>
      </trkpt>
      <trkpt lat="46.507018748670816" lon="6.744847409427166">
        <ele>798.029999999999973</ele>
        <time>2014-06-14T15:39:08Z</time>
      </trkpt>
      <trkpt lat="46.506812470033765" lon="6.744326557964087">
        <ele>800.919999999999959</ele>
        <time>2014-06-14T15:39:18Z</time>
      </trkpt>
      <trkpt lat="46.506654974073172" lon="6.743928836658597">
        <ele>801.879999999999995</ele>
        <time>2014-06-14T15:39:25Z</time>
      </trkpt>
      <trkpt lat="46.506604431197047" lon="6.743823559954762">
        <ele>802.840000000000032</ele>
        <time>2014-06-14T15:39:27Z</time>
      </trkpt>
      <trkpt lat="46.506577860563993" lon="6.743772430345416">
        <ele>803.32000000000005</ele>
        <time>2014-06-14T15:39:28Z</time>
      </trkpt>
      <trkpt lat="46.506542824208736" lon="6.743735382333398">
        <ele>803.32000000000005</ele>
        <time>2014-06-14T15:39:29Z</time>
      </trkpt>
      <trkpt lat="46.506097661331296" lon="6.743323830887675">
        <ele>803.32000000000005</ele>
        <time>2014-06-14T15:39:40Z</time>
      </trkpt>
      <trkpt lat="46.506058601662517" lon="6.743279909715056">
        <ele>803.32000000000005</ele>
        <time>2014-06-14T15:39:41Z</time>
      </trkpt>
      <trkpt lat="46.505511431023479" lon="6.742671970278025">
        <ele>804.759999999999991</ele>
        <time>2014-06-14T15:39:55Z</time>
      </trkpt>
      <trkpt lat="46.505373632535338" lon="6.742254802957177">
        <ele>807.639999999999986</ele>
        <time>2014-06-14T15:40:06Z</time>
      </trkpt>
      <trkpt lat="46.505276653915644" lon="6.741765299811959">
        <ele>814.850000000000023</ele>
        <time>2014-06-14T15:40:20Z</time>
      </trkpt>
      <trkpt lat="46.505286041647196" lon="6.741492971777916">
        <ele>815.82000000000005</ele>
        <time>2014-06-14T15:40:26Z</time>
      </trkpt>
      <trkpt lat="46.50530775077641" lon="6.741433460265398">
        <ele>815.82000000000005</ele>
        <time>2014-06-14T15:40:27Z</time>
      </trkpt>
      <trkpt lat="46.505343876779079" lon="6.741378558799624">
        <ele>815.82000000000005</ele>
        <time>2014-06-14T15:40:28Z</time>
      </trkpt>
      <trkpt lat="46.505359215661883" lon="6.741360872983932">
        <ele>815.82000000000005</ele>
        <time>2014-06-14T15:40:29Z</time>
      </trkpt>
      <trkpt lat="46.505386875942349" lon="6.741342600435019">
        <ele>815.82000000000005</ele>
        <time>2014-06-14T15:40:30Z</time>
      </trkpt>
      <trkpt lat="46.505414536222816" lon="6.741330865770578">
        <ele>816.299999999999955</ele>
        <time>2014-06-14T15:40:31Z</time>
      </trkpt>
      <trkpt lat="46.505610337480903" lon="6.741315862163901">
        <ele>818.700000000000045</ele>
        <time>2014-06-14T15:40:42Z</time>
      </trkpt>
      <trkpt lat="46.505876379087567" lon="6.741297338157892">
        <ele>823.509999999999991</ele>
        <time>2014-06-14T15:41:01Z</time>
      </trkpt>
      <trkpt lat="46.506092129275203" lon="6.741278562694788">
        <ele>828.789999999999964</ele>
        <time>2014-06-14T15:41:17Z</time>
      </trkpt>
      <trkpt lat="46.506355404853821" lon="6.741250399500132">
        <ele>833.600000000000023</ele>
        <time>2014-06-14T15:41:36Z</time>
      </trkpt>
      <trkpt lat="46.506579453125596" lon="6.741242855787277">
        <ele>837.92999999999995</ele>
        <time>2014-06-14T15:41:54Z</time>
      </trkpt>
      <trkpt lat="46.506719514727592" lon="6.741197006776929">
        <ele>840.330000000000041</ele>
        <time>2014-06-14T15:42:06Z</time>
      </trkpt>
      <trkpt lat="46.506731165573001" lon="6.741197677329183">
        <ele>840.809999999999945</ele>
        <time>2014-06-14T15:42:07Z</time>
      </trkpt>
      <trkpt lat="46.506743570789695" lon="6.741200024262071">
        <ele>840.809999999999945</ele>
        <time>2014-06-14T15:42:08Z</time>
      </trkpt>
      <trkpt lat="46.506755892187357" lon="6.741199437528849">
        <ele>840.809999999999945</ele>
        <time>2014-06-14T15:42:09Z</time>
      </trkpt>
      <trkpt lat="46.506766621023417" lon="6.741196252405643">
        <ele>841.289999999999964</ele>
        <time>2014-06-14T15:42:10Z</time>
      </trkpt>
      <trkpt lat="46.506987735629082" lon="6.741169597953558">
        <ele>844.659999999999968</ele>
        <time>2014-06-14T15:42:29Z</time>
      </trkpt>
      <trkpt lat="46.507239025086164" lon="6.741195078939199">
        <ele>850.419999999999959</ele>
        <time>2014-06-14T15:42:50Z</time>
      </trkpt>
      <trkpt lat="46.50745578110218" lon="6.74121368676424">
        <ele>852.830000000000041</ele>
        <time>2014-06-14T15:43:08Z</time>
      </trkpt>
      <trkpt lat="46.507507329806685" lon="6.740909004583955">
        <ele>854.75</ele>
        <time>2014-06-14T15:43:24Z</time>
      </trkpt>
      <trkpt lat="46.507539013400674" lon="6.740563837811351">
        <ele>860.039999999999964</ele>
        <time>2014-06-14T15:43:44Z</time>
      </trkpt>
      <trkpt lat="46.507687037810683" lon="6.740427045151591">
        <ele>865.32000000000005</ele>
        <time>2014-06-14T15:44:02Z</time>
      </trkpt>
      <trkpt lat="46.507883593440056" lon="6.740478426218033">
        <ele>868.690000000000055</ele>
        <time>2014-06-14T15:44:19Z</time>
      </trkpt>
      <trkpt lat="46.508149718865752" lon="6.740557970479131">
        <ele>874.940000000000055</ele>
        <time>2014-06-14T15:44:42Z</time>
      </trkpt>
      <trkpt lat="46.508160531520844" lon="6.740563921630383">
        <ele>875.419999999999959</ele>
        <time>2014-06-14T15:44:43Z</time>
      </trkpt>
      <trkpt lat="46.508171008899808" lon="6.74057406373322">
        <ele>875.899999999999977</ele>
        <time>2014-06-14T15:44:44Z</time>
      </trkpt>
      <trkpt lat="46.508181821554899" lon="6.740582948550582">
        <ele>875.899999999999977</ele>
        <time>2014-06-14T15:44:45Z</time>
      </trkpt>
      <trkpt lat="46.508191963657737" lon="6.740588312968612">
        <ele>876.379999999999995</ele>
        <time>2014-06-14T15:44:46Z</time>
      </trkpt>
      <trkpt lat="46.508202021941543" lon="6.740592252463102">
        <ele>876.379999999999995</ele>
        <time>2014-06-14T15:44:47Z</time>
      </trkpt>
      <trkpt lat="46.508386256173253" lon="6.740695098415017">
        <ele>881.190000000000055</ele>
        <time>2014-06-14T15:45:04Z</time>
      </trkpt>
      <trkpt lat="46.508505446836352" lon="6.740818480029702">
        <ele>883.590000000000032</ele>
        <time>2014-06-14T15:45:16Z</time>
      </trkpt>
      <trkpt lat="46.508514499291778" lon="6.740830382332206">
        <ele>884.07000000000005</ele>
        <time>2014-06-14T15:45:17Z</time>
      </trkpt>
      <trkpt lat="46.508747767657042" lon="6.740969773381948">
        <ele>888.879999999999995</ele>
        <time>2014-06-14T15:45:38Z</time>
      </trkpt>
      <trkpt lat="46.508758999407291" lon="6.740972623229027">
        <ele>889.360000000000014</ele>
        <time>2014-06-14T15:45:39Z</time>
      </trkpt>
      <trkpt lat="46.508771236985922" lon="6.740973545238376">
        <ele>889.840000000000032</ele>
        <time>2014-06-14T15:45:40Z</time>
      </trkpt>
      <trkpt lat="46.508783139288425" lon="6.740973545238376">
        <ele>889.840000000000032</ele>
        <time>2014-06-14T15:45:41Z</time>
      </trkpt>
      <trkpt lat="46.50879462249577" lon="6.740972707048059">
        <ele>890.32000000000005</ele>
        <time>2014-06-14T15:45:42Z</time>
      </trkpt>
      <trkpt lat="46.508806608617306" lon="6.740971198305488">
        <ele>890.799999999999955</ele>
        <time>2014-06-14T15:45:43Z</time>
      </trkpt>
      <trkpt lat="46.508818678557873" lon="6.740968432277441">
        <ele>891.279999999999973</ele>
        <time>2014-06-14T15:45:44Z</time>
      </trkpt>
      <trkpt lat="46.508829826489091" lon="6.740966336801648">
        <ele>891.759999999999991</ele>
        <time>2014-06-14T15:45:45Z</time>
      </trkpt>
      <trkpt lat="46.508841142058372" lon="6.740967761725187">
        <ele>892.240000000000009</ele>
        <time>2014-06-14T15:45:46Z</time>
      </trkpt>
      <trkpt lat="46.50906284339726" lon="6.740947309881449">
        <ele>898.009999999999991</ele>
        <time>2014-06-14T15:46:04Z</time>
      </trkpt>
      <trkpt lat="46.509298458695412" lon="6.740916464477777">
        <ele>902.330000000000041</ele>
        <time>2014-06-14T15:46:23Z</time>
      </trkpt>
      <trkpt lat="46.509542539715767" lon="6.740882266312838">
        <ele>907.139999999999986</ele>
        <time>2014-06-14T15:46:43Z</time>
      </trkpt>
      <trkpt lat="46.509797181934118" lon="6.740901293233037">
        <ele>913.389999999999986</ele>
        <time>2014-06-14T15:47:04Z</time>
      </trkpt>
      <trkpt lat="46.510038832202554" lon="6.740879248827696">
        <ele>916.75</ele>
        <time>2014-06-14T15:47:21Z</time>
      </trkpt>
      <trkpt lat="46.510432027280331" lon="6.74083155579865">
        <ele>918.200000000000045</ele>
        <time>2014-06-14T15:47:40Z</time>
      </trkpt>
      <trkpt lat="46.51051894761622" lon="6.740781348198652">
        <ele>918.67999999999995</ele>
        <time>2014-06-14T15:47:46Z</time>
      </trkpt>
      <trkpt lat="46.510529844090343" lon="6.740784784778953">
        <ele>918.67999999999995</ele>
        <time>2014-06-14T15:47:47Z</time>
      </trkpt>
      <trkpt lat="46.510543003678322" lon="6.740787550806999">
        <ele>918.67999999999995</ele>
        <time>2014-06-14T15:47:48Z</time>
      </trkpt>
      <trkpt lat="46.510561024770141" lon="6.740775313228369">
        <ele>919.159999999999968</ele>
        <time>2014-06-14T15:47:50Z</time>
      </trkpt>
      <trkpt lat="46.510575022548437" lon="6.740767769515514">
        <ele>919.159999999999968</ele>
        <time>2014-06-14T15:47:51Z</time>
      </trkpt>
      <trkpt lat="46.510585835203528" lon="6.740766009315848">
        <ele>919.639999999999986</ele>
        <time>2014-06-14T15:47:52Z</time>
      </trkpt>
      <trkpt lat="46.510600922629237" lon="6.740760477259755">
        <ele>920.120000000000005</ele>
        <time>2014-06-14T15:47:53Z</time>
      </trkpt>
      <trkpt lat="46.510612154379487" lon="6.740757124498487">
        <ele>920.120000000000005</ele>
        <time>2014-06-14T15:47:54Z</time>
      </trkpt>
      <trkpt lat="46.51062598451972" lon="6.740752765908837">
        <ele>920.600000000000023</ele>
        <time>2014-06-14T15:47:55Z</time>
      </trkpt>
      <trkpt lat="46.510639730840921" lon="6.740744384005666">
        <ele>921.080000000000041</ele>
        <time>2014-06-14T15:47:56Z</time>
      </trkpt>
      <trkpt lat="46.510714832693338" lon="6.740723680704832">
        <ele>923.960000000000036</ele>
        <time>2014-06-14T15:48:02Z</time>
      </trkpt>
      <trkpt lat="46.510728495195508" lon="6.740728123113513">
        <ele>923.960000000000036</ele>
        <time>2014-06-14T15:48:03Z</time>
      </trkpt>
      <trkpt lat="46.510815164074302" lon="6.740770787000656">
        <ele>927.330000000000041</ele>
        <time>2014-06-14T15:48:13Z</time>
      </trkpt>
      <trkpt lat="46.510878866538405" lon="6.740801548585296">
        <ele>929.730000000000018</ele>
        <time>2014-06-14T15:48:25Z</time>
      </trkpt>
      <trkpt lat="46.510953130200505" lon="6.740867178887129">
        <ele>930.690000000000055</ele>
        <time>2014-06-14T15:48:34Z</time>
      </trkpt>
      <trkpt lat="46.510964278131723" lon="6.740869274362922">
        <ele>930.210000000000036</ele>
        <time>2014-06-14T15:48:35Z</time>
      </trkpt>
      <trkpt lat="46.510973330587149" lon="6.740865921601653">
        <ele>930.210000000000036</ele>
        <time>2014-06-14T15:48:36Z</time>
      </trkpt>
      <trkpt lat="46.51098070666194" lon="6.740853851661086">
        <ele>929.730000000000018</ele>
        <time>2014-06-14T15:48:37Z</time>
      </trkpt>
      <trkpt lat="46.511026220396161" lon="6.740840524435043">
        <ele>928.769999999999982</ele>
        <time>2014-06-14T15:48:44Z</time>
      </trkpt>
      <trkpt lat="46.511037535965443" lon="6.740862149745226">
        <ele>928.289999999999964</ele>
        <time>2014-06-14T15:48:45Z</time>
      </trkpt>
      <trkpt lat="46.511041978374124" lon="6.74088578671217">
        <ele>927.809999999999945</ele>
        <time>2014-06-14T15:48:46Z</time>
      </trkpt>
      <trkpt lat="46.511046756058931" lon="6.740899449214339">
        <ele>927.809999999999945</ele>
        <time>2014-06-14T15:48:47Z</time>
      </trkpt>
      <trkpt lat="46.511089503765106" lon="6.741022244095802">
        <ele>926.370000000000005</ele>
        <time>2014-06-14T15:48:57Z</time>
      </trkpt>
      <trkpt lat="46.511092437431216" lon="6.741040349006653">
        <ele>925.889999999999986</ele>
        <time>2014-06-14T15:48:58Z</time>
      </trkpt>
      <trkpt lat="46.511152284219861" lon="6.741096172481775">
        <ele>927.330000000000041</ele>
        <time>2014-06-14T15:49:05Z</time>
      </trkpt>
      <trkpt lat="46.51116150431335" lon="6.741105727851391">
        <ele>927.330000000000041</ele>
        <time>2014-06-14T15:49:06Z</time>
      </trkpt>
      <trkpt lat="46.511172987520695" lon="6.74111595377326">
        <ele>927.809999999999945</ele>
        <time>2014-06-14T15:49:07Z</time>
      </trkpt>
      <trkpt lat="46.511249095201492" lon="6.741141267120838">
        <ele>928.769999999999982</ele>
        <time>2014-06-14T15:49:18Z</time>
      </trkpt>
      <trkpt lat="46.511310786008835" lon="6.741110002622008">
        <ele>926.370000000000005</ele>
        <time>2014-06-14T15:49:29Z</time>
      </trkpt>
      <trkpt lat="46.511405669152737" lon="6.741119977086782">
        <ele>923.480000000000018</ele>
        <time>2014-06-14T15:49:35Z</time>
      </trkpt>
      <trkpt lat="46.511428048834205" lon="6.741142189130187">
        <ele>922.519999999999982</ele>
        <time>2014-06-14T15:49:37Z</time>
      </trkpt>
      <trkpt lat="46.511516394093633" lon="6.741181164979935">
        <ele>920.120000000000005</ele>
        <time>2014-06-14T15:49:41Z</time>
      </trkpt>
      <trkpt lat="46.511589400470257" lon="6.741231204941869">
        <ele>918.67999999999995</ele>
        <time>2014-06-14T15:49:44Z</time>
      </trkpt>
      <trkpt lat="46.511785201728344" lon="6.741369673982263">
        <ele>917.240000000000009</ele>
        <time>2014-06-14T15:49:56Z</time>
      </trkpt>
      <trkpt lat="46.512014111503959" lon="6.741628590971231">
        <ele>915.309999999999945</ele>
        <time>2014-06-14T15:50:04Z</time>
      </trkpt>
      <trkpt lat="46.512205386534333" lon="6.74182447604835">
        <ele>909.059999999999945</ele>
        <time>2014-06-14T15:50:14Z</time>
      </trkpt>
      <trkpt lat="46.51227948255837" lon="6.741889771074057">
        <ele>905.700000000000045</ele>
        <time>2014-06-14T15:50:17Z</time>
      </trkpt>
      <trkpt lat="46.512389620766044" lon="6.741954479366541">
        <ele>897.049999999999955</ele>
        <time>2014-06-14T15:50:27Z</time>
      </trkpt>
      <trkpt lat="46.512435637414455" lon="6.742021031677723">
        <ele>893.200000000000045</ele>
        <time>2014-06-14T15:50:32Z</time>
      </trkpt>
      <trkpt lat="46.512466818094254" lon="6.742082638666034">
        <ele>888.399999999999977</ele>
        <time>2014-06-14T15:50:37Z</time>
      </trkpt>
      <trkpt lat="46.512585841119289" lon="6.742085488513112">
        <ele>883.590000000000032</ele>
        <time>2014-06-14T15:50:46Z</time>
      </trkpt>
      <trkpt lat="46.512677455320954" lon="6.742069646716118">
        <ele>878.779999999999973</ele>
        <time>2014-06-14T15:50:58Z</time>
      </trkpt>
      <trkpt lat="46.512730345129967" lon="6.742063444107771">
        <ele>877.82000000000005</ele>
        <time>2014-06-14T15:51:13Z</time>
      </trkpt>
      <trkpt lat="46.512767309322953" lon="6.742081381380558">
        <ele>875.899999999999977</ele>
        <time>2014-06-14T15:51:20Z</time>
      </trkpt>
      <trkpt lat="46.512796394526958" lon="6.742138545960188">
        <ele>872.529999999999973</ele>
        <time>2014-06-14T15:51:24Z</time>
      </trkpt>
      <trkpt lat="46.512947268784046" lon="6.742162182927132">
        <ele>868.210000000000036</ele>
        <time>2014-06-14T15:51:33Z</time>
      </trkpt>
      <trkpt lat="46.513042654842138" lon="6.742193950340152">
        <ele>867.730000000000018</ele>
        <time>2014-06-14T15:51:39Z</time>
      </trkpt>
      <trkpt lat="46.513152373954654" lon="6.74225052818656">
        <ele>866.769999999999982</ele>
        <time>2014-06-14T15:51:44Z</time>
      </trkpt>
      <trkpt lat="46.513442723080516" lon="6.742675406858325">
        <ele>861.960000000000036</ele>
        <time>2014-06-14T15:51:58Z</time>
      </trkpt>
      <trkpt lat="46.513602398335934" lon="6.74304848536849">
        <ele>854.75</ele>
        <time>2014-06-14T15:52:07Z</time>
      </trkpt>
      <trkpt lat="46.513879084959626" lon="6.743708476424217">
        <ele>842.730000000000018</ele>
        <time>2014-06-14T15:52:21Z</time>
      </trkpt>
      <trkpt lat="46.513959215953946" lon="6.744027407839894">
        <ele>836.960000000000036</ele>
        <time>2014-06-14T15:52:28Z</time>
      </trkpt>
      <trkpt lat="46.514177229255438" lon="6.744884373620152">
        <ele>826.389999999999986</ele>
        <time>2014-06-14T15:52:41Z</time>
      </trkpt>
      <trkpt lat="46.514198435470462" lon="6.744945142418146">
        <ele>825.42999999999995</ele>
        <time>2014-06-14T15:52:42Z</time>
      </trkpt>
      <trkpt lat="46.514276554808021" lon="6.745232390239835">
        <ele>822.549999999999955</ele>
        <time>2014-06-14T15:52:46Z</time>
      </trkpt>
      <trkpt lat="46.514316033571959" lon="6.745389718562365">
        <ele>821.100000000000023</ele>
        <time>2014-06-14T15:52:48Z</time>
      </trkpt>
      <trkpt lat="46.514519965276122" lon="6.746181221678853">
        <ele>813.409999999999968</ele>
        <time>2014-06-14T15:53:00Z</time>
      </trkpt>
      <trkpt lat="46.514598587527871" lon="6.746450364589691">
        <ele>811.009999999999991</ele>
        <time>2014-06-14T15:53:04Z</time>
      </trkpt>
      <trkpt lat="46.514709312468767" lon="6.74680651165545">
        <ele>808.610000000000014</ele>
        <time>2014-06-14T15:53:13Z</time>
      </trkpt>
      <trkpt lat="46.51474510319531" lon="6.746838949620724">
        <ele>809.57000000000005</ele>
        <time>2014-06-14T15:53:14Z</time>
      </trkpt>
      <trkpt lat="46.514774523675442" lon="6.746856216341257">
        <ele>810.529999999999973</ele>
        <time>2014-06-14T15:53:15Z</time>
      </trkpt>
      <trkpt lat="46.514799166470766" lon="6.746863089501858">
        <ele>811.009999999999991</ele>
        <time>2014-06-14T15:53:16Z</time>
      </trkpt>
      <trkpt lat="46.51485750451684" lon="6.746845319867134">
        <ele>811.970000000000027</ele>
        <time>2014-06-14T15:53:19Z</time>
      </trkpt>
      <trkpt lat="46.514885500073433" lon="6.746779521927238">
        <ele>811.970000000000027</ele>
        <time>2014-06-14T15:53:23Z</time>
      </trkpt>
      <trkpt lat="46.514913327991962" lon="6.746624791994691">
        <ele>809.57000000000005</ele>
        <time>2014-06-14T15:53:31Z</time>
      </trkpt>
      <trkpt lat="46.514933863654733" lon="6.746447514742613">
        <ele>804.759999999999991</ele>
        <time>2014-06-14T15:53:40Z</time>
      </trkpt>
      <trkpt lat="46.514979796484113" lon="6.746112992987037">
        <ele>801.879999999999995</ele>
        <time>2014-06-14T15:53:53Z</time>
      </trkpt>
      <trkpt lat="46.515040062367916" lon="6.74583219923079">
        <ele>798.509999999999991</ele>
        <time>2014-06-14T15:54:09Z</time>
      </trkpt>
      <trkpt lat="46.515058251097798" lon="6.745787775143981">
        <ele>798.990000000000009</ele>
        <time>2014-06-14T15:54:11Z</time>
      </trkpt>
      <trkpt lat="46.5150788705796" lon="6.745832785964012">
        <ele>799.470000000000027</ele>
        <time>2014-06-14T15:54:15Z</time>
      </trkpt>
      <trkpt lat="46.515085743740201" lon="6.745866984128952">
        <ele>798.990000000000009</ele>
        <time>2014-06-14T15:54:16Z</time>
      </trkpt>
      <trkpt lat="46.515092365443707" lon="6.7458869330585">
        <ele>798.990000000000009</ele>
        <time>2014-06-14T15:54:17Z</time>
      </trkpt>
      <trkpt lat="46.515102004632354" lon="6.745921215042472">
        <ele>798.509999999999991</ele>
        <time>2014-06-14T15:54:18Z</time>
      </trkpt>
      <trkpt lat="46.515109045431018" lon="6.745959436520934">
        <ele>798.029999999999973</ele>
        <time>2014-06-14T15:54:19Z</time>
      </trkpt>
      <trkpt lat="46.515115834772587" lon="6.745998915284872">
        <ele>797.549999999999955</ele>
        <time>2014-06-14T15:54:20Z</time>
      </trkpt>
      <trkpt lat="46.515124971047044" lon="6.746040489524603">
        <ele>797.07000000000005</ele>
        <time>2014-06-14T15:54:21Z</time>
      </trkpt>
      <trkpt lat="46.51516729965806" lon="6.746612135320902">
        <ele>787.460000000000036</ele>
        <time>2014-06-14T15:54:34Z</time>
      </trkpt>
      <trkpt lat="46.515176016837358" lon="6.746669551357627">
        <ele>786.5</ele>
        <time>2014-06-14T15:54:35Z</time>
      </trkpt>
      <trkpt lat="46.515189008787274" lon="6.746726715937257">
        <ele>786.019999999999982</ele>
        <time>2014-06-14T15:54:36Z</time>
      </trkpt>
      <trkpt lat="46.515218010172248" lon="6.746898125857115">
        <ele>784.57000000000005</ele>
        <time>2014-06-14T15:54:39Z</time>
      </trkpt>
      <trkpt lat="46.515229074284434" lon="6.746955374255776">
        <ele>784.090000000000032</ele>
        <time>2014-06-14T15:54:40Z</time>
      </trkpt>
      <trkpt lat="46.515236282721162" lon="6.747011197730899">
        <ele>783.610000000000014</ele>
        <time>2014-06-14T15:54:41Z</time>
      </trkpt>
      <trkpt lat="46.515250699594617" lon="6.747126365080476">
        <ele>782.169999999999959</ele>
        <time>2014-06-14T15:54:43Z</time>
      </trkpt>
      <trkpt lat="46.515257321298122" lon="6.747186211869121">
        <ele>781.690000000000055</ele>
        <time>2014-06-14T15:54:44Z</time>
      </trkpt>
      <trkpt lat="46.515274839475751" lon="6.747304312884808">
        <ele>781.210000000000036</ele>
        <time>2014-06-14T15:54:46Z</time>
      </trkpt>
      <trkpt lat="46.51529093272984" lon="6.74736600369215">
        <ele>780.25</ele>
        <time>2014-06-14T15:54:47Z</time>
      </trkpt>
      <trkpt lat="46.515297302976251" lon="6.747427191585302">
        <ele>779.769999999999982</ele>
        <time>2014-06-14T15:54:48Z</time>
      </trkpt>
      <trkpt lat="46.515300152823329" lon="6.74748913384974">
        <ele>779.769999999999982</ele>
        <time>2014-06-14T15:54:49Z</time>
      </trkpt>
      <trkpt lat="46.515305014327168" lon="6.747547723352909">
        <ele>779.289999999999964</ele>
        <time>2014-06-14T15:54:50Z</time>
      </trkpt>
      <trkpt lat="46.515305433422327" lon="6.747606480494142">
        <ele>779.289999999999964</ele>
        <time>2014-06-14T15:54:51Z</time>
      </trkpt>
      <trkpt lat="46.515299482271075" lon="6.747671104967594">
        <ele>778.809999999999945</ele>
        <time>2014-06-14T15:54:52Z</time>
      </trkpt>
      <trkpt lat="46.515273917466402" lon="6.747808149084449">
        <ele>778.32000000000005</ele>
        <time>2014-06-14T15:54:54Z</time>
      </trkpt>
      <trkpt lat="46.515245251357555" lon="6.747877718880773">
        <ele>777.840000000000032</ele>
        <time>2014-06-14T15:54:55Z</time>
      </trkpt>
      <trkpt lat="46.515205102041364" lon="6.747939912602305">
        <ele>777.360000000000014</ele>
        <time>2014-06-14T15:54:56Z</time>
      </trkpt>
      <trkpt lat="46.515158833935857" lon="6.747994143515825">
        <ele>776.879999999999995</ele>
        <time>2014-06-14T15:54:57Z</time>
      </trkpt>
      <trkpt lat="46.515113823115826" lon="6.748045608401299">
        <ele>776.399999999999977</ele>
        <time>2014-06-14T15:54:58Z</time>
      </trkpt>
      <trkpt lat="46.515026818960905" lon="6.748146023601294">
        <ele>775.440000000000055</ele>
        <time>2014-06-14T15:55:00Z</time>
      </trkpt>
      <trkpt lat="46.514986250549555" lon="6.748182401061058">
        <ele>775.440000000000055</ele>
        <time>2014-06-14T15:55:01Z</time>
      </trkpt>
      <trkpt lat="46.514838226139545" lon="6.74828851595521">
        <ele>774.960000000000036</ele>
        <time>2014-06-14T15:55:04Z</time>
      </trkpt>
      <trkpt lat="46.514104641973972" lon="6.748376861214638">
        <ele>774</ele>
        <time>2014-06-14T15:55:15Z</time>
      </trkpt>
      <trkpt lat="46.513376506045461" lon="6.748172594234347">
        <ele>771.600000000000023</ele>
        <time>2014-06-14T15:55:24Z</time>
      </trkpt>
      <trkpt lat="46.513298386707902" lon="6.748147867619991">
        <ele>771.110000000000014</ele>
        <time>2014-06-14T15:55:25Z</time>
      </trkpt>
      <trkpt lat="46.513223117217422" lon="6.748134875670075">
        <ele>771.110000000000014</ele>
        <time>2014-06-14T15:55:26Z</time>
      </trkpt>
      <trkpt lat="46.513149105012417" lon="6.748144179582596">
        <ele>771.110000000000014</ele>
        <time>2014-06-14T15:55:27Z</time>
      </trkpt>
      <trkpt lat="46.513069057837129" lon="6.74818248488009">
        <ele>770.629999999999995</ele>
        <time>2014-06-14T15:55:28Z</time>
      </trkpt>
      <trkpt lat="46.513001164421439" lon="6.748229339718819">
        <ele>770.629999999999995</ele>
        <time>2014-06-14T15:55:29Z</time>
      </trkpt>
      <trkpt lat="46.512932013720274" lon="6.748287174850702">
        <ele>770.629999999999995</ele>
        <time>2014-06-14T15:55:30Z</time>
      </trkpt>
      <trkpt lat="46.512726237997413" lon="6.748442156240344">
        <ele>770.629999999999995</ele>
        <time>2014-06-14T15:55:33Z</time>
      </trkpt>
      <trkpt lat="46.512652728706598" lon="6.748475851491094">
        <ele>770.629999999999995</ele>
        <time>2014-06-14T15:55:34Z</time>
      </trkpt>
      <trkpt lat="46.512579219415784" lon="6.748496973887086">
        <ele>770.629999999999995</ele>
        <time>2014-06-14T15:55:35Z</time>
      </trkpt>
      <trkpt lat="46.512425327673554" lon="6.748520107939839">
        <ele>771.110000000000014</ele>
        <time>2014-06-14T15:55:37Z</time>
      </trkpt>
      <trkpt lat="46.512120645493269" lon="6.748557994142175">
        <ele>771.600000000000023</ele>
        <time>2014-06-14T15:55:41Z</time>
      </trkpt>
      <trkpt lat="46.512049483135343" lon="6.748591270297766">
        <ele>772.080000000000041</ele>
        <time>2014-06-14T15:55:42Z</time>
      </trkpt>
      <trkpt lat="46.511768102645874" lon="6.74876787699759">
        <ele>773.039999999999964</ele>
        <time>2014-06-14T15:55:46Z</time>
      </trkpt>
      <trkpt lat="46.511699035763741" lon="6.748834261670709">
        <ele>772.559999999999945</ele>
        <time>2014-06-14T15:55:47Z</time>
      </trkpt>
      <trkpt lat="46.511645140126348" lon="6.748911123722792">
        <ele>772.080000000000041</ele>
        <time>2014-06-14T15:55:48Z</time>
      </trkpt>
      <trkpt lat="46.511600045487285" lon="6.749004749581218">
        <ele>771.600000000000023</ele>
        <time>2014-06-14T15:55:49Z</time>
      </trkpt>
      <trkpt lat="46.511566517874599" lon="6.749109858646989">
        <ele>771.110000000000014</ele>
        <time>2014-06-14T15:55:50Z</time>
      </trkpt>
      <trkpt lat="46.511551598086953" lon="6.749221757054329">
        <ele>770.629999999999995</ele>
        <time>2014-06-14T15:55:51Z</time>
      </trkpt>
      <trkpt lat="46.511556711047888" lon="6.749338014051318">
        <ele>770.149999999999977</ele>
        <time>2014-06-14T15:55:52Z</time>
      </trkpt>
      <trkpt lat="46.511579928919673" lon="6.749444212764502">
        <ele>769.669999999999959</ele>
        <time>2014-06-14T15:55:53Z</time>
      </trkpt>
      <trkpt lat="46.51162032969296" lon="6.749544208869338">
        <ele>768.710000000000036</ele>
        <time>2014-06-14T15:55:54Z</time>
      </trkpt>
      <trkpt lat="46.511674309149384" lon="6.749639930203557">
        <ele>768.230000000000018</ele>
        <time>2014-06-14T15:55:55Z</time>
      </trkpt>
      <trkpt lat="46.511734994128346" lon="6.749725760892034">
        <ele>767.75</ele>
        <time>2014-06-14T15:55:56Z</time>
      </trkpt>
      <trkpt lat="46.511801797896624" lon="6.749807316809893">
        <ele>766.789999999999964</ele>
        <time>2014-06-14T15:55:57Z</time>
      </trkpt>
      <trkpt lat="46.511878576129675" lon="6.749888369813561">
        <ele>765.830000000000041</ele>
        <time>2014-06-14T15:55:58Z</time>
      </trkpt>
      <trkpt lat="46.512226425111294" lon="6.750209983438253">
        <ele>761.980000000000018</ele>
        <time>2014-06-14T15:56:02Z</time>
      </trkpt>
      <trkpt lat="46.513281706720591" lon="6.750635281205177">
        <ele>756.210000000000036</ele>
        <time>2014-06-14T15:56:12Z</time>
      </trkpt>
      <trkpt lat="46.514260461553931" lon="6.750905010849237">
        <ele>754.289999999999964</ele>
        <time>2014-06-14T15:56:21Z</time>
      </trkpt>
      <trkpt lat="46.514679975807667" lon="6.751147415488958">
        <ele>754.289999999999964</ele>
        <time>2014-06-14T15:56:25Z</time>
      </trkpt>
      <trkpt lat="46.514793215319514" lon="6.751172561198473">
        <ele>753.809999999999945</ele>
        <time>2014-06-14T15:56:26Z</time>
      </trkpt>
      <trkpt lat="46.514905197545886" lon="6.751176752150059">
        <ele>753.809999999999945</ele>
        <time>2014-06-14T15:56:27Z</time>
      </trkpt>
      <trkpt lat="46.515006786212325" lon="6.751179853454232">
        <ele>753.330000000000041</ele>
        <time>2014-06-14T15:56:28Z</time>
      </trkpt>
      <trkpt lat="46.515114577487111" lon="6.751184798777103">
        <ele>753.330000000000041</ele>
        <time>2014-06-14T15:56:29Z</time>
      </trkpt>
      <trkpt lat="46.515227314084768" lon="6.751203155145049">
        <ele>753.330000000000041</ele>
        <time>2014-06-14T15:56:30Z</time>
      </trkpt>
      <trkpt lat="46.515337871387601" lon="6.751249255612493">
        <ele>752.850000000000023</ele>
        <time>2014-06-14T15:56:31Z</time>
      </trkpt>
      <trkpt lat="46.516672689467669" lon="6.752017205581069">
        <ele>743.240000000000009</ele>
        <time>2014-06-14T15:56:42Z</time>
      </trkpt>
      <trkpt lat="46.517654210329056" lon="6.752755232155323">
        <ele>729.299999999999955</ele>
        <time>2014-06-14T15:56:51Z</time>
      </trkpt>
      <trkpt lat="46.519034039229155" lon="6.75425760447979">
        <ele>714.879999999999995</ele>
        <time>2014-06-14T15:57:09Z</time>
      </trkpt>
      <trkpt lat="46.520218150690198" lon="6.755443643778563">
        <ele>707.190000000000055</ele>
        <time>2014-06-14T15:57:25Z</time>
      </trkpt>
      <trkpt lat="46.520467009395361" lon="6.755728460848331">
        <ele>703.82000000000005</ele>
        <time>2014-06-14T15:57:30Z</time>
      </trkpt>
      <trkpt lat="46.520476480945945" lon="6.755703398957849">
        <ele>703.340000000000032</ele>
        <time>2014-06-14T15:57:31Z</time>
      </trkpt>
      <trkpt lat="46.520471451804042" lon="6.755656795576215">
        <ele>702.379999999999995</ele>
        <time>2014-06-14T15:57:32Z</time>
      </trkpt>
      <trkpt lat="46.52044890448451" lon="6.755504747852683">
        <ele>700.940000000000055</ele>
        <time>2014-06-14T15:57:35Z</time>
      </trkpt>
      <trkpt lat="46.520447311922908" lon="6.755427801981568">
        <ele>699.980000000000018</ele>
        <time>2014-06-14T15:57:36Z</time>
      </trkpt>
      <trkpt lat="46.520449575036764" lon="6.755345994606614">
        <ele>699.019999999999982</ele>
        <time>2014-06-14T15:57:37Z</time>
      </trkpt>
      <trkpt lat="46.52048016898334" lon="6.754912650212646">
        <ele>693.25</ele>
        <time>2014-06-14T15:57:41Z</time>
      </trkpt>
      <trkpt lat="46.520960284397006" lon="6.753153121098876">
        <ele>690.360000000000014</ele>
        <time>2014-06-14T15:57:54Z</time>
      </trkpt>
      <trkpt lat="46.5215287450701" lon="6.751160407438874">
        <ele>691.330000000000041</ele>
        <time>2014-06-14T15:58:12Z</time>
      </trkpt>
      <trkpt lat="46.521550705656409" lon="6.751072397455573">
        <ele>691.809999999999945</ele>
        <time>2014-06-14T15:58:13Z</time>
      </trkpt>
      <trkpt lat="46.521683558821678" lon="6.750547606498003">
        <ele>696.129999999999995</ele>
        <time>2014-06-14T15:58:22Z</time>
      </trkpt>
      <trkpt lat="46.521891010925174" lon="6.750320205464959">
        <ele>699.019999999999982</ele>
        <time>2014-06-14T15:58:36Z</time>
      </trkpt>
      <trkpt lat="46.522238943725824" lon="6.750351721420884">
        <ele>702.860000000000014</ele>
        <time>2014-06-14T15:58:50Z</time>
      </trkpt>
      <trkpt lat="46.522537255659699" lon="6.750354571267962">
        <ele>704.779999999999973</ele>
        <time>2014-06-14T15:59:03Z</time>
      </trkpt>
      <trkpt lat="46.522549912333488" lon="6.750337388366461">
        <ele>705.259999999999991</ele>
        <time>2014-06-14T15:59:04Z</time>
      </trkpt>
      <trkpt lat="46.522559132426977" lon="6.750314505770802">
        <ele>705.259999999999991</ele>
        <time>2014-06-14T15:59:05Z</time>
      </trkpt>
      <trkpt lat="46.522564748302102" lon="6.750291204079986">
        <ele>705.259999999999991</ele>
        <time>2014-06-14T15:59:06Z</time>
      </trkpt>
      <trkpt lat="46.522568017244339" lon="6.750266561284661">
        <ele>705.75</ele>
        <time>2014-06-14T15:59:07Z</time>
      </trkpt>
      <trkpt lat="46.52256759814918" lon="6.750239320099354">
        <ele>705.75</ele>
        <time>2014-06-14T15:59:08Z</time>
      </trkpt>
      <trkpt lat="46.522562820464373" lon="6.750209731981158">
        <ele>705.75</ele>
        <time>2014-06-14T15:59:09Z</time>
      </trkpt>
      <trkpt lat="46.522554690018296" lon="6.750180227681994">
        <ele>706.230000000000018</ele>
        <time>2014-06-14T15:59:10Z</time>
      </trkpt>
      <trkpt lat="46.522544799372554" lon="6.750154998153448">
        <ele>706.230000000000018</ele>
        <time>2014-06-14T15:59:11Z</time>
      </trkpt>
      <trkpt lat="46.522531136870384" lon="6.750131696462631">
        <ele>706.710000000000036</ele>
        <time>2014-06-14T15:59:12Z</time>
      </trkpt>
      <trkpt lat="46.522514540702105" lon="6.750111915171146">
        <ele>707.190000000000055</ele>
        <time>2014-06-14T15:59:13Z</time>
      </trkpt>
      <trkpt lat="46.522495346143842" lon="6.750095654278994">
        <ele>707.190000000000055</ele>
        <time>2014-06-14T15:59:14Z</time>
      </trkpt>
      <trkpt lat="46.522476403042674" lon="6.750080063939095">
        <ele>707.190000000000055</ele>
        <time>2014-06-14T15:59:15Z</time>
      </trkpt>
      <trkpt lat="46.522456957027316" lon="6.750066317617893">
        <ele>707.669999999999959</ele>
        <time>2014-06-14T15:59:16Z</time>
      </trkpt>
      <trkpt lat="46.522437427192926" lon="6.750055504962802">
        <ele>707.669999999999959</ele>
        <time>2014-06-14T15:59:17Z</time>
      </trkpt>
      <trkpt lat="46.522417897358537" lon="6.750045446678996">
        <ele>708.149999999999977</ele>
        <time>2014-06-14T15:59:18Z</time>
      </trkpt>
      <trkpt lat="46.522397948428988" lon="6.750035472214222">
        <ele>708.149999999999977</ele>
        <time>2014-06-14T15:59:19Z</time>
      </trkpt>
      <trkpt lat="46.522378334775567" lon="6.750024491921067">
        <ele>708.629999999999995</ele>
        <time>2014-06-14T15:59:20Z</time>
      </trkpt>
      <trkpt lat="46.522357044741511" lon="6.750012589618564">
        <ele>708.629999999999995</ele>
        <time>2014-06-14T15:59:21Z</time>
      </trkpt>
      <trkpt lat="46.522334162145853" lon="6.750004040077329">
        <ele>709.110000000000014</ele>
        <time>2014-06-14T15:59:22Z</time>
      </trkpt>
      <trkpt lat="46.522313458845019" lon="6.749994484707713">
        <ele>709.110000000000014</ele>
        <time>2014-06-14T15:59:23Z</time>
      </trkpt>
      <trkpt lat="46.522025372833014" lon="6.749764150008559">
        <ele>711.029999999999973</ele>
        <time>2014-06-14T15:59:38Z</time>
      </trkpt>
      <trkpt lat="46.521779196336865" lon="6.749356118962169">
        <ele>713.919999999999959</ele>
        <time>2014-06-14T15:59:55Z</time>
      </trkpt>
      <trkpt lat="46.521644415333867" lon="6.748982537537813">
        <ele>717.279999999999973</ele>
        <time>2014-06-14T16:00:11Z</time>
      </trkpt>
      <trkpt lat="46.521562188863754" lon="6.748638963326812">
        <ele>720.159999999999968</ele>
        <time>2014-06-14T16:00:25Z</time>
      </trkpt>
      <trkpt lat="46.52157518081367" lon="6.748216431587934">
        <ele>723.529999999999973</ele>
        <time>2014-06-14T16:00:41Z</time>
      </trkpt>
      <trkpt lat="46.521597560495138" lon="6.748120374977589">
        <ele>724.490000000000009</ele>
        <time>2014-06-14T16:00:45Z</time>
      </trkpt>
      <trkpt lat="46.521609127521515" lon="6.748106125742197">
        <ele>724.970000000000027</ele>
        <time>2014-06-14T16:00:46Z</time>
      </trkpt>
      <trkpt lat="46.521624298766255" lon="6.748091792687774">
        <ele>724.970000000000027</ele>
        <time>2014-06-14T16:00:47Z</time>
      </trkpt>
      <trkpt lat="46.521644163876772" lon="6.748084248974919">
        <ele>725.450000000000045</ele>
        <time>2014-06-14T16:00:48Z</time>
      </trkpt>
      <trkpt lat="46.521665873005986" lon="6.748088439926505">
        <ele>725.92999999999995</ele>
        <time>2014-06-14T16:00:49Z</time>
      </trkpt>
      <trkpt lat="46.521679116412997" lon="6.748093804344535">
        <ele>725.92999999999995</ele>
        <time>2014-06-14T16:00:50Z</time>
      </trkpt>
      <trkpt lat="46.521698478609324" lon="6.748103275895119">
        <ele>726.409999999999968</ele>
        <time>2014-06-14T16:00:51Z</time>
      </trkpt>
      <trkpt lat="46.522027384489775" lon="6.748282480984926">
        <ele>731.220000000000027</ele>
        <time>2014-06-14T16:01:08Z</time>
      </trkpt>
      <trkpt lat="46.522409683093429" lon="6.748423799872398">
        <ele>733.139999999999986</ele>
        <time>2014-06-14T16:01:24Z</time>
      </trkpt>
      <trkpt lat="46.522996667772532" lon="6.748511893674731">
        <ele>731.700000000000045</ele>
        <time>2014-06-14T16:01:36Z</time>
      </trkpt>
      <trkpt lat="46.523343762382865" lon="6.748493369668722">
        <ele>733.139999999999986</ele>
        <time>2014-06-14T16:01:46Z</time>
      </trkpt>
      <trkpt lat="46.523837121203542" lon="6.74838725477457">
        <ele>729.779999999999973</ele>
        <time>2014-06-14T16:01:56Z</time>
      </trkpt>
      <trkpt lat="46.523916246369481" lon="6.748392367735505">
        <ele>729.299999999999955</ele>
        <time>2014-06-14T16:01:57Z</time>
      </trkpt>
      <trkpt lat="46.523991515859962" lon="6.748417848721147">
        <ele>728.82000000000005</ele>
        <time>2014-06-14T16:01:58Z</time>
      </trkpt>
      <trkpt lat="46.524055888876319" lon="6.748460596427321">
        <ele>728.82000000000005</ele>
        <time>2014-06-14T16:01:59Z</time>
      </trkpt>
      <trkpt lat="46.524657122790813" lon="6.749151684343815">
        <ele>728.340000000000032</ele>
        <time>2014-06-14T16:02:12Z</time>
      </trkpt>
      <trkpt lat="46.524773966521025" lon="6.749261151999235">
        <ele>728.82000000000005</ele>
        <time>2014-06-14T16:02:15Z</time>
      </trkpt>
      <trkpt lat="46.524810260161757" lon="6.749292835593224">
        <ele>728.82000000000005</ele>
        <time>2014-06-14T16:02:16Z</time>
      </trkpt>
      <trkpt lat="46.524844542145729" lon="6.74933273345232">
        <ele>728.82000000000005</ele>
        <time>2014-06-14T16:02:17Z</time>
      </trkpt>
      <trkpt lat="46.524880081415176" lon="6.749376738443971">
        <ele>728.82000000000005</ele>
        <time>2014-06-14T16:02:18Z</time>
      </trkpt>
      <trkpt lat="46.52491838671267" lon="6.749420240521431">
        <ele>729.299999999999955</ele>
        <time>2014-06-14T16:02:19Z</time>
      </trkpt>
      <trkpt lat="46.525598578155041" lon="6.75009255297482">
        <ele>727.860000000000014</ele>
        <time>2014-06-14T16:02:35Z</time>
      </trkpt>
      <trkpt lat="46.525849029421806" lon="6.750261699780822">
        <ele>727.370000000000005</ele>
        <time>2014-06-14T16:02:41Z</time>
      </trkpt>
      <trkpt lat="46.525891358032823" lon="6.750278128311038">
        <ele>726.889999999999986</ele>
        <time>2014-06-14T16:02:42Z</time>
      </trkpt>
      <trkpt lat="46.52593276463449" lon="6.750284247100353">
        <ele>726.409999999999968</ele>
        <time>2014-06-14T16:02:43Z</time>
      </trkpt>
      <trkpt lat="46.525974590331316" lon="6.750277122482657">
        <ele>726.409999999999968</ele>
        <time>2014-06-14T16:02:44Z</time>
      </trkpt>
      <trkpt lat="46.526019349694252" lon="6.750259688124061">
        <ele>725.92999999999995</ele>
        <time>2014-06-14T16:02:45Z</time>
      </trkpt>
      <trkpt lat="46.52621129527688" lon="6.750162960961461">
        <ele>724.490000000000009</ele>
        <time>2014-06-14T16:02:49Z</time>
      </trkpt>
      <trkpt lat="46.526408270001411" lon="6.750042429193854">
        <ele>723.529999999999973</ele>
        <time>2014-06-14T16:02:53Z</time>
      </trkpt>
      <trkpt lat="46.526460405439138" lon="6.750027257949114">
        <ele>723.529999999999973</ele>
        <time>2014-06-14T16:02:54Z</time>
      </trkpt>
      <trkpt lat="46.526515809819102" lon="6.750023569911718">
        <ele>723.529999999999973</ele>
        <time>2014-06-14T16:02:55Z</time>
      </trkpt>
      <trkpt lat="46.526570376008749" lon="6.750028347596526">
        <ele>723.529999999999973</ele>
        <time>2014-06-14T16:02:56Z</time>
      </trkpt>
      <trkpt lat="46.526625780388713" lon="6.7500383220613">
        <ele>724.009999999999991</ele>
        <time>2014-06-14T16:02:57Z</time>
      </trkpt>
      <trkpt lat="46.527101118117571" lon="6.750217191874981">
        <ele>728.82000000000005</ele>
        <time>2014-06-14T16:03:09Z</time>
      </trkpt>
      <trkpt lat="46.527355927973986" lon="6.750438222661614">
        <ele>727.860000000000014</ele>
        <time>2014-06-14T16:03:16Z</time>
      </trkpt>
      <trkpt lat="46.52740890160203" lon="6.750440485775471">
        <ele>727.370000000000005</ele>
        <time>2014-06-14T16:03:17Z</time>
      </trkpt>
      <trkpt lat="46.527457684278488" lon="6.750404359772801">
        <ele>727.370000000000005</ele>
        <time>2014-06-14T16:03:18Z</time>
      </trkpt>
      <trkpt lat="46.527487440034747" lon="6.750360773876309">
        <ele>727.370000000000005</ele>
        <time>2014-06-14T16:03:19Z</time>
      </trkpt>
      <trkpt lat="46.527505377307534" lon="6.750326408073306">
        <ele>727.860000000000014</ele>
        <time>2014-06-14T16:03:20Z</time>
      </trkpt>
      <trkpt lat="46.527522811666131" lon="6.750281564891338">
        <ele>727.860000000000014</ele>
        <time>2014-06-14T16:03:21Z</time>
      </trkpt>
      <trkpt lat="46.527538318186998" lon="6.750236973166466">
        <ele>728.340000000000032</ele>
        <time>2014-06-14T16:03:22Z</time>
      </trkpt>
      <trkpt lat="46.527552902698517" lon="6.750196740031242">
        <ele>728.82000000000005</ele>
        <time>2014-06-14T16:03:23Z</time>
      </trkpt>
      <trkpt lat="46.527565978467464" lon="6.750157931819558">
        <ele>729.299999999999955</ele>
        <time>2014-06-14T16:03:24Z</time>
      </trkpt>
      <trkpt lat="46.527576874941587" lon="6.750125074759126">
        <ele>729.299999999999955</ele>
        <time>2014-06-14T16:03:25Z</time>
      </trkpt>
      <trkpt lat="46.52760973200202" lon="6.749789714813232">
        <ele>731.220000000000027</ele>
        <time>2014-06-14T16:03:35Z</time>
      </trkpt>
      <trkpt lat="46.527408733963966" lon="6.749218907207251">
        <ele>733.139999999999986</ele>
        <time>2014-06-14T16:03:46Z</time>
      </trkpt>
      <trkpt lat="46.527006234973669" lon="6.748407455161214">
        <ele>734.580000000000041</ele>
        <time>2014-06-14T16:04:02Z</time>
      </trkpt>
      <trkpt lat="46.526610692963004" lon="6.747341779991984">
        <ele>736.990000000000009</ele>
        <time>2014-06-14T16:04:22Z</time>
      </trkpt>
      <trkpt lat="46.52656652033329" lon="6.747240107506514">
        <ele>736.990000000000009</ele>
        <time>2014-06-14T16:04:24Z</time>
      </trkpt>
      <trkpt lat="46.526097301393747" lon="6.746449107304215">
        <ele>738.42999999999995</ele>
        <time>2014-06-14T16:04:42Z</time>
      </trkpt>
      <trkpt lat="46.525983307510614" lon="6.746368557214737">
        <ele>738.909999999999968</ele>
        <time>2014-06-14T16:04:45Z</time>
      </trkpt>
      <trkpt lat="46.525398250669241" lon="6.746027246117592">
        <ele>741.789999999999964</ele>
        <time>2014-06-14T16:05:00Z</time>
      </trkpt>
      <trkpt lat="46.524884607642889" lon="6.74551410600543">
        <ele>744.67999999999995</ele>
        <time>2014-06-14T16:05:16Z</time>
      </trkpt>
      <trkpt lat="46.524328636005521" lon="6.744948998093605">
        <ele>747.559999999999945</ele>
        <time>2014-06-14T16:05:34Z</time>
      </trkpt>
      <trkpt lat="46.523776687681675" lon="6.744451615959406">
        <ele>750.450000000000045</ele>
        <time>2014-06-14T16:05:51Z</time>
      </trkpt>
      <trkpt lat="46.523613659664989" lon="6.744311051443219">
        <ele>750.450000000000045</ele>
        <time>2014-06-14T16:05:56Z</time>
      </trkpt>
      <trkpt lat="46.523577366024256" lon="6.7442861571908">
        <ele>750.92999999999995</ele>
        <time>2014-06-14T16:05:57Z</time>
      </trkpt>
      <trkpt lat="46.523540401831269" lon="6.744261598214507">
        <ele>751.409999999999968</ele>
        <time>2014-06-14T16:05:58Z</time>
      </trkpt>
      <trkpt lat="46.523504527285695" lon="6.74423729069531">
        <ele>751.889999999999986</ele>
        <time>2014-06-14T16:05:59Z</time>
      </trkpt>
      <trkpt lat="46.523470999673009" lon="6.744212144985795">
        <ele>752.370000000000005</ele>
        <time>2014-06-14T16:06:00Z</time>
      </trkpt>
      <trkpt lat="46.52343638241291" lon="6.744185825809836">
        <ele>752.850000000000023</ele>
        <time>2014-06-14T16:06:01Z</time>
      </trkpt>
      <trkpt lat="46.523399753496051" lon="6.744159338995814">
        <ele>752.850000000000023</ele>
        <time>2014-06-14T16:06:02Z</time>
      </trkpt>
      <trkpt lat="46.52336161583662" lon="6.744134109467268">
        <ele>752.850000000000023</ele>
        <time>2014-06-14T16:06:03Z</time>
      </trkpt>
      <trkpt lat="46.52332398109138" lon="6.74410686828196">
        <ele>753.330000000000041</ele>
        <time>2014-06-14T16:06:04Z</time>
      </trkpt>
      <trkpt lat="46.523126251995564" lon="6.74394023604691">
        <ele>753.330000000000041</ele>
        <time>2014-06-14T16:06:09Z</time>
      </trkpt>
      <trkpt lat="46.522438684478402" lon="6.74314227886498">
        <ele>749.970000000000027</ele>
        <time>2014-06-14T16:06:23Z</time>
      </trkpt>
      <trkpt lat="46.522330306470394" lon="6.742987632751465">
        <ele>749</ele>
        <time>2014-06-14T16:06:25Z</time>
      </trkpt>
      <trkpt lat="46.521902829408646" lon="6.742035616189241">
        <ele>739.870000000000005</ele>
        <time>2014-06-14T16:06:35Z</time>
      </trkpt>
      <trkpt lat="46.521882545202971" lon="6.741956239566207">
        <ele>739.389999999999986</ele>
        <time>2014-06-14T16:06:36Z</time>
      </trkpt>
      <trkpt lat="46.521857231855392" lon="6.741576958447695">
        <ele>737.470000000000027</ele>
        <time>2014-06-14T16:06:40Z</time>
      </trkpt>
      <trkpt lat="46.521864524111152" lon="6.741473441943526">
        <ele>737.470000000000027</ele>
        <time>2014-06-14T16:06:41Z</time>
      </trkpt>
      <trkpt lat="46.5218844730407" lon="6.741368416696787">
        <ele>736.990000000000009</ele>
        <time>2014-06-14T16:06:42Z</time>
      </trkpt>
      <trkpt lat="46.521922023966908" lon="6.74125618301332">
        <ele>736.509999999999991</ele>
        <time>2014-06-14T16:06:43Z</time>
      </trkpt>
      <trkpt lat="46.521966531872749" lon="6.741148307919502">
        <ele>735.549999999999955</ele>
        <time>2014-06-14T16:06:44Z</time>
      </trkpt>
      <trkpt lat="46.522021098062396" lon="6.74103188328445">
        <ele>734.580000000000041</ele>
        <time>2014-06-14T16:06:45Z</time>
      </trkpt>
      <trkpt lat="46.522361570969224" lon="6.740377759560943">
        <ele>729.779999999999973</ele>
        <time>2014-06-14T16:06:53Z</time>
      </trkpt>
      <trkpt lat="46.522372383624315" lon="6.740339705720544">
        <ele>729.299999999999955</ele>
        <time>2014-06-14T16:06:54Z</time>
      </trkpt>
      <trkpt lat="46.522365929558873" lon="6.740284971892834">
        <ele>729.779999999999973</ele>
        <time>2014-06-14T16:06:55Z</time>
      </trkpt>
      <trkpt lat="46.522341454401612" lon="6.740226801484823">
        <ele>729.779999999999973</ele>
        <time>2014-06-14T16:06:56Z</time>
      </trkpt>
      <trkpt lat="46.522315721958876" lon="6.740188915282488">
        <ele>729.779999999999973</ele>
        <time>2014-06-14T16:06:57Z</time>
      </trkpt>
      <trkpt lat="46.522274063900113" lon="6.740133762359619">
        <ele>729.779999999999973</ele>
        <time>2014-06-14T16:06:58Z</time>
      </trkpt>
      <trkpt lat="46.521482393145561" lon="6.739168586209416">
        <ele>728.340000000000032</ele>
        <time>2014-06-14T16:07:13Z</time>
      </trkpt>
      <trkpt lat="46.520719723775983" lon="6.738248337060213">
        <ele>725.92999999999995</ele>
        <time>2014-06-14T16:07:26Z</time>
      </trkpt>
      <trkpt lat="46.52070396579802" lon="6.738145658746362">
        <ele>725.92999999999995</ele>
        <time>2014-06-14T16:07:27Z</time>
      </trkpt>
      <trkpt lat="46.520719388499856" lon="6.73807030543685">
        <ele>725.92999999999995</ele>
        <time>2014-06-14T16:07:28Z</time>
      </trkpt>
      <trkpt lat="46.520738918334246" lon="6.738023366779089">
        <ele>725.92999999999995</ele>
        <time>2014-06-14T16:07:29Z</time>
      </trkpt>
      <trkpt lat="46.520773703232408" lon="6.737965447828174">
        <ele>725.92999999999995</ele>
        <time>2014-06-14T16:07:30Z</time>
      </trkpt>
      <trkpt lat="46.520813601091504" lon="6.737914402037859">
        <ele>726.409999999999968</ele>
        <time>2014-06-14T16:07:31Z</time>
      </trkpt>
      <trkpt lat="46.520855259150267" lon="6.737864278256893">
        <ele>726.409999999999968</ele>
        <time>2014-06-14T16:07:32Z</time>
      </trkpt>
      <trkpt lat="46.521232612431049" lon="6.737403944134712">
        <ele>726.409999999999968</ele>
        <time>2014-06-14T16:07:40Z</time>
      </trkpt>
      <trkpt lat="46.521285083144903" lon="6.737362202256918">
        <ele>726.409999999999968</ele>
        <time>2014-06-14T16:07:41Z</time>
      </trkpt>
      <trkpt lat="46.521339900791645" lon="6.737329512834549">
        <ele>726.409999999999968</ele>
        <time>2014-06-14T16:07:42Z</time>
      </trkpt>
      <trkpt lat="46.521395053714514" lon="6.737302606925368">
        <ele>726.409999999999968</ele>
        <time>2014-06-14T16:07:43Z</time>
      </trkpt>
      <trkpt lat="46.52144911698997" lon="6.737280059605837">
        <ele>726.409999999999968</ele>
        <time>2014-06-14T16:07:44Z</time>
      </trkpt>
      <trkpt lat="46.521548861637712" lon="6.737246867269278">
        <ele>726.889999999999986</ele>
        <time>2014-06-14T16:07:46Z</time>
      </trkpt>
      <trkpt lat="46.5218585729599" lon="6.737186685204506">
        <ele>726.409999999999968</ele>
        <time>2014-06-14T16:07:52Z</time>
      </trkpt>
      <trkpt lat="46.521924706175923" lon="6.737155336886644">
        <ele>725.450000000000045</ele>
        <time>2014-06-14T16:07:53Z</time>
      </trkpt>
      <trkpt lat="46.522066444158554" lon="6.737063052132726">
        <ele>724.009999999999991</ele>
        <time>2014-06-14T16:07:55Z</time>
      </trkpt>
      <trkpt lat="46.522136265411973" lon="6.737001528963447">
        <ele>723.529999999999973</ele>
        <time>2014-06-14T16:07:56Z</time>
      </trkpt>
      <trkpt lat="46.522203907370567" lon="6.736933803185821">
        <ele>723.529999999999973</ele>
        <time>2014-06-14T16:07:57Z</time>
      </trkpt>
      <trkpt lat="46.522445054724813" lon="6.73666256479919">
        <ele>723.529999999999973</ele>
        <time>2014-06-14T16:08:01Z</time>
      </trkpt>
      <trkpt lat="46.522509008646011" lon="6.736628785729408">
        <ele>724.009999999999991</ele>
        <time>2014-06-14T16:08:02Z</time>
      </trkpt>
      <trkpt lat="46.522560557350516" lon="6.736627528443933">
        <ele>724.009999999999991</ele>
        <time>2014-06-14T16:08:03Z</time>
      </trkpt>
      <trkpt lat="46.52260766364634" lon="6.736650327220559">
        <ele>724.490000000000009</ele>
        <time>2014-06-14T16:08:04Z</time>
      </trkpt>
      <trkpt lat="46.522645717486739" lon="6.736689638346434">
        <ele>724.970000000000027</ele>
        <time>2014-06-14T16:08:05Z</time>
      </trkpt>
      <trkpt lat="46.522676730528474" lon="6.736736828461289">
        <ele>725.450000000000045</ele>
        <time>2014-06-14T16:08:06Z</time>
      </trkpt>
      <trkpt lat="46.523161372169852" lon="6.737580886110663">
        <ele>724.490000000000009</ele>
        <time>2014-06-14T16:08:21Z</time>
      </trkpt>
      <trkpt lat="46.523323059082031" lon="6.737855644896626">
        <ele>723.049999999999955</ele>
        <time>2014-06-14T16:08:25Z</time>
      </trkpt>
      <trkpt lat="46.52338114567101" lon="6.737907780334353">
        <ele>722.090000000000032</ele>
        <time>2014-06-14T16:08:26Z</time>
      </trkpt>
      <trkpt lat="46.523449374362826" lon="6.737933177500963">
        <ele>721.610000000000014</ele>
        <time>2014-06-14T16:08:27Z</time>
      </trkpt>
      <trkpt lat="46.523521961644292" lon="6.737928064540029">
        <ele>721.129999999999995</ele>
        <time>2014-06-14T16:08:28Z</time>
      </trkpt>
      <trkpt lat="46.523588765412569" lon="6.737898141145706">
        <ele>720.649999999999977</ele>
        <time>2014-06-14T16:08:29Z</time>
      </trkpt>
      <trkpt lat="46.523650456219912" lon="6.737849693745375">
        <ele>720.649999999999977</ele>
        <time>2014-06-14T16:08:30Z</time>
      </trkpt>
      <trkpt lat="46.523707620799541" lon="6.737793032079935">
        <ele>720.159999999999968</ele>
        <time>2014-06-14T16:08:31Z</time>
      </trkpt>
      <trkpt lat="46.523763444274664" lon="6.737733101472259">
        <ele>720.159999999999968</ele>
        <time>2014-06-14T16:08:32Z</time>
      </trkpt>
      <trkpt lat="46.524290246888995" lon="6.736960289999843">
        <ele>719.67999999999995</ele>
        <time>2014-06-14T16:08:44Z</time>
      </trkpt>
      <trkpt lat="46.524315811693668" lon="6.736858449876308">
        <ele>719.200000000000045</ele>
        <time>2014-06-14T16:08:45Z</time>
      </trkpt>
      <trkpt lat="46.524315141141415" lon="6.736726267263293">
        <ele>719.200000000000045</ele>
        <time>2014-06-14T16:08:46Z</time>
      </trkpt>
      <trkpt lat="46.524290749803185" lon="6.736637922003865">
        <ele>718.720000000000027</ele>
        <time>2014-06-14T16:08:47Z</time>
      </trkpt>
      <trkpt lat="46.524261245504022" lon="6.736566843464971">
        <ele>718.720000000000027</ele>
        <time>2014-06-14T16:08:48Z</time>
      </trkpt>
      <trkpt lat="46.524219000712037" lon="6.73648227006197">
        <ele>718.240000000000009</ele>
        <time>2014-06-14T16:08:49Z</time>
      </trkpt>
      <trkpt lat="46.524061085656285" lon="6.736129056662321">
        <ele>718.240000000000009</ele>
        <time>2014-06-14T16:08:53Z</time>
      </trkpt>
      <trkpt lat="46.52403200045228" lon="6.736034592613578">
        <ele>718.240000000000009</ele>
        <time>2014-06-14T16:08:54Z</time>
      </trkpt>
      <trkpt lat="46.523900656029582" lon="6.735005965456367">
        <ele>721.129999999999995</ele>
        <time>2014-06-14T16:09:06Z</time>
      </trkpt>
      <trkpt lat="46.523879617452621" lon="6.734447479248047">
        <ele>725.92999999999995</ele>
        <time>2014-06-14T16:09:19Z</time>
      </trkpt>
      <trkpt lat="46.523901745676994" lon="6.733797043561935">
        <ele>729.299999999999955</ele>
        <time>2014-06-14T16:09:36Z</time>
      </trkpt>
      <trkpt lat="46.52392546646297" lon="6.733763432130218">
        <ele>729.299999999999955</ele>
        <time>2014-06-14T16:09:37Z</time>
      </trkpt>
      <trkpt lat="46.523961760103703" lon="6.733751362189651">
        <ele>729.779999999999973</ele>
        <time>2014-06-14T16:09:38Z</time>
      </trkpt>
      <trkpt lat="46.524002915248275" lon="6.733767790719867">
        <ele>729.779999999999973</ele>
        <time>2014-06-14T16:09:40Z</time>
      </trkpt>
      <trkpt lat="46.524042394012213" lon="6.733820429071784">
        <ele>730.259999999999991</ele>
        <time>2014-06-14T16:09:41Z</time>
      </trkpt>
      <trkpt lat="46.524527119472623" lon="6.734505398198962">
        <ele>730.259999999999991</ele>
        <time>2014-06-14T16:09:55Z</time>
      </trkpt>
      <trkpt lat="46.524774637073278" lon="6.734710587188601">
        <ele>728.82000000000005</ele>
        <time>2014-06-14T16:10:00Z</time>
      </trkpt>
      <trkpt lat="46.524836160242558" lon="6.734735313802958">
        <ele>728.340000000000032</ele>
        <time>2014-06-14T16:10:01Z</time>
      </trkpt>
      <trkpt lat="46.524895755574107" lon="6.734753083437681">
        <ele>728.340000000000032</ele>
        <time>2014-06-14T16:10:02Z</time>
      </trkpt>
      <trkpt lat="46.525080744177103" lon="6.734802704304457">
        <ele>727.860000000000014</ele>
        <time>2014-06-14T16:10:05Z</time>
      </trkpt>
      <trkpt lat="46.525145871564746" lon="6.734839417040348">
        <ele>727.370000000000005</ele>
        <time>2014-06-14T16:10:06Z</time>
      </trkpt>
      <trkpt lat="46.525212088599801" lon="6.734889959916472">
        <ele>726.889999999999986</ele>
        <time>2014-06-14T16:10:07Z</time>
      </trkpt>
      <trkpt lat="46.525967130437493" lon="6.735559841617942">
        <ele>722.57000000000005</ele>
        <time>2014-06-14T16:10:18Z</time>
      </trkpt>
      <trkpt lat="46.526335347443819" lon="6.735786739736795">
        <ele>722.090000000000032</ele>
        <time>2014-06-14T16:10:23Z</time>
      </trkpt>
      <trkpt lat="46.526388991624117" lon="6.735840300098062">
        <ele>722.57000000000005</ele>
        <time>2014-06-14T16:10:24Z</time>
      </trkpt>
      <trkpt lat="46.526438361033797" lon="6.735904840752482">
        <ele>722.57000000000005</ele>
        <time>2014-06-14T16:10:25Z</time>
      </trkpt>
      <trkpt lat="46.526479432359338" lon="6.735968291759491">
        <ele>722.57000000000005</ele>
        <time>2014-06-14T16:10:26Z</time>
      </trkpt>
      <trkpt lat="46.5265176538378" lon="6.73603325150907">
        <ele>723.049999999999955</ele>
        <time>2014-06-14T16:10:27Z</time>
      </trkpt>
      <trkpt lat="46.526937084272504" lon="6.736740684136748">
        <ele>725.92999999999995</ele>
        <time>2014-06-14T16:10:41Z</time>
      </trkpt>
      <trkpt lat="46.527312425896525" lon="6.737345941364765">
        <ele>729.779999999999973</ele>
        <time>2014-06-14T16:10:56Z</time>
      </trkpt>
      <trkpt lat="46.527541754767299" lon="6.737754307687283">
        <ele>729.299999999999955</ele>
        <time>2014-06-14T16:11:05Z</time>
      </trkpt>
      <trkpt lat="46.527568744495511" lon="6.737817758694291">
        <ele>728.82000000000005</ele>
        <time>2014-06-14T16:11:06Z</time>
      </trkpt>
      <trkpt lat="46.527591710910201" lon="6.737887244671583">
        <ele>728.82000000000005</ele>
        <time>2014-06-14T16:11:07Z</time>
      </trkpt>
      <trkpt lat="46.527965208515525" lon="6.738809673115611">
        <ele>726.889999999999986</ele>
        <time>2014-06-14T16:11:21Z</time>
      </trkpt>
      <trkpt lat="46.528587564826012" lon="6.739772167056799">
        <ele>725.450000000000045</ele>
        <time>2014-06-14T16:11:38Z</time>
      </trkpt>
      <trkpt lat="46.528934156522155" lon="6.740233842283487">
        <ele>724.490000000000009</ele>
        <time>2014-06-14T16:11:46Z</time>
      </trkpt>
      <trkpt lat="46.528984867036343" lon="6.740273907780647">
        <ele>724.490000000000009</ele>
        <time>2014-06-14T16:11:47Z</time>
      </trkpt>
      <trkpt lat="46.529086623340845" lon="6.740342890843749">
        <ele>724.490000000000009</ele>
        <time>2014-06-14T16:11:49Z</time>
      </trkpt>
      <trkpt lat="46.529191564768553" lon="6.740390248596668">
        <ele>724.490000000000009</ele>
        <time>2014-06-14T16:11:51Z</time>
      </trkpt>
      <trkpt lat="46.529246298596263" lon="6.740403492003679">
        <ele>724.490000000000009</ele>
        <time>2014-06-14T16:11:52Z</time>
      </trkpt>
      <trkpt lat="46.52945970185101" lon="6.740438360720873">
        <ele>724.490000000000009</ele>
        <time>2014-06-14T16:11:56Z</time>
      </trkpt>
      <trkpt lat="46.529512843117118" lon="6.740465350449085">
        <ele>724.009999999999991</ele>
        <time>2014-06-14T16:11:57Z</time>
      </trkpt>
      <trkpt lat="46.529553662985563" lon="6.740511953830719">
        <ele>724.009999999999991</ele>
        <time>2014-06-14T16:11:58Z</time>
      </trkpt>
      <trkpt lat="46.529584256932139" lon="6.740592923015356">
        <ele>723.529999999999973</ele>
        <time>2014-06-14T16:11:59Z</time>
      </trkpt>
      <trkpt lat="46.52959942817688" lon="6.740658888593316">
        <ele>723.529999999999973</ele>
        <time>2014-06-14T16:12:00Z</time>
      </trkpt>
      <trkpt lat="46.529615689069033" lon="6.740744384005666">
        <ele>723.049999999999955</ele>
        <time>2014-06-14T16:12:01Z</time>
      </trkpt>
      <trkpt lat="46.529630860313773" lon="6.740832142531872">
        <ele>723.049999999999955</ele>
        <time>2014-06-14T16:12:02Z</time>
      </trkpt>
      <trkpt lat="46.52966296300292" lon="6.741013946011662">
        <ele>722.090000000000032</ele>
        <time>2014-06-14T16:12:04Z</time>
      </trkpt>
      <trkpt lat="46.529691377654672" lon="6.741100111976266">
        <ele>721.610000000000014</ele>
        <time>2014-06-14T16:12:05Z</time>
      </trkpt>
      <trkpt lat="46.529729766771197" lon="6.74117898568511">
        <ele>721.610000000000014</ele>
        <time>2014-06-14T16:12:06Z</time>
      </trkpt>
      <trkpt lat="46.529776956886053" lon="6.741248723119497">
        <ele>721.129999999999995</ele>
        <time>2014-06-14T16:12:07Z</time>
      </trkpt>
      <trkpt lat="46.5298315230757" lon="6.741313682869077">
        <ele>721.129999999999995</ele>
        <time>2014-06-14T16:12:08Z</time>
      </trkpt>
      <trkpt lat="46.530664851889014" lon="6.742177437990904">
        <ele>720.649999999999977</ele>
        <time>2014-06-14T16:12:23Z</time>
      </trkpt>
      <trkpt lat="46.530845900997519" lon="6.742388997226954">
        <ele>721.129999999999995</ele>
        <time>2014-06-14T16:12:27Z</time>
      </trkpt>
      <trkpt lat="46.530880518257618" lon="6.742437444627285">
        <ele>721.610000000000014</ele>
        <time>2014-06-14T16:12:28Z</time>
      </trkpt>
      <trkpt lat="46.531429868191481" lon="6.743137668818235">
        <ele>724.970000000000027</ele>
        <time>2014-06-14T16:12:46Z</time>
      </trkpt>
      <trkpt lat="46.531940074637532" lon="6.743783578276634">
        <ele>724.490000000000009</ele>
        <time>2014-06-14T16:13:03Z</time>
      </trkpt>
      <trkpt lat="46.532572992146015" lon="6.744697373360395">
        <ele>725.450000000000045</ele>
        <time>2014-06-14T16:13:23Z</time>
      </trkpt>
      <trkpt lat="46.532944813370705" lon="6.745451325550675">
        <ele>726.409999999999968</ele>
        <time>2014-06-14T16:13:38Z</time>
      </trkpt>
      <trkpt lat="46.533591477200389" lon="6.746182227507234">
        <ele>722.090000000000032</ele>
        <time>2014-06-14T16:13:50Z</time>
      </trkpt>
      <trkpt lat="46.533923484385014" lon="6.746528148651123">
        <ele>721.610000000000014</ele>
        <time>2014-06-14T16:13:56Z</time>
      </trkpt>
      <trkpt lat="46.534072682261467" lon="6.746649350970984">
        <ele>722.090000000000032</ele>
        <time>2014-06-14T16:13:59Z</time>
      </trkpt>
      <trkpt lat="46.534107634797692" lon="6.746714226901531">
        <ele>722.090000000000032</ele>
        <time>2014-06-14T16:14:00Z</time>
      </trkpt>
      <trkpt lat="46.53412071056664" lon="6.746757226064801">
        <ele>722.090000000000032</ele>
        <time>2014-06-14T16:14:01Z</time>
      </trkpt>
      <trkpt lat="46.534135714173317" lon="6.746832076460123">
        <ele>722.090000000000032</ele>
        <time>2014-06-14T16:14:02Z</time>
      </trkpt>
      <trkpt lat="46.534148203209043" lon="6.746903993189335">
        <ele>721.610000000000014</ele>
        <time>2014-06-14T16:14:03Z</time>
      </trkpt>
      <trkpt lat="46.534158512949944" lon="6.746971048414707">
        <ele>721.129999999999995</ele>
        <time>2014-06-14T16:14:04Z</time>
      </trkpt>
      <trkpt lat="46.534171169623733" lon="6.74703961238265">
        <ele>720.649999999999977</ele>
        <time>2014-06-14T16:14:05Z</time>
      </trkpt>
      <trkpt lat="46.534208133816719" lon="6.747104153037071">
        <ele>720.649999999999977</ele>
        <time>2014-06-14T16:14:06Z</time>
      </trkpt>
      <trkpt lat="46.534244595095515" lon="6.74711630679667">
        <ele>720.159999999999968</ele>
        <time>2014-06-14T16:14:07Z</time>
      </trkpt>
      <trkpt lat="46.534285414963961" lon="6.747129298746586">
        <ele>720.159999999999968</ele>
        <time>2014-06-14T16:14:08Z</time>
      </trkpt>
      <trkpt lat="46.534328078851104" lon="6.747162910178304">
        <ele>720.159999999999968</ele>
        <time>2014-06-14T16:14:09Z</time>
      </trkpt>
      <trkpt lat="46.534366551786661" lon="6.747212279587984">
        <ele>720.159999999999968</ele>
        <time>2014-06-14T16:14:10Z</time>
      </trkpt>
      <trkpt lat="46.534405192360282" lon="6.747267600148916">
        <ele>719.67999999999995</ele>
        <time>2014-06-14T16:14:11Z</time>
      </trkpt>
      <trkpt lat="46.535155037418008" lon="6.748382728546858">
        <ele>718.720000000000027</ele>
        <time>2014-06-14T16:14:27Z</time>
      </trkpt>
      <trkpt lat="46.535841263830662" lon="6.749667003750801">
        <ele>715.360000000000014</ele>
        <time>2014-06-14T16:14:42Z</time>
      </trkpt>
      <trkpt lat="46.535968584939837" lon="6.749997669830918">
        <ele>713.919999999999959</ele>
        <time>2014-06-14T16:14:45Z</time>
      </trkpt>
      <trkpt lat="46.536030191928148" lon="6.750103365629911">
        <ele>713.440000000000055</ele>
        <time>2014-06-14T16:14:46Z</time>
      </trkpt>
      <trkpt lat="46.536096660420299" lon="6.750195315107703">
        <ele>712.950000000000045</ele>
        <time>2014-06-14T16:14:47Z</time>
      </trkpt>
      <trkpt lat="46.536273518577218" lon="6.750440485775471">
        <ele>711.990000000000009</ele>
        <time>2014-06-14T16:14:50Z</time>
      </trkpt>
      <trkpt lat="46.536302519962192" lon="6.750525142997503">
        <ele>711.509999999999991</ele>
        <time>2014-06-14T16:14:51Z</time>
      </trkpt>
      <trkpt lat="46.536314589902759" lon="6.750609716400504">
        <ele>711.990000000000009</ele>
        <time>2014-06-14T16:14:52Z</time>
      </trkpt>
      <trkpt lat="46.536318948492408" lon="6.75069646909833">
        <ele>711.509999999999991</ele>
        <time>2014-06-14T16:14:53Z</time>
      </trkpt>
      <trkpt lat="46.536317272111773" lon="6.75078297033906">
        <ele>711.509999999999991</ele>
        <time>2014-06-14T16:14:54Z</time>
      </trkpt>
      <trkpt lat="46.536318613216281" lon="6.750876596197486">
        <ele>711.509999999999991</ele>
        <time>2014-06-14T16:14:55Z</time>
      </trkpt>
      <trkpt lat="46.536327498033643" lon="6.750975586473942">
        <ele>711.029999999999973</ele>
        <time>2014-06-14T16:14:56Z</time>
      </trkpt>
      <trkpt lat="46.536344597116113" lon="6.751081282272935">
        <ele>710.549999999999955</ele>
        <time>2014-06-14T16:14:57Z</time>
      </trkpt>
      <trkpt lat="46.536398157477379" lon="6.751313544809818">
        <ele>709.110000000000014</ele>
        <time>2014-06-14T16:14:59Z</time>
      </trkpt>
      <trkpt lat="46.536442581564188" lon="6.751427873969078">
        <ele>708.149999999999977</ele>
        <time>2014-06-14T16:15:00Z</time>
      </trkpt>
      <trkpt lat="46.536553725600243" lon="6.751635409891605">
        <ele>706.710000000000036</ele>
        <time>2014-06-14T16:15:02Z</time>
      </trkpt>
      <trkpt lat="46.536616506054997" lon="6.751723671332002">
        <ele>706.230000000000018</ele>
        <time>2014-06-14T16:15:03Z</time>
      </trkpt>
      <trkpt lat="46.536743743345141" lon="6.751876473426819">
        <ele>705.259999999999991</ele>
        <time>2014-06-14T16:15:05Z</time>
      </trkpt>
      <trkpt lat="46.536805685609579" lon="6.751931793987751">
        <ele>705.259999999999991</ele>
        <time>2014-06-14T16:15:06Z</time>
      </trkpt>
      <trkpt lat="46.537263421341777" lon="6.752305626869202">
        <ele>708.149999999999977</ele>
        <time>2014-06-14T16:15:16Z</time>
      </trkpt>
      <trkpt lat="46.537710092961788" lon="6.752861766144633">
        <ele>713.440000000000055</ele>
        <time>2014-06-14T16:15:31Z</time>
      </trkpt>
      <trkpt lat="46.538217701017857" lon="6.753449672833085">
        <ele>716.32000000000005</ele>
        <time>2014-06-14T16:15:48Z</time>
      </trkpt>
      <trkpt lat="46.538413669914007" lon="6.753757875412703">
        <ele>716.32000000000005</ele>
        <time>2014-06-14T16:15:55Z</time>
      </trkpt>
      <trkpt lat="46.539000067859888" lon="6.75442230887711">
        <ele>714.399999999999977</ele>
        <time>2014-06-14T16:16:08Z</time>
      </trkpt>
      <trkpt lat="46.53904415667057" lon="6.754479138180614">
        <ele>714.399999999999977</ele>
        <time>2014-06-14T16:16:09Z</time>
      </trkpt>
      <trkpt lat="46.539085395634174" lon="6.754541331902146">
        <ele>714.399999999999977</ele>
        <time>2014-06-14T16:16:10Z</time>
      </trkpt>
      <trkpt lat="46.539402399212122" lon="6.755052460357547">
        <ele>717.279999999999973</ele>
        <time>2014-06-14T16:16:22Z</time>
      </trkpt>
      <trkpt lat="46.539684114977717" lon="6.755354544147849">
        <ele>719.67999999999995</ele>
        <time>2014-06-14T16:16:37Z</time>
      </trkpt>
      <trkpt lat="46.540123494341969" lon="6.75567070953548">
        <ele>723.049999999999955</ele>
        <time>2014-06-14T16:16:56Z</time>
      </trkpt>
      <trkpt lat="46.540681393817067" lon="6.756084524095058">
        <ele>723.049999999999955</ele>
        <time>2014-06-14T16:17:10Z</time>
      </trkpt>
      <trkpt lat="46.541296793147922" lon="6.756717273965478">
        <ele>723.529999999999973</ele>
        <time>2014-06-14T16:17:25Z</time>
      </trkpt>
      <trkpt lat="46.541338954120874" lon="6.756748706102371">
        <ele>723.529999999999973</ele>
        <time>2014-06-14T16:17:26Z</time>
      </trkpt>
      <trkpt lat="46.541423024609685" lon="6.756799668073654">
        <ele>724.009999999999991</ele>
        <time>2014-06-14T16:17:28Z</time>
      </trkpt>
      <trkpt lat="46.541799372062087" lon="6.756927408277988">
        <ele>726.889999999999986</ele>
        <time>2014-06-14T16:17:40Z</time>
      </trkpt>
      <trkpt lat="46.542178904637694" lon="6.757237119600177">
        <ele>726.889999999999986</ele>
        <time>2014-06-14T16:17:53Z</time>
      </trkpt>
      <trkpt lat="46.542677460238338" lon="6.757260924205184">
        <ele>728.82000000000005</ele>
        <time>2014-06-14T16:18:08Z</time>
      </trkpt>
      <trkpt lat="46.543055735528469" lon="6.757009299471974">
        <ele>731.220000000000027</ele>
        <time>2014-06-14T16:18:22Z</time>
      </trkpt>
      <trkpt lat="46.543610114604235" lon="6.757078114897013">
        <ele>731.700000000000045</ele>
        <time>2014-06-14T16:18:36Z</time>
      </trkpt>
      <trkpt lat="46.543655460700393" lon="6.757083311676979">
        <ele>731.700000000000045</ele>
        <time>2014-06-14T16:18:37Z</time>
      </trkpt>
      <trkpt lat="46.543697034940124" lon="6.757094962522388">
        <ele>731.700000000000045</ele>
        <time>2014-06-14T16:18:38Z</time>
      </trkpt>
      <trkpt lat="46.543737687170506" lon="6.75711072050035">
        <ele>731.700000000000045</ele>
        <time>2014-06-14T16:18:39Z</time>
      </trkpt>
      <trkpt lat="46.544122584164143" lon="6.757302163168788">
        <ele>734.580000000000041</ele>
        <time>2014-06-14T16:18:52Z</time>
      </trkpt>
      <trkpt lat="46.544389044865966" lon="6.757498299703002">
        <ele>739.389999999999986</ele>
        <time>2014-06-14T16:19:08Z</time>
      </trkpt>
      <trkpt lat="46.544706970453262" lon="6.757664093747735">
        <ele>742.279999999999973</ele>
        <time>2014-06-14T16:19:26Z</time>
      </trkpt>
      <trkpt lat="46.545271491631866" lon="6.75758027471602">
        <ele>743.720000000000027</ele>
        <time>2014-06-14T16:19:44Z</time>
      </trkpt>
      <trkpt lat="46.54579209163785" lon="6.757396543398499">
        <ele>746.600000000000023</ele>
        <time>2014-06-14T16:20:01Z</time>
      </trkpt>
      <trkpt lat="46.546159805729985" lon="6.757670799270272">
        <ele>748.039999999999964</ele>
        <time>2014-06-14T16:20:16Z</time>
      </trkpt>
      <trkpt lat="46.546542439609766" lon="6.757929045706987">
        <ele>747.080000000000041</ele>
        <time>2014-06-14T16:20:29Z</time>
      </trkpt>
      <trkpt lat="46.546892719343305" lon="6.757886717095971">
        <ele>747.559999999999945</ele>
        <time>2014-06-14T16:20:38Z</time>
      </trkpt>
      <trkpt lat="46.546934377402067" lon="6.757895685732365">
        <ele>747.559999999999945</ele>
        <time>2014-06-14T16:20:39Z</time>
      </trkpt>
      <trkpt lat="46.546974526718259" lon="6.757912617176771">
        <ele>747.559999999999945</ele>
        <time>2014-06-14T16:20:40Z</time>
      </trkpt>
      <trkpt lat="46.547012245282531" lon="6.757937427610159">
        <ele>747.559999999999945</ele>
        <time>2014-06-14T16:20:41Z</time>
      </trkpt>
      <trkpt lat="46.54704736545682" lon="6.757966009899974">
        <ele>747.559999999999945</ele>
        <time>2014-06-14T16:20:42Z</time>
      </trkpt>
      <trkpt lat="46.547080390155315" lon="6.758001549169421">
        <ele>748.039999999999964</ele>
        <time>2014-06-14T16:20:43Z</time>
      </trkpt>
      <trkpt lat="46.547111151739955" lon="6.758039016276598">
        <ele>748.039999999999964</ele>
        <time>2014-06-14T16:20:44Z</time>
      </trkpt>
      <trkpt lat="46.547139985486865" lon="6.758077908307314">
        <ele>747.559999999999945</ele>
        <time>2014-06-14T16:20:45Z</time>
      </trkpt>
      <trkpt lat="46.547340899705887" lon="6.758335484191775">
        <ele>748.039999999999964</ele>
        <time>2014-06-14T16:20:52Z</time>
      </trkpt>
      <trkpt lat="46.547369146719575" lon="6.758381249383092">
        <ele>748.039999999999964</ele>
        <time>2014-06-14T16:20:53Z</time>
      </trkpt>
      <trkpt lat="46.547396387904882" lon="6.758429780602455">
        <ele>748.039999999999964</ele>
        <time>2014-06-14T16:20:54Z</time>
      </trkpt>
      <trkpt lat="46.547425640746951" lon="6.75847495906055">
        <ele>748.039999999999964</ele>
        <time>2014-06-14T16:20:55Z</time>
      </trkpt>
      <trkpt lat="46.547458749264479" lon="6.758517790585756">
        <ele>748.039999999999964</ele>
        <time>2014-06-14T16:20:56Z</time>
      </trkpt>
      <trkpt lat="46.547494456171989" lon="6.758557436987758">
        <ele>748.519999999999982</ele>
        <time>2014-06-14T16:20:57Z</time>
      </trkpt>
      <trkpt lat="46.547982450574636" lon="6.759313400834799">
        <ele>747.080000000000041</ele>
        <time>2014-06-14T16:21:13Z</time>
      </trkpt>
      <trkpt lat="46.548385033383965" lon="6.760250916704535">
        <ele>741.309999999999945</ele>
        <time>2014-06-14T16:21:24Z</time>
      </trkpt>
      <trkpt lat="46.548431804403663" lon="6.760321240872145">
        <ele>740.350000000000023</ele>
        <time>2014-06-14T16:21:25Z</time>
      </trkpt>
      <trkpt lat="46.548483436927199" lon="6.760378237813711">
        <ele>739.389999999999986</ele>
        <time>2014-06-14T16:21:26Z</time>
      </trkpt>
      <trkpt lat="46.548532973974943" lon="6.760418051853776">
        <ele>738.909999999999968</ele>
        <time>2014-06-14T16:21:27Z</time>
      </trkpt>
      <trkpt lat="46.548575386404991" lon="6.760449064895511">
        <ele>737.950000000000045</ele>
        <time>2014-06-14T16:21:28Z</time>
      </trkpt>
      <trkpt lat="46.548604974523187" lon="6.760481167584658">
        <ele>737.470000000000027</ele>
        <time>2014-06-14T16:21:29Z</time>
      </trkpt>
      <trkpt lat="46.54862416908145" lon="6.76050765439868">
        <ele>736.990000000000009</ele>
        <time>2014-06-14T16:21:30Z</time>
      </trkpt>
      <trkpt lat="46.54863934032619" lon="6.760526597499847">
        <ele>736.509999999999991</ele>
        <time>2014-06-14T16:21:31Z</time>
      </trkpt>
      <trkpt lat="46.54864763841033" lon="6.760542271658778">
        <ele>736.029999999999973</ele>
        <time>2014-06-14T16:21:32Z</time>
      </trkpt>
      <trkpt lat="46.548652667552233" lon="6.760558113455772">
        <ele>735.549999999999955</ele>
        <time>2014-06-14T16:21:33Z</time>
      </trkpt>
      <trkpt lat="46.548652835190296" lon="6.760583091527224">
        <ele>735.07000000000005</ele>
        <time>2014-06-14T16:21:34Z</time>
      </trkpt>
      <trkpt lat="46.548648392781615" lon="6.760615361854434">
        <ele>735.07000000000005</ele>
        <time>2014-06-14T16:21:35Z</time>
      </trkpt>
      <trkpt lat="46.548646548762918" lon="6.760655008256435">
        <ele>735.07000000000005</ele>
        <time>2014-06-14T16:21:36Z</time>
      </trkpt>
      <trkpt lat="46.548643698915839" lon="6.760694654658437">
        <ele>735.07000000000005</ele>
        <time>2014-06-14T16:21:37Z</time>
      </trkpt>
      <trkpt lat="46.548640681430697" lon="6.760732037946582">
        <ele>735.549999999999955</ele>
        <time>2014-06-14T16:21:38Z</time>
      </trkpt>
      <trkpt lat="46.548640513792634" lon="6.760766403749585">
        <ele>736.029999999999973</ele>
        <time>2014-06-14T16:21:39Z</time>
      </trkpt>
      <trkpt lat="46.548644034191966" lon="6.760795321315527">
        <ele>736.029999999999973</ele>
        <time>2014-06-14T16:21:40Z</time>
      </trkpt>
      <trkpt lat="46.548665408045053" lon="6.76088735461235">
        <ele>739.389999999999986</ele>
        <time>2014-06-14T16:21:49Z</time>
      </trkpt>
      <trkpt lat="46.548738833516836" lon="6.761086424812675">
        <ele>745.639999999999986</ele>
        <time>2014-06-14T16:22:06Z</time>
      </trkpt>
      <trkpt lat="46.548764649778605" lon="6.761181391775608">
        <ele>747.559999999999945</ele>
        <time>2014-06-14T16:22:17Z</time>
      </trkpt>
      <trkpt lat="46.548786191269755" lon="6.761350370943546">
        <ele>749.970000000000027</ele>
        <time>2014-06-14T16:22:26Z</time>
      </trkpt>
      <trkpt lat="46.548810666427016" lon="6.761358417570591">
        <ele>749.970000000000027</ele>
        <time>2014-06-14T16:22:27Z</time>
      </trkpt>
      <trkpt lat="46.549208974465728" lon="6.761511890217662">
        <ele>749.490000000000009</ele>
        <time>2014-06-14T16:22:42Z</time>
      </trkpt>
      <trkpt lat="46.549659250304103" lon="6.761913802474737">
        <ele>751.889999999999986</ele>
        <time>2014-06-14T16:23:02Z</time>
      </trkpt>
      <trkpt lat="46.549976505339146" lon="6.762217143550515">
        <ele>754.769999999999982</ele>
        <time>2014-06-14T16:23:20Z</time>
      </trkpt>
      <trkpt lat="46.550246234983206" lon="6.762508079409599">
        <ele>758.620000000000005</ele>
        <time>2014-06-14T16:23:37Z</time>
      </trkpt>
      <trkpt lat="46.550510348752141" lon="6.762923570349813">
        <ele>761.980000000000018</ele>
        <time>2014-06-14T16:23:57Z</time>
      </trkpt>
      <trkpt lat="46.550762057304382" lon="6.763293631374836">
        <ele>765.830000000000041</ele>
        <time>2014-06-14T16:24:14Z</time>
      </trkpt>
      <trkpt lat="46.551032206043601" lon="6.763648521155119">
        <ele>769.669999999999959</ele>
        <time>2014-06-14T16:24:32Z</time>
      </trkpt>
      <trkpt lat="46.55128475278616" lon="6.763959573581815">
        <ele>772.080000000000041</ele>
        <time>2014-06-14T16:24:47Z</time>
      </trkpt>
      <trkpt lat="46.551582394167781" lon="6.764312032610178">
        <ele>775.440000000000055</ele>
        <time>2014-06-14T16:25:05Z</time>
      </trkpt>
      <trkpt lat="46.551831923425198" lon="6.764589054509997">
        <ele>781.210000000000036</ele>
        <time>2014-06-14T16:25:21Z</time>
      </trkpt>
      <trkpt lat="46.552080614492297" lon="6.764853755012155">
        <ele>780.730000000000018</ele>
        <time>2014-06-14T16:25:36Z</time>
      </trkpt>
      <trkpt lat="46.552416728809476" lon="6.765260612592101">
        <ele>781.690000000000055</ele>
        <time>2014-06-14T16:25:54Z</time>
      </trkpt>
      <trkpt lat="46.55263289809227" lon="6.765830079093575">
        <ele>783.610000000000014</ele>
        <time>2014-06-14T16:26:10Z</time>
      </trkpt>
      <trkpt lat="46.5527452994138" lon="6.766323940828443">
        <ele>786.5</ele>
        <time>2014-06-14T16:26:24Z</time>
      </trkpt>
      <trkpt lat="46.553078228607774" lon="6.766873290762305">
        <ele>788.419999999999959</ele>
        <time>2014-06-14T16:26:43Z</time>
      </trkpt>
      <trkpt lat="46.553485002368689" lon="6.767485588788986">
        <ele>789.379999999999995</ele>
        <time>2014-06-14T16:27:00Z</time>
      </trkpt>
      <trkpt lat="46.553828157484531" lon="6.76798322238028">
        <ele>791.779999999999973</ele>
        <time>2014-06-14T16:27:12Z</time>
      </trkpt>
      <trkpt lat="46.553859086707234" lon="6.768029658123851">
        <ele>791.779999999999973</ele>
        <time>2014-06-14T16:27:13Z</time>
      </trkpt>
      <trkpt lat="46.553956735879183" lon="6.768189836293459">
        <ele>791.299999999999955</ele>
        <time>2014-06-14T16:27:16Z</time>
      </trkpt>
      <trkpt lat="46.553992861881852" lon="6.768242893740535">
        <ele>791.299999999999955</ele>
        <time>2014-06-14T16:27:17Z</time>
      </trkpt>
      <trkpt lat="46.554206013679504" lon="6.768568446859717">
        <ele>791.299999999999955</ele>
        <time>2014-06-14T16:27:23Z</time>
      </trkpt>
      <trkpt lat="46.55424389988184" lon="6.768620666116476">
        <ele>791.299999999999955</ele>
        <time>2014-06-14T16:27:24Z</time>
      </trkpt>
      <trkpt lat="46.55454246327281" lon="6.769070606678724">
        <ele>792.740000000000009</ele>
        <time>2014-06-14T16:27:32Z</time>
      </trkpt>
      <trkpt lat="46.554869441315532" lon="6.769947772845626">
        <ele>792.259999999999991</ele>
        <time>2014-06-14T16:27:44Z</time>
      </trkpt>
      <trkpt lat="46.554903220385313" lon="6.770193446427584">
        <ele>791.779999999999973</ele>
        <time>2014-06-14T16:27:47Z</time>
      </trkpt>
      <trkpt lat="46.554914116859436" lon="6.770276511088014">
        <ele>791.779999999999973</ele>
        <time>2014-06-14T16:27:48Z</time>
      </trkpt>
      <trkpt lat="46.554934736341238" lon="6.770510533824563">
        <ele>791.779999999999973</ele>
        <time>2014-06-14T16:27:51Z</time>
      </trkpt>
      <trkpt lat="46.554947393015027" lon="6.770575409755111">
        <ele>791.779999999999973</ele>
        <time>2014-06-14T16:27:52Z</time>
      </trkpt>
      <trkpt lat="46.554963318631053" lon="6.770634166896343">
        <ele>792.259999999999991</ele>
        <time>2014-06-14T16:27:53Z</time>
      </trkpt>
      <trkpt lat="46.554983435198665" lon="6.770684793591499">
        <ele>792.259999999999991</ele>
        <time>2014-06-14T16:27:54Z</time>
      </trkpt>
      <trkpt lat="46.555006904527545" lon="6.770729385316372">
        <ele>792.259999999999991</ele>
        <time>2014-06-14T16:27:55Z</time>
      </trkpt>
      <trkpt lat="46.55502911657095" lon="6.7707728035748">
        <ele>792.259999999999991</ele>
        <time>2014-06-14T16:27:56Z</time>
      </trkpt>
      <trkpt lat="46.555050574243069" lon="6.77081529982388">
        <ele>791.779999999999973</ele>
        <time>2014-06-14T16:27:57Z</time>
      </trkpt>
      <trkpt lat="46.555071026086807" lon="6.770856957882643">
        <ele>791.779999999999973</ele>
        <time>2014-06-14T16:27:58Z</time>
      </trkpt>
      <trkpt lat="46.555355172604322" lon="6.77151208743453">
        <ele>794.669999999999959</ele>
        <time>2014-06-14T16:28:13Z</time>
      </trkpt>
      <trkpt lat="46.555511998012662" lon="6.772228069603443">
        <ele>796.590000000000032</ele>
        <time>2014-06-14T16:28:27Z</time>
      </trkpt>
      <trkpt lat="46.555607384070754" lon="6.772624114528298">
        <ele>796.590000000000032</ele>
        <time>2014-06-14T16:28:34Z</time>
      </trkpt>
      <trkpt lat="46.55561794526875" lon="6.772686559706926">
        <ele>796.110000000000014</ele>
        <time>2014-06-14T16:28:35Z</time>
      </trkpt>
      <trkpt lat="46.555633535608649" lon="6.772746993228793">
        <ele>796.110000000000014</ele>
        <time>2014-06-14T16:28:36Z</time>
      </trkpt>
      <trkpt lat="46.555775357410312" lon="6.773195508867502">
        <ele>794.669999999999959</ele>
        <time>2014-06-14T16:28:43Z</time>
      </trkpt>
      <trkpt lat="46.555800084024668" lon="6.773265916854143">
        <ele>794.669999999999959</ele>
        <time>2014-06-14T16:28:44Z</time>
      </trkpt>
      <trkpt lat="46.555895218625665" lon="6.773600438609719">
        <ele>793.710000000000036</ele>
        <time>2014-06-14T16:28:48Z</time>
      </trkpt>
      <trkpt lat="46.55592187307775" lon="6.773691885173321">
        <ele>793.220000000000027</ele>
        <time>2014-06-14T16:28:49Z</time>
      </trkpt>
      <trkpt lat="46.556258238852024" lon="6.774903321638703">
        <ele>788.899999999999977</ele>
        <time>2014-06-14T16:29:03Z</time>
      </trkpt>
      <trkpt lat="46.556274835020304" lon="6.77497448399663">
        <ele>788.899999999999977</ele>
        <time>2014-06-14T16:29:04Z</time>
      </trkpt>
      <trkpt lat="46.556325126439333" lon="6.775182355195284">
        <ele>789.860000000000014</ele>
        <time>2014-06-14T16:29:07Z</time>
      </trkpt>
      <trkpt lat="46.556350355967879" lon="6.775244800373912">
        <ele>789.860000000000014</ele>
        <time>2014-06-14T16:29:08Z</time>
      </trkpt>
      <trkpt lat="46.556461919099092" lon="6.775476392358541">
        <ele>791.299999999999955</ele>
        <time>2014-06-14T16:29:12Z</time>
      </trkpt>
      <trkpt lat="46.55657272785902" lon="6.775618381798267">
        <ele>791.779999999999973</ele>
        <time>2014-06-14T16:29:15Z</time>
      </trkpt>
      <trkpt lat="46.557260463014245" lon="6.776452548801899">
        <ele>793.220000000000027</ele>
        <time>2014-06-14T16:29:31Z</time>
      </trkpt>
      <trkpt lat="46.557615017518401" lon="6.776944901794195">
        <ele>794.669999999999959</ele>
        <time>2014-06-14T16:29:40Z</time>
      </trkpt>
      <trkpt lat="46.557642845436931" lon="6.776996115222573">
        <ele>794.669999999999959</ele>
        <time>2014-06-14T16:29:41Z</time>
      </trkpt>
      <trkpt lat="46.557668577879667" lon="6.777042718604207">
        <ele>794.669999999999959</ele>
        <time>2014-06-14T16:29:42Z</time>
      </trkpt>
      <trkpt lat="46.557695148512721" lon="6.777092423290014">
        <ele>795.149999999999977</ele>
        <time>2014-06-14T16:29:43Z</time>
      </trkpt>
      <trkpt lat="46.557727502658963" lon="6.777142882347107">
        <ele>795.629999999999995</ele>
        <time>2014-06-14T16:29:44Z</time>
      </trkpt>
      <trkpt lat="46.557928584516048" lon="6.77748067304492">
        <ele>798.990000000000009</ele>
        <time>2014-06-14T16:29:50Z</time>
      </trkpt>
      <trkpt lat="46.557997902855277" lon="6.777586620301008">
        <ele>799.950000000000045</ele>
        <time>2014-06-14T16:29:52Z</time>
      </trkpt>
      <trkpt lat="46.558032101020217" lon="6.777637246996164">
        <ele>799.950000000000045</ele>
        <time>2014-06-14T16:29:53Z</time>
      </trkpt>
      <trkpt lat="46.558061856776476" lon="6.777689466252923">
        <ele>799.950000000000045</ele>
        <time>2014-06-14T16:29:54Z</time>
      </trkpt>
      <trkpt lat="46.558198817074299" lon="6.777945030480623">
        <ele>800.440000000000055</ele>
        <time>2014-06-14T16:30:01Z</time>
      </trkpt>
      <trkpt lat="46.558219268918037" lon="6.7779600340873">
        <ele>800.440000000000055</ele>
        <time>2014-06-14T16:30:02Z</time>
      </trkpt>
      <trkpt lat="46.558320857584476" lon="6.777956765145063">
        <ele>803.32000000000005</ele>
        <time>2014-06-14T16:30:06Z</time>
      </trkpt>
      <trkpt lat="46.558336112648249" lon="6.777937989681959">
        <ele>803.799999999999955</ele>
        <time>2014-06-14T16:30:07Z</time>
      </trkpt>
      <trkpt lat="46.55835279263556" lon="6.777912424877286">
        <ele>804.279999999999973</ele>
        <time>2014-06-14T16:30:08Z</time>
      </trkpt>
      <trkpt lat="46.558404425159097" lon="6.777839167043567">
        <ele>805.720000000000027</ele>
        <time>2014-06-14T16:30:10Z</time>
      </trkpt>
      <trkpt lat="46.558781191706657" lon="6.777570191770792">
        <ele>811.970000000000027</ele>
        <time>2014-06-14T16:30:21Z</time>
      </trkpt>
      <trkpt lat="46.559076569974422" lon="6.777503807097673">
        <ele>817.740000000000009</ele>
        <time>2014-06-14T16:30:32Z</time>
      </trkpt>
      <trkpt lat="46.559429029002786" lon="6.777459131553769">
        <ele>821.580000000000041</ele>
        <time>2014-06-14T16:30:43Z</time>
      </trkpt>
      <trkpt lat="46.559921633452177" lon="6.777469106018543">
        <ele>826.389999999999986</ele>
        <time>2014-06-14T16:30:54Z</time>
      </trkpt>
      <trkpt lat="46.560124224051833" lon="6.777492659166455">
        <ele>826.870000000000005</ele>
        <time>2014-06-14T16:30:57Z</time>
      </trkpt>
      <trkpt lat="46.560194799676538" lon="6.777511099353433">
        <ele>826.870000000000005</ele>
        <time>2014-06-14T16:30:58Z</time>
      </trkpt>
      <trkpt lat="46.560448268428445" lon="6.77762920036912">
        <ele>826.870000000000005</ele>
        <time>2014-06-14T16:31:02Z</time>
      </trkpt>
      <trkpt lat="46.560506606474519" lon="6.77764043211937">
        <ele>826.870000000000005</ele>
        <time>2014-06-14T16:31:03Z</time>
      </trkpt>
      <trkpt lat="46.560561759397388" lon="6.77763557061553">
        <ele>826.389999999999986</ele>
        <time>2014-06-14T16:31:04Z</time>
      </trkpt>
      <trkpt lat="46.560613727197051" lon="6.777611011639237">
        <ele>826.389999999999986</ele>
        <time>2014-06-14T16:31:05Z</time>
      </trkpt>
      <trkpt lat="46.560671562328935" lon="6.777574298903346">
        <ele>825.909999999999968</ele>
        <time>2014-06-14T16:31:06Z</time>
      </trkpt>
      <trkpt lat="46.560842804610729" lon="6.777506154030561">
        <ele>823.990000000000009</ele>
        <time>2014-06-14T16:31:13Z</time>
      </trkpt>
      <trkpt lat="46.560988230630755" lon="6.77744991146028">
        <ele>819.17999999999995</ele>
        <time>2014-06-14T16:31:36Z</time>
      </trkpt>
      <trkpt lat="46.561033576726913" lon="6.777393165975809">
        <ele>816.299999999999955</ele>
        <time>2014-06-14T16:31:47Z</time>
      </trkpt>
      <trkpt lat="46.561084873974323" lon="6.777379168197513">
        <ele>816.779999999999973</ele>
        <time>2014-06-14T16:31:59Z</time>
      </trkpt>
      <trkpt lat="46.561095770448446" lon="6.777364667505026">
        <ele>816.779999999999973</ele>
        <time>2014-06-14T16:32:00Z</time>
      </trkpt>
      <trkpt lat="46.561103817075491" lon="6.777351005002856">
        <ele>816.779999999999973</ele>
        <time>2014-06-14T16:32:01Z</time>
      </trkpt>
      <trkpt lat="46.561112198978662" lon="6.777340276166797">
        <ele>816.779999999999973</ele>
        <time>2014-06-14T16:32:02Z</time>
      </trkpt>
      <trkpt lat="46.561122760176659" lon="6.777330804616213">
        <ele>816.779999999999973</ele>
        <time>2014-06-14T16:32:03Z</time>
      </trkpt>
      <trkpt lat="46.561134830117226" lon="6.777320159599185">
        <ele>816.779999999999973</ele>
        <time>2014-06-14T16:32:04Z</time>
      </trkpt>
      <trkpt lat="46.561150588095188" lon="6.777305575087667">
        <ele>816.779999999999973</ele>
        <time>2014-06-14T16:32:05Z</time>
      </trkpt>
      <trkpt lat="46.561165088787675" lon="6.777288559824228">
        <ele>816.779999999999973</ele>
        <time>2014-06-14T16:32:06Z</time>
      </trkpt>
      <trkpt lat="46.561177996918559" lon="6.777274729683995">
        <ele>816.779999999999973</ele>
        <time>2014-06-14T16:32:07Z</time>
      </trkpt>
      <trkpt lat="46.561189647763968" lon="6.777255870401859">
        <ele>816.779999999999973</ele>
        <time>2014-06-14T16:32:08Z</time>
      </trkpt>
      <trkpt lat="46.561200544238091" lon="6.777237011119723">
        <ele>816.779999999999973</ele>
        <time>2014-06-14T16:32:09Z</time>
      </trkpt>
      <trkpt lat="46.56141109764576" lon="6.777029726654291">
        <ele>818.220000000000027</ele>
        <time>2014-06-14T16:32:23Z</time>
      </trkpt>
      <trkpt lat="46.561588710173965" lon="6.776817245408893">
        <ele>821.100000000000023</ele>
        <time>2014-06-14T16:32:35Z</time>
      </trkpt>
      <trkpt lat="46.561809740960598" lon="6.776454309001565">
        <ele>821.100000000000023</ele>
        <time>2014-06-14T16:32:47Z</time>
      </trkpt>
      <trkpt lat="46.562119787558913" lon="6.776251718401909">
        <ele>821.100000000000023</ele>
        <time>2014-06-14T16:32:57Z</time>
      </trkpt>
      <trkpt lat="46.562231099233031" lon="6.776341991499066">
        <ele>820.139999999999986</ele>
        <time>2014-06-14T16:33:00Z</time>
      </trkpt>
      <trkpt lat="46.562270661816001" lon="6.776386834681034">
        <ele>819.659999999999968</ele>
        <time>2014-06-14T16:33:01Z</time>
      </trkpt>
      <trkpt lat="46.562916738912463" lon="6.777089238166809">
        <ele>813.409999999999968</ele>
        <time>2014-06-14T16:33:13Z</time>
      </trkpt>
      <trkpt lat="46.564024826511741" lon="6.778285168111324">
        <ele>799.950000000000045</ele>
        <time>2014-06-14T16:33:28Z</time>
      </trkpt>
      <trkpt lat="46.564082242548466" lon="6.778352139517665">
        <ele>798.990000000000009</ele>
        <time>2014-06-14T16:33:29Z</time>
      </trkpt>
      <trkpt lat="46.564172096550465" lon="6.778462361544371">
        <ele>798.029999999999973</ele>
        <time>2014-06-14T16:33:31Z</time>
      </trkpt>
      <trkpt lat="46.564209647476673" lon="6.778485411778092">
        <ele>797.549999999999955</ele>
        <time>2014-06-14T16:33:32Z</time>
      </trkpt>
      <trkpt lat="46.564241163432598" lon="6.778479628264904">
        <ele>796.590000000000032</ele>
        <time>2014-06-14T16:33:33Z</time>
      </trkpt>
      <trkpt lat="46.56426228582859" lon="6.77845548838377">
        <ele>796.110000000000014</ele>
        <time>2014-06-14T16:33:34Z</time>
      </trkpt>
      <trkpt lat="46.564270835369825" lon="6.778437467291951">
        <ele>795.629999999999995</ele>
        <time>2014-06-14T16:33:35Z</time>
      </trkpt>
      <trkpt lat="46.564278462901711" lon="6.778416512534022">
        <ele>795.629999999999995</ele>
        <time>2014-06-14T16:33:36Z</time>
      </trkpt>
      <trkpt lat="46.564308805391192" lon="6.7783088888973">
        <ele>795.149999999999977</ele>
        <time>2014-06-14T16:33:45Z</time>
      </trkpt>
      <trkpt lat="46.564537966623902" lon="6.777831623330712">
        <ele>795.629999999999995</ele>
        <time>2014-06-14T16:33:57Z</time>
      </trkpt>
      <trkpt lat="46.564563866704702" lon="6.77778510376811">
        <ele>795.629999999999995</ele>
        <time>2014-06-14T16:33:58Z</time>
      </trkpt>
      <trkpt lat="46.564690936356783" lon="6.777566922828555">
        <ele>794.669999999999959</ele>
        <time>2014-06-14T16:34:02Z</time>
      </trkpt>
      <trkpt lat="46.564764613285661" lon="6.777472123503685">
        <ele>794.669999999999959</ele>
        <time>2014-06-14T16:34:04Z</time>
      </trkpt>
      <trkpt lat="46.564795542508364" lon="6.777422921732068">
        <ele>795.149999999999977</ele>
        <time>2014-06-14T16:34:05Z</time>
      </trkpt>
      <trkpt lat="46.564849773421884" lon="6.777322422713041">
        <ele>795.629999999999995</ele>
        <time>2014-06-14T16:34:07Z</time>
      </trkpt>
      <trkpt lat="46.564875841140747" lon="6.777271125465631">
        <ele>795.629999999999995</ele>
        <time>2014-06-14T16:34:08Z</time>
      </trkpt>
      <trkpt lat="46.564998803660274" lon="6.776986056938767">
        <ele>794.669999999999959</ele>
        <time>2014-06-14T16:34:12Z</time>
      </trkpt>
      <trkpt lat="46.565035600215197" lon="6.776908608153462">
        <ele>794.190000000000055</ele>
        <time>2014-06-14T16:34:13Z</time>
      </trkpt>
      <trkpt lat="46.565190078690648" lon="6.776453051716089">
        <ele>790.82000000000005</ele>
        <time>2014-06-14T16:34:18Z</time>
      </trkpt>
      <trkpt lat="46.565202148631215" lon="6.776377530768514">
        <ele>790.340000000000032</ele>
        <time>2014-06-14T16:34:19Z</time>
      </trkpt>
      <trkpt lat="46.565212961286306" lon="6.7763143312186">
        <ele>789.860000000000014</ele>
        <time>2014-06-14T16:34:20Z</time>
      </trkpt>
      <trkpt lat="46.565226288512349" lon="6.776209641247988">
        <ele>789.379999999999995</ele>
        <time>2014-06-14T16:34:22Z</time>
      </trkpt>
      <trkpt lat="46.565199298784137" lon="6.776178376749158">
        <ele>788.899999999999977</ele>
        <time>2014-06-14T16:34:23Z</time>
      </trkpt>
      <trkpt lat="46.565159484744072" lon="6.776174353435636">
        <ele>788.899999999999977</ele>
        <time>2014-06-14T16:34:24Z</time>
      </trkpt>
      <trkpt lat="46.565088154748082" lon="6.776163205504417">
        <ele>788.419999999999959</ele>
        <time>2014-06-14T16:34:26Z</time>
      </trkpt>
      <trkpt lat="46.565041551366448" lon="6.776142669841647">
        <ele>788.419999999999959</ele>
        <time>2014-06-14T16:34:27Z</time>
      </trkpt>
      <trkpt lat="46.564995953813195" lon="6.776117105036974">
        <ele>787.940000000000055</ele>
        <time>2014-06-14T16:34:28Z</time>
      </trkpt>
      <trkpt lat="46.56475723721087" lon="6.775919208303094">
        <ele>786.980000000000018</ele>
        <time>2014-06-14T16:34:33Z</time>
      </trkpt>
      <trkpt lat="46.564139323309064" lon="6.775192078202963">
        <ele>783.610000000000014</ele>
        <time>2014-06-14T16:34:46Z</time>
      </trkpt>
      <trkpt lat="46.563541106879711" lon="6.774337543174624">
        <ele>779.769999999999982</ele>
        <time>2014-06-14T16:34:58Z</time>
      </trkpt>
      <trkpt lat="46.562862005084753" lon="6.773482002317905">
        <ele>779.289999999999964</ele>
        <time>2014-06-14T16:35:12Z</time>
      </trkpt>
      <trkpt lat="46.562818000093102" lon="6.773429783061147">
        <ele>779.769999999999982</ele>
        <time>2014-06-14T16:35:13Z</time>
      </trkpt>
      <trkpt lat="46.562778521329165" lon="6.773371528834105">
        <ele>779.769999999999982</ele>
        <time>2014-06-14T16:35:14Z</time>
      </trkpt>
      <trkpt lat="46.562739461660385" lon="6.773308496922255">
        <ele>779.769999999999982</ele>
        <time>2014-06-14T16:35:15Z</time>
      </trkpt>
      <trkpt lat="46.562697468325496" lon="6.773249236866832">
        <ele>779.769999999999982</ele>
        <time>2014-06-14T16:35:16Z</time>
      </trkpt>
      <trkpt lat="46.562504265457392" lon="6.77294765599072">
        <ele>779.769999999999982</ele>
        <time>2014-06-14T16:35:21Z</time>
      </trkpt>
      <trkpt lat="46.562471576035023" lon="6.772882780060172">
        <ele>779.289999999999964</ele>
        <time>2014-06-14T16:35:22Z</time>
      </trkpt>
      <trkpt lat="46.562229171395302" lon="6.772391432896256">
        <ele>776.879999999999995</ele>
        <time>2014-06-14T16:35:29Z</time>
      </trkpt>
      <trkpt lat="46.562052061781287" lon="6.772080296650529">
        <ele>775.440000000000055</ele>
        <time>2014-06-14T16:35:33Z</time>
      </trkpt>
      <trkpt lat="46.562018115073442" lon="6.771986754611135">
        <ele>775.440000000000055</ele>
        <time>2014-06-14T16:35:34Z</time>
      </trkpt>
      <trkpt lat="46.561641851440072" lon="6.770891826599836">
        <ele>772.559999999999945</ele>
        <time>2014-06-14T16:35:45Z</time>
      </trkpt>
      <trkpt lat="46.56127480790019" lon="6.770140724256635">
        <ele>772.080000000000041</ele>
        <time>2014-06-14T16:35:56Z</time>
      </trkpt>
      <trkpt lat="46.561242621392012" lon="6.7700838111341">
        <ele>772.080000000000041</ele>
        <time>2014-06-14T16:35:57Z</time>
      </trkpt>
      <trkpt lat="46.561207333579659" lon="6.77003251388669">
        <ele>772.080000000000041</ele>
        <time>2014-06-14T16:35:58Z</time>
      </trkpt>
      <trkpt lat="46.56117657199502" lon="6.769978031516075">
        <ele>772.080000000000041</ele>
        <time>2014-06-14T16:35:59Z</time>
      </trkpt>
      <trkpt lat="46.56114581041038" lon="6.76992304623127">
        <ele>772.559999999999945</ele>
        <time>2014-06-14T16:36:00Z</time>
      </trkpt>
      <trkpt lat="46.56111110933125" lon="6.769867558032274">
        <ele>772.559999999999945</ele>
        <time>2014-06-14T16:36:01Z</time>
      </trkpt>
      <trkpt lat="46.56107883900404" lon="6.769808381795883">
        <ele>772.559999999999945</ele>
        <time>2014-06-14T16:36:02Z</time>
      </trkpt>
      <trkpt lat="46.561050424352288" lon="6.769744595512748">
        <ele>772.559999999999945</ele>
        <time>2014-06-14T16:36:03Z</time>
      </trkpt>
      <trkpt lat="46.561026452109218" lon="6.769679468125105">
        <ele>772.559999999999945</ele>
        <time>2014-06-14T16:36:04Z</time>
      </trkpt>
      <trkpt lat="46.560915391892195" lon="6.769289039075375">
        <ele>773.039999999999964</ele>
        <time>2014-06-14T16:36:09Z</time>
      </trkpt>
      <trkpt lat="46.560886558145285" lon="6.769204549491405">
        <ele>773.039999999999964</ele>
        <time>2014-06-14T16:36:10Z</time>
      </trkpt>
      <trkpt lat="46.56086384318769" lon="6.769104637205601">
        <ele>773.039999999999964</ele>
        <time>2014-06-14T16:36:11Z</time>
      </trkpt>
      <trkpt lat="46.56083308160305" lon="6.769016543403268">
        <ele>773.039999999999964</ele>
        <time>2014-06-14T16:36:12Z</time>
      </trkpt>
      <trkpt lat="46.560788489878178" lon="6.768940100446343">
        <ele>773.039999999999964</ele>
        <time>2014-06-14T16:36:13Z</time>
      </trkpt>
      <trkpt lat="46.560732834041119" lon="6.768875308334827">
        <ele>772.559999999999945</ele>
        <time>2014-06-14T16:36:14Z</time>
      </trkpt>
      <trkpt lat="46.560668628662825" lon="6.768818814307451">
        <ele>772.080000000000041</ele>
        <time>2014-06-14T16:36:15Z</time>
      </trkpt>
      <trkpt lat="46.560600819066167" lon="6.768769361078739">
        <ele>772.080000000000041</ele>
        <time>2014-06-14T16:36:16Z</time>
      </trkpt>
      <trkpt lat="46.559780817478895" lon="6.76820358261466">
        <ele>767.75</ele>
        <time>2014-06-14T16:36:28Z</time>
      </trkpt>
      <trkpt lat="46.558892754837871" lon="6.767550045624375">
        <ele>763.899999999999977</ele>
        <time>2014-06-14T16:36:43Z</time>
      </trkpt>
      <trkpt lat="46.558850929141045" lon="6.767520876601338">
        <ele>763.899999999999977</ele>
        <time>2014-06-14T16:36:44Z</time>
      </trkpt>
      <trkpt lat="46.558813210576773" lon="6.767476033419371">
        <ele>763.899999999999977</ele>
        <time>2014-06-14T16:36:45Z</time>
      </trkpt>
      <trkpt lat="46.558786137029529" lon="6.767407050356269">
        <ele>763.899999999999977</ele>
        <time>2014-06-14T16:36:46Z</time>
      </trkpt>
      <trkpt lat="46.558776581659913" lon="6.767355669289827">
        <ele>763.419999999999959</ele>
        <time>2014-06-14T16:36:47Z</time>
      </trkpt>
      <trkpt lat="46.558775408193469" lon="6.767280986532569">
        <ele>762.940000000000055</ele>
        <time>2014-06-14T16:36:48Z</time>
      </trkpt>
      <trkpt lat="46.558787394315004" lon="6.767215691506863">
        <ele>762.940000000000055</ele>
        <time>2014-06-14T16:36:49Z</time>
      </trkpt>
      <trkpt lat="46.558816311880946" lon="6.767150899395347">
        <ele>762.460000000000036</ele>
        <time>2014-06-14T16:36:50Z</time>
      </trkpt>
      <trkpt lat="46.558856461197138" lon="6.767091304063797">
        <ele>761.980000000000018</ele>
        <time>2014-06-14T16:36:51Z</time>
      </trkpt>
      <trkpt lat="46.558897951617837" lon="6.767039922997355">
        <ele>761.5</ele>
        <time>2014-06-14T16:36:52Z</time>
      </trkpt>
      <trkpt lat="46.558943632990122" lon="6.766989380121231">
        <ele>761.019999999999982</ele>
        <time>2014-06-14T16:36:53Z</time>
      </trkpt>
      <trkpt lat="46.558987218886614" lon="6.766932886093855">
        <ele>761.019999999999982</ele>
        <time>2014-06-14T16:36:54Z</time>
      </trkpt>
      <trkpt lat="46.559027871116996" lon="6.766870273277164">
        <ele>760.539999999999964</ele>
        <time>2014-06-14T16:36:55Z</time>
      </trkpt>
      <trkpt lat="46.559065422043204" lon="6.766802966594696">
        <ele>760.059999999999945</ele>
        <time>2014-06-14T16:36:56Z</time>
      </trkpt>
      <trkpt lat="46.559099284932017" lon="6.766731636598706">
        <ele>759.580000000000041</ele>
        <time>2014-06-14T16:36:57Z</time>
      </trkpt>
      <trkpt lat="46.559128453955054" lon="6.766654355451465">
        <ele>759.580000000000041</ele>
        <time>2014-06-14T16:36:58Z</time>
      </trkpt>
      <trkpt lat="46.559153264388442" lon="6.766577158123255">
        <ele>759.100000000000023</ele>
        <time>2014-06-14T16:36:59Z</time>
      </trkpt>
      <trkpt lat="46.559173883870244" lon="6.766501469537616">
        <ele>758.620000000000005</ele>
        <time>2014-06-14T16:37:00Z</time>
      </trkpt>
      <trkpt lat="46.559189222753048" lon="6.766420751810074">
        <ele>758.139999999999986</ele>
        <time>2014-06-14T16:37:01Z</time>
      </trkpt>
      <trkpt lat="46.559206657111645" lon="6.766126127913594">
        <ele>756.210000000000036</ele>
        <time>2014-06-14T16:37:05Z</time>
      </trkpt>
      <trkpt lat="46.559197772294283" lon="6.766048930585384">
        <ele>756.210000000000036</ele>
        <time>2014-06-14T16:37:06Z</time>
      </trkpt>
      <trkpt lat="46.559182265773416" lon="6.765971397981048">
        <ele>755.730000000000018</ele>
        <time>2014-06-14T16:37:07Z</time>
      </trkpt>
      <trkpt lat="46.559118395671248" lon="6.765749529004097">
        <ele>754.769999999999982</ele>
        <time>2014-06-14T16:37:10Z</time>
      </trkpt>
      <trkpt lat="46.559049664065242" lon="6.765553308650851">
        <ele>756.210000000000036</ele>
        <time>2014-06-14T16:37:13Z</time>
      </trkpt>
      <trkpt lat="46.558756632730365" lon="6.764953080564737">
        <ele>763.899999999999977</ele>
        <time>2014-06-14T16:37:26Z</time>
      </trkpt>
      <trkpt lat="46.558766355738044" lon="6.764928353950381">
        <ele>769.190000000000055</ele>
        <time>2014-06-14T16:37:50Z</time>
      </trkpt>
      <trkpt lat="46.558778677135706" lon="6.76493707112968">
        <ele>771.600000000000023</ele>
        <time>2014-06-14T16:38:21Z</time>
      </trkpt>
      <trkpt lat="46.558766858652234" lon="6.76494000479579">
        <ele>773.519999999999982</ele>
        <time>2014-06-14T16:38:47Z</time>
      </trkpt>
      <trkpt lat="46.55877641402185" lon="6.764932963997126">
        <ele>776.879999999999995</ele>
        <time>2014-06-14T16:39:23Z</time>
      </trkpt>
      <trkpt lat="46.55875738710165" lon="6.764808744192123">
        <ele>777.360000000000014</ele>
        <time>2014-06-14T16:39:46Z</time>
      </trkpt>
      <trkpt lat="46.558589078485966" lon="6.764455949887633">
        <ele>777.840000000000032</ele>
        <time>2014-06-14T16:39:55Z</time>
      </trkpt>
      <trkpt lat="46.558436695486307" lon="6.764141209423542">
        <ele>777.360000000000014</ele>
        <time>2014-06-14T16:40:01Z</time>
      </trkpt>
      <trkpt lat="46.558409873396158" lon="6.764082200825214">
        <ele>777.360000000000014</ele>
        <time>2014-06-14T16:40:02Z</time>
      </trkpt>
      <trkpt lat="46.558379363268614" lon="6.76402629353106">
        <ele>777.360000000000014</ele>
        <time>2014-06-14T16:40:03Z</time>
      </trkpt>
      <trkpt lat="46.557839065790176" lon="6.76317653618753">
        <ele>776.399999999999977</ele>
        <time>2014-06-14T16:40:18Z</time>
      </trkpt>
      <trkpt lat="46.557276975363493" lon="6.762328203767538">
        <ele>776.399999999999977</ele>
        <time>2014-06-14T16:40:32Z</time>
      </trkpt>
      <trkpt lat="46.556628718972206" lon="6.761306449770927">
        <ele>776.879999999999995</ele>
        <time>2014-06-14T16:40:48Z</time>
      </trkpt>
      <trkpt lat="46.556539870798588" lon="6.761079886928201">
        <ele>777.360000000000014</ele>
        <time>2014-06-14T16:40:51Z</time>
      </trkpt>
      <trkpt lat="46.556485053151846" lon="6.760840751230717">
        <ele>777.840000000000032</ele>
        <time>2014-06-14T16:40:54Z</time>
      </trkpt>
      <trkpt lat="46.55647985637188" lon="6.760761793702841">
        <ele>778.32000000000005</ele>
        <time>2014-06-14T16:40:55Z</time>
      </trkpt>
      <trkpt lat="46.556494776159525" lon="6.760614020749927">
        <ele>778.809999999999945</ele>
        <time>2014-06-14T16:40:58Z</time>
      </trkpt>
      <trkpt lat="46.556519167497754" lon="6.760592479258776">
        <ele>779.289999999999964</ele>
        <time>2014-06-14T16:40:59Z</time>
      </trkpt>
      <trkpt lat="46.556544229388237" lon="6.76058049313724">
        <ele>779.289999999999964</ele>
        <time>2014-06-14T16:41:00Z</time>
      </trkpt>
      <trkpt lat="46.556559819728136" lon="6.760569680482149">
        <ele>779.289999999999964</ele>
        <time>2014-06-14T16:41:01Z</time>
      </trkpt>
      <trkpt lat="46.556583289057016" lon="6.760556185618043">
        <ele>779.769999999999982</ele>
        <time>2014-06-14T16:41:02Z</time>
      </trkpt>
      <trkpt lat="46.556609943509102" lon="6.760542774572968">
        <ele>779.769999999999982</ele>
        <time>2014-06-14T16:41:03Z</time>
      </trkpt>
      <trkpt lat="46.55663819052279" lon="6.760525172576308">
        <ele>779.289999999999964</ele>
        <time>2014-06-14T16:41:04Z</time>
      </trkpt>
      <trkpt lat="46.556661995127797" lon="6.760509163141251">
        <ele>779.289999999999964</ele>
        <time>2014-06-14T16:41:05Z</time>
      </trkpt>
      <trkpt lat="46.556918900460005" lon="6.760189309716225">
        <ele>780.730000000000018</ele>
        <time>2014-06-14T16:41:15Z</time>
      </trkpt>
      <trkpt lat="46.557035828009248" lon="6.75993793644011">
        <ele>780.25</ele>
        <time>2014-06-14T16:41:19Z</time>
      </trkpt>
      <trkpt lat="46.55730371363461" lon="6.759322956204414">
        <ele>782.649999999999977</ele>
        <time>2014-06-14T16:41:32Z</time>
      </trkpt>
      <trkpt lat="46.557351490482688" lon="6.759240478277206">
        <ele>783.610000000000014</ele>
        <time>2014-06-14T16:41:35Z</time>
      </trkpt>
      <trkpt lat="46.55737454071641" lon="6.75923871807754">
        <ele>783.610000000000014</ele>
        <time>2014-06-14T16:41:36Z</time>
      </trkpt>
      <trkpt lat="46.55739557929337" lon="6.759247854351997">
        <ele>783.610000000000014</ele>
        <time>2014-06-14T16:41:37Z</time>
      </trkpt>
      <trkpt lat="46.557417707517743" lon="6.759262941777706">
        <ele>783.610000000000014</ele>
        <time>2014-06-14T16:41:38Z</time>
      </trkpt>
      <trkpt lat="46.557439081370831" lon="6.759274005889893">
        <ele>783.610000000000014</ele>
        <time>2014-06-14T16:41:39Z</time>
      </trkpt>
      <trkpt lat="46.55746053904295" lon="6.75927828066051">
        <ele>784.090000000000032</ele>
        <time>2014-06-14T16:41:40Z</time>
      </trkpt>
      <trkpt lat="46.557482248172164" lon="6.759282220155001">
        <ele>784.090000000000032</ele>
        <time>2014-06-14T16:41:41Z</time>
      </trkpt>
      <trkpt lat="46.557500185444951" lon="6.759291188791394">
        <ele>784.090000000000032</ele>
        <time>2014-06-14T16:41:42Z</time>
      </trkpt>
      <trkpt lat="46.55751921236515" lon="6.759303510189056">
        <ele>784.57000000000005</ele>
        <time>2014-06-14T16:41:43Z</time>
      </trkpt>
      <trkpt lat="46.557785253971815" lon="6.759616993367672">
        <ele>785.049999999999955</ele>
        <time>2014-06-14T16:41:54Z</time>
      </trkpt>
      <trkpt lat="46.557958340272307" lon="6.759790582582355">
        <ele>784.090000000000032</ele>
        <time>2014-06-14T16:42:02Z</time>
      </trkpt>
      <trkpt lat="46.557977115735412" lon="6.759810950607061">
        <ele>784.090000000000032</ele>
        <time>2014-06-14T16:42:03Z</time>
      </trkpt>
      <trkpt lat="46.557992873713374" lon="6.759830564260483">
        <ele>784.090000000000032</ele>
        <time>2014-06-14T16:42:04Z</time>
      </trkpt>
      <trkpt lat="46.558016007766128" lon="6.759856548160315">
        <ele>783.610000000000014</ele>
        <time>2014-06-14T16:42:05Z</time>
      </trkpt>
      <trkpt lat="46.558040734380484" lon="6.759885465726256">
        <ele>783.610000000000014</ele>
        <time>2014-06-14T16:42:06Z</time>
      </trkpt>
      <trkpt lat="46.558151543140411" lon="6.759995939210057">
        <ele>782.649999999999977</ele>
        <time>2014-06-14T16:42:13Z</time>
      </trkpt>
      <trkpt lat="46.558181634172797" lon="6.760028293356299">
        <ele>782.169999999999959</ele>
        <time>2014-06-14T16:42:18Z</time>
      </trkpt>
      <trkpt lat="46.558197224512696" lon="6.760042039677501">
        <ele>782.169999999999959</ele>
        <time>2014-06-14T16:42:19Z</time>
      </trkpt>
      <trkpt lat="46.558407275006175" lon="6.760251754894853">
        <ele>782.169999999999959</ele>
        <time>2014-06-14T16:42:29Z</time>
      </trkpt>
      <trkpt lat="46.558477431535721" lon="6.760335909202695">
        <ele>782.649999999999977</ele>
        <time>2014-06-14T16:42:35Z</time>
      </trkpt>
      <trkpt lat="46.558488747105002" lon="6.760358121246099">
        <ele>783.129999999999995</ele>
        <time>2014-06-14T16:42:36Z</time>
      </trkpt>
      <trkpt lat="46.558501990512013" lon="6.760376812890172">
        <ele>783.129999999999995</ele>
        <time>2014-06-14T16:42:37Z</time>
      </trkpt>
      <trkpt lat="46.558517748489976" lon="6.760398522019386">
        <ele>783.610000000000014</ele>
        <time>2014-06-14T16:42:38Z</time>
      </trkpt>
      <trkpt lat="46.558537362143397" lon="6.760423583909869">
        <ele>783.610000000000014</ele>
        <time>2014-06-14T16:42:39Z</time>
      </trkpt>
      <trkpt lat="46.558628138154745" lon="6.760501367971301">
        <ele>786.019999999999982</ele>
        <time>2014-06-14T16:42:44Z</time>
      </trkpt>
      <trkpt lat="46.558643309399486" lon="6.760521652176976">
        <ele>786.5</ele>
        <time>2014-06-14T16:42:45Z</time>
      </trkpt>
      <trkpt lat="46.558657139539719" lon="6.760547133162618">
        <ele>787.460000000000036</ele>
        <time>2014-06-14T16:42:46Z</time>
      </trkpt>
      <trkpt lat="46.558670969679952" lon="6.7605653218925">
        <ele>787.460000000000036</ele>
        <time>2014-06-14T16:42:47Z</time>
      </trkpt>
      <trkpt lat="46.558689996600151" lon="6.760585606098175">
        <ele>787.940000000000055</ele>
        <time>2014-06-14T16:42:48Z</time>
      </trkpt>
      <trkpt lat="46.558712208643556" lon="6.76060781814158">
        <ele>788.419999999999959</ele>
        <time>2014-06-14T16:42:49Z</time>
      </trkpt>
      <trkpt lat="46.558963749557734" lon="6.760814683511853">
        <ele>791.299999999999955</ele>
        <time>2014-06-14T16:43:00Z</time>
      </trkpt>
      <trkpt lat="46.559255355969071" lon="6.761008556932211">
        <ele>791.299999999999955</ele>
        <time>2014-06-14T16:43:12Z</time>
      </trkpt>
      <trkpt lat="46.559552326798439" lon="6.761133866384625">
        <ele>789.860000000000014</ele>
        <time>2014-06-14T16:43:24Z</time>
      </trkpt>
      <trkpt lat="46.559591637924314" lon="6.76116680726409">
        <ele>789.379999999999995</ele>
        <time>2014-06-14T16:43:28Z</time>
      </trkpt>
      <trkpt lat="46.559600438922644" lon="6.761185163632035">
        <ele>789.379999999999995</ele>
        <time>2014-06-14T16:43:29Z</time>
      </trkpt>
      <trkpt lat="46.559617621824145" lon="6.761203017085791">
        <ele>789.379999999999995</ele>
        <time>2014-06-14T16:43:30Z</time>
      </trkpt>
      <trkpt lat="46.55963790602982" lon="6.761225145310163">
        <ele>788.899999999999977</ele>
        <time>2014-06-14T16:43:31Z</time>
      </trkpt>
      <trkpt lat="46.559655340388417" lon="6.761252302676439">
        <ele>788.899999999999977</ele>
        <time>2014-06-14T16:43:32Z</time>
      </trkpt>
      <trkpt lat="46.559669086709619" lon="6.761277196928859">
        <ele>788.899999999999977</ele>
        <time>2014-06-14T16:43:33Z</time>
      </trkpt>
      <trkpt lat="46.559776710346341" lon="6.761651029810309">
        <ele>789.860000000000014</ele>
        <time>2014-06-14T16:43:46Z</time>
      </trkpt>
      <trkpt lat="46.559838652610779" lon="6.762132570147514">
        <ele>790.340000000000032</ele>
        <time>2014-06-14T16:44:02Z</time>
      </trkpt>
      <trkpt lat="46.55984703451395" lon="6.762158051133156">
        <ele>790.340000000000032</ele>
        <time>2014-06-14T16:44:03Z</time>
      </trkpt>
      <trkpt lat="46.559853740036488" lon="6.762185962870717">
        <ele>790.340000000000032</ele>
        <time>2014-06-14T16:44:04Z</time>
      </trkpt>
      <trkpt lat="46.559995142742991" lon="6.762550408020616">
        <ele>789.860000000000014</ele>
        <time>2014-06-14T16:44:16Z</time>
      </trkpt>
      <trkpt lat="46.560261435806751" lon="6.762889707460999">
        <ele>790.82000000000005</ele>
        <time>2014-06-14T16:44:31Z</time>
      </trkpt>
      <trkpt lat="46.560524292290211" lon="6.763267312198877">
        <ele>791.299999999999955</ele>
        <time>2014-06-14T16:44:45Z</time>
      </trkpt>
      <trkpt lat="46.560716405510902" lon="6.763535868376493">
        <ele>790.340000000000032</ele>
        <time>2014-06-14T16:44:56Z</time>
      </trkpt>
      <trkpt lat="46.560828555375338" lon="6.763701746240258">
        <ele>788.419999999999959</ele>
        <time>2014-06-14T16:45:03Z</time>
      </trkpt>
      <trkpt lat="46.5610412042588" lon="6.763906516134739">
        <ele>788.419999999999959</ele>
        <time>2014-06-14T16:45:16Z</time>
      </trkpt>
      <trkpt lat="46.561125693842769" lon="6.76395739428699">
        <ele>787.940000000000055</ele>
        <time>2014-06-14T16:45:21Z</time>
      </trkpt>
      <trkpt lat="46.561139775440097" lon="6.763973236083984">
        <ele>787.460000000000036</ele>
        <time>2014-06-14T16:45:22Z</time>
      </trkpt>
      <trkpt lat="46.56115117482841" lon="6.76399159245193">
        <ele>787.460000000000036</ele>
        <time>2014-06-14T16:45:23Z</time>
      </trkpt>
      <trkpt lat="46.561164334416389" lon="6.764007853344083">
        <ele>787.460000000000036</ele>
        <time>2014-06-14T16:45:24Z</time>
      </trkpt>
      <trkpt lat="46.561180846765637" lon="6.764020090922713">
        <ele>787.460000000000036</ele>
        <time>2014-06-14T16:45:25Z</time>
      </trkpt>
      <trkpt lat="46.56119761057198" lon="6.764031071215868">
        <ele>787.460000000000036</ele>
        <time>2014-06-14T16:45:26Z</time>
      </trkpt>
      <trkpt lat="46.56138570047915" lon="6.764182867482305">
        <ele>788.419999999999959</ele>
        <time>2014-06-14T16:45:38Z</time>
      </trkpt>
      <trkpt lat="46.561399195343256" lon="6.764192841947079">
        <ele>788.419999999999959</ele>
        <time>2014-06-14T16:45:39Z</time>
      </trkpt>
      <trkpt lat="46.561692981049418" lon="6.764191333204508">
        <ele>792.740000000000009</ele>
        <time>2014-06-14T16:45:54Z</time>
      </trkpt>
      <trkpt lat="46.561879478394985" lon="6.763954209163785">
        <ele>794.669999999999959</ele>
        <time>2014-06-14T16:46:07Z</time>
      </trkpt>
      <trkpt lat="46.561938989907503" lon="6.763510638847947">
        <ele>792.259999999999991</ele>
        <time>2014-06-14T16:46:23Z</time>
      </trkpt>
      <trkpt lat="46.56197159551084" lon="6.763100763782859">
        <ele>790.340000000000032</ele>
        <time>2014-06-14T16:46:36Z</time>
      </trkpt>
      <trkpt lat="46.562039824202657" lon="6.7625701893121">
        <ele>788.419999999999959</ele>
        <time>2014-06-14T16:46:48Z</time>
      </trkpt>
      <trkpt lat="46.562175946310163" lon="6.761933248490095">
        <ele>788.419999999999959</ele>
        <time>2014-06-14T16:47:01Z</time>
      </trkpt>
      <trkpt lat="46.562173180282116" lon="6.761611634865403">
        <ele>787.940000000000055</ele>
        <time>2014-06-14T16:47:07Z</time>
      </trkpt>
      <trkpt lat="46.562152560800314" lon="6.761557990685105">
        <ele>788.419999999999959</ele>
        <time>2014-06-14T16:47:08Z</time>
      </trkpt>
      <trkpt lat="46.562130264937878" lon="6.761501748114824">
        <ele>788.419999999999959</ele>
        <time>2014-06-14T16:47:09Z</time>
      </trkpt>
      <trkpt lat="46.562088271602988" lon="6.76138230599463">
        <ele>788.419999999999959</ele>
        <time>2014-06-14T16:47:11Z</time>
      </trkpt>
      <trkpt lat="46.561931194737554" lon="6.761023811995983">
        <ele>788.419999999999959</ele>
        <time>2014-06-14T16:47:17Z</time>
      </trkpt>
      <trkpt lat="46.56188459135592" lon="6.760898334905505">
        <ele>787.940000000000055</ele>
        <time>2014-06-14T16:47:19Z</time>
      </trkpt>
      <trkpt lat="46.561851901933551" lon="6.760838320478797">
        <ele>787.460000000000036</ele>
        <time>2014-06-14T16:47:20Z</time>
      </trkpt>
      <trkpt lat="46.561817871406674" lon="6.76078031770885">
        <ele>787.460000000000036</ele>
        <time>2014-06-14T16:47:21Z</time>
      </trkpt>
      <trkpt lat="46.561789624392986" lon="6.760718962177634">
        <ele>787.460000000000036</ele>
        <time>2014-06-14T16:47:22Z</time>
      </trkpt>
      <trkpt lat="46.56176439486444" lon="6.760660288855433">
        <ele>787.460000000000036</ele>
        <time>2014-06-14T16:47:23Z</time>
      </trkpt>
      <trkpt lat="46.561741512268782" lon="6.760603962466121">
        <ele>787.460000000000036</ele>
        <time>2014-06-14T16:47:24Z</time>
      </trkpt>
      <trkpt lat="46.561720725148916" lon="6.760545205324888">
        <ele>787.940000000000055</ele>
        <time>2014-06-14T16:47:25Z</time>
      </trkpt>
      <trkpt lat="46.561695160344243" lon="6.76048862747848">
        <ele>787.940000000000055</ele>
        <time>2014-06-14T16:47:26Z</time>
      </trkpt>
      <trkpt lat="46.561667416244745" lon="6.760432049632072">
        <ele>788.419999999999959</ele>
        <time>2014-06-14T16:47:27Z</time>
      </trkpt>
      <trkpt lat="46.561279585584998" lon="6.759425131604075">
        <ele>791.299999999999955</ele>
        <time>2014-06-14T16:47:43Z</time>
      </trkpt>
      <trkpt lat="46.561090992763638" lon="6.758920960128307">
        <ele>793.220000000000027</ele>
        <time>2014-06-14T16:47:52Z</time>
      </trkpt>
      <trkpt lat="46.561102727428079" lon="6.758862202987075">
        <ele>793.220000000000027</ele>
        <time>2014-06-14T16:47:53Z</time>
      </trkpt>
      <trkpt lat="46.56113164499402" lon="6.758817695081234">
        <ele>793.220000000000027</ele>
        <time>2014-06-14T16:47:54Z</time>
      </trkpt>
      <trkpt lat="46.561161149293184" lon="6.758800595998764">
        <ele>793.710000000000036</ele>
        <time>2014-06-14T16:47:55Z</time>
      </trkpt>
      <trkpt lat="46.561198281124234" lon="6.758796656504273">
        <ele>793.710000000000036</ele>
        <time>2014-06-14T16:47:56Z</time>
      </trkpt>
      <trkpt lat="46.561240777373314" lon="6.758807301521301">
        <ele>793.710000000000036</ele>
        <time>2014-06-14T16:47:57Z</time>
      </trkpt>
      <trkpt lat="46.561289727687836" lon="6.758819622918963">
        <ele>793.710000000000036</ele>
        <time>2014-06-14T16:47:58Z</time>
      </trkpt>
      <trkpt lat="46.561596840620041" lon="6.758899167180061">
        <ele>793.710000000000036</ele>
        <time>2014-06-14T16:48:04Z</time>
      </trkpt>
      <trkpt lat="46.561713013797998" lon="6.758925318717957">
        <ele>795.629999999999995</ele>
        <time>2014-06-14T16:48:12Z</time>
      </trkpt>
      <trkpt lat="46.561890291050076" lon="6.758977202698588">
        <ele>797.07000000000005</ele>
        <time>2014-06-14T16:48:23Z</time>
      </trkpt>
      <trkpt lat="46.562425475567579" lon="6.759132100269198">
        <ele>795.629999999999995</ele>
        <time>2014-06-14T16:48:32Z</time>
      </trkpt>
      <trkpt lat="46.562490602955222" lon="6.759124053642154">
        <ele>795.149999999999977</ele>
        <time>2014-06-14T16:48:33Z</time>
      </trkpt>
      <trkpt lat="46.562551120296121" lon="6.759105529636145">
        <ele>795.149999999999977</ele>
        <time>2014-06-14T16:48:34Z</time>
      </trkpt>
      <trkpt lat="46.562601495534182" lon="6.759081892669201">
        <ele>795.149999999999977</ele>
        <time>2014-06-14T16:48:35Z</time>
      </trkpt>
      <trkpt lat="46.562648518010974" lon="6.759056160226464">
        <ele>795.149999999999977</ele>
        <time>2014-06-14T16:48:36Z</time>
      </trkpt>
      <trkpt lat="46.562690678983927" lon="6.759027997031808">
        <ele>795.149999999999977</ele>
        <time>2014-06-14T16:48:37Z</time>
      </trkpt>
      <trkpt lat="46.562729487195611" lon="6.758994553238153">
        <ele>795.149999999999977</ele>
        <time>2014-06-14T16:48:38Z</time>
      </trkpt>
      <trkpt lat="46.562765361741185" lon="6.758954990655184">
        <ele>795.149999999999977</ele>
        <time>2014-06-14T16:48:39Z</time>
      </trkpt>
      <trkpt lat="46.562866363674402" lon="6.758838314563036">
        <ele>796.110000000000014</ele>
        <time>2014-06-14T16:48:42Z</time>
      </trkpt>
      <trkpt lat="46.562898885458708" lon="6.758798584342003">
        <ele>796.590000000000032</ele>
        <time>2014-06-14T16:48:43Z</time>
      </trkpt>
      <trkpt lat="46.563150677829981" lon="6.758499769493937">
        <ele>799.950000000000045</ele>
        <time>2014-06-14T16:48:51Z</time>
      </trkpt>
      <trkpt lat="46.563193006440997" lon="6.758486106991768">
        <ele>800.440000000000055</ele>
        <time>2014-06-14T16:48:52Z</time>
      </trkpt>
      <trkpt lat="46.563237262889743" lon="6.758481748402119">
        <ele>800.919999999999959</ele>
        <time>2014-06-14T16:48:53Z</time>
      </trkpt>
      <trkpt lat="46.563281686976552" lon="6.758495578542352">
        <ele>800.919999999999959</ele>
        <time>2014-06-14T16:48:54Z</time>
      </trkpt>
      <trkpt lat="46.56332359649241" lon="6.758524579927325">
        <ele>801.399999999999977</ele>
        <time>2014-06-14T16:48:55Z</time>
      </trkpt>
      <trkpt lat="46.563364332541823" lon="6.758560286834836">
        <ele>801.399999999999977</ele>
        <time>2014-06-14T16:48:56Z</time>
      </trkpt>
      <trkpt lat="46.563402554020286" lon="6.758600352331996">
        <ele>801.399999999999977</ele>
        <time>2014-06-14T16:48:57Z</time>
      </trkpt>
      <trkpt lat="46.563440104946494" lon="6.758641004562378">
        <ele>801.399999999999977</ele>
        <time>2014-06-14T16:48:58Z</time>
      </trkpt>
      <trkpt lat="46.563821984454989" lon="6.759019531309605">
        <ele>801.879999999999995</ele>
        <time>2014-06-14T16:49:08Z</time>
      </trkpt>
      <trkpt lat="46.563864815980196" lon="6.75903788767755">
        <ele>801.879999999999995</ele>
        <time>2014-06-14T16:49:09Z</time>
      </trkpt>
      <trkpt lat="46.563908737152815" lon="6.759047191590071">
        <ele>801.879999999999995</ele>
        <time>2014-06-14T16:49:10Z</time>
      </trkpt>
      <trkpt lat="46.563952071592212" lon="6.759051131084561">
        <ele>801.879999999999995</ele>
        <time>2014-06-14T16:49:11Z</time>
      </trkpt>
      <trkpt lat="46.563995238393545" lon="6.759048029780388">
        <ele>801.879999999999995</ele>
        <time>2014-06-14T16:49:12Z</time>
      </trkpt>
      <trkpt lat="46.564036225900054" lon="6.759038893505931">
        <ele>801.399999999999977</ele>
        <time>2014-06-14T16:49:13Z</time>
      </trkpt>
      <trkpt lat="46.564076123759151" lon="6.75902808085084">
        <ele>801.399999999999977</ele>
        <time>2014-06-14T16:49:14Z</time>
      </trkpt>
      <trkpt lat="46.564652463421226" lon="6.758967814967036">
        <ele>803.32000000000005</ele>
        <time>2014-06-14T16:49:29Z</time>
      </trkpt>
      <trkpt lat="46.565118078142405" lon="6.758895562961698">
        <ele>805.240000000000009</ele>
        <time>2014-06-14T16:49:44Z</time>
      </trkpt>
      <trkpt lat="46.565299546346068" lon="6.759360088035464">
        <ele>806.200000000000045</ele>
        <time>2014-06-14T16:49:54Z</time>
      </trkpt>
      <trkpt lat="46.56561235897243" lon="6.759835174307227">
        <ele>809.57000000000005</ele>
        <time>2014-06-14T16:50:08Z</time>
      </trkpt>
      <trkpt lat="46.565669942647219" lon="6.760151004418731">
        <ele>812.450000000000045</ele>
        <time>2014-06-14T16:50:19Z</time>
      </trkpt>
      <trkpt lat="46.565684275701642" lon="6.760206492617726">
        <ele>812.450000000000045</ele>
        <time>2014-06-14T16:50:21Z</time>
      </trkpt>
      <trkpt lat="46.565692741423845" lon="6.760234069079161">
        <ele>811.970000000000027</ele>
        <time>2014-06-14T16:50:22Z</time>
      </trkpt>
      <trkpt lat="46.565710427239537" lon="6.760320235043764">
        <ele>811.970000000000027</ele>
        <time>2014-06-14T16:50:25Z</time>
      </trkpt>
      <trkpt lat="46.565710846334696" lon="6.760351331904531">
        <ele>811.970000000000027</ele>
        <time>2014-06-14T16:50:26Z</time>
      </trkpt>
      <trkpt lat="46.565686957910657" lon="6.760696163401008">
        <ele>812.450000000000045</ele>
        <time>2014-06-14T16:50:37Z</time>
      </trkpt>
      <trkpt lat="46.565588973462582" lon="6.761299492791295">
        <ele>816.779999999999973</ele>
        <time>2014-06-14T16:50:51Z</time>
      </trkpt>
      <trkpt lat="46.565625770017505" lon="6.76185336895287">
        <ele>814.370000000000005</ele>
        <time>2014-06-14T16:51:02Z</time>
      </trkpt>
      <trkpt lat="46.565643204376101" lon="6.762050008401275">
        <ele>813.409999999999968</ele>
        <time>2014-06-14T16:51:05Z</time>
      </trkpt>
      <trkpt lat="46.565653933212161" lon="6.76211865618825">
        <ele>813.409999999999968</ele>
        <time>2014-06-14T16:51:06Z</time>
      </trkpt>
      <trkpt lat="46.565732220187783" lon="6.762688541784883">
        <ele>813.409999999999968</ele>
        <time>2014-06-14T16:51:14Z</time>
      </trkpt>
      <trkpt lat="46.565753677859902" lon="6.762759117409587">
        <ele>813.409999999999968</ele>
        <time>2014-06-14T16:51:15Z</time>
      </trkpt>
      <trkpt lat="46.56585518270731" lon="6.763049550354481">
        <ele>813.409999999999968</ele>
        <time>2014-06-14T16:51:20Z</time>
      </trkpt>
      <trkpt lat="46.565893488004804" lon="6.763164298608899">
        <ele>813.409999999999968</ele>
        <time>2014-06-14T16:51:22Z</time>
      </trkpt>
      <trkpt lat="46.565910838544369" lon="6.763230599462986">
        <ele>813.409999999999968</ele>
        <time>2014-06-14T16:51:23Z</time>
      </trkpt>
      <trkpt lat="46.566078057512641" lon="6.76408102735877">
        <ele>809.090000000000032</ele>
        <time>2014-06-14T16:51:34Z</time>
      </trkpt>
      <trkpt lat="46.56658030115068" lon="6.765531934797764">
        <ele>803.32000000000005</ele>
        <time>2014-06-14T16:51:50Z</time>
      </trkpt>
      <trkpt lat="46.567068211734295" lon="6.766705485060811">
        <ele>800.440000000000055</ele>
        <time>2014-06-14T16:52:04Z</time>
      </trkpt>
      <trkpt lat="46.567130824550986" lon="6.766869518905878">
        <ele>799.950000000000045</ele>
        <time>2014-06-14T16:52:06Z</time>
      </trkpt>
      <trkpt lat="46.567477416247129" lon="6.76779848523438">
        <ele>795.149999999999977</ele>
        <time>2014-06-14T16:52:15Z</time>
      </trkpt>
      <trkpt lat="46.567507674917579" lon="6.767902504652739">
        <ele>794.669999999999959</ele>
        <time>2014-06-14T16:52:16Z</time>
      </trkpt>
      <trkpt lat="46.567532233893871" lon="6.768015660345554">
        <ele>794.190000000000055</ele>
        <time>2014-06-14T16:52:17Z</time>
      </trkpt>
      <trkpt lat="46.567710433155298" lon="6.768806995823979">
        <ele>788.899999999999977</ele>
        <time>2014-06-14T16:52:26Z</time>
      </trkpt>
      <trkpt lat="46.567741865292192" lon="6.768922582268715">
        <ele>787.940000000000055</ele>
        <time>2014-06-14T16:52:28Z</time>
      </trkpt>
      <trkpt lat="46.567757287994027" lon="6.768992990255356">
        <ele>787.460000000000036</ele>
        <time>2014-06-14T16:52:29Z</time>
      </trkpt>
      <trkpt lat="46.567833814769983" lon="6.769322147592902">
        <ele>785.529999999999973</ele>
        <time>2014-06-14T16:52:33Z</time>
      </trkpt>
      <trkpt lat="46.567855775356293" lon="6.769398339092731">
        <ele>785.049999999999955</ele>
        <time>2014-06-14T16:52:34Z</time>
      </trkpt>
      <trkpt lat="46.567945629358292" lon="6.769606042653322">
        <ele>782.649999999999977</ele>
        <time>2014-06-14T16:52:39Z</time>
      </trkpt>
      <trkpt lat="46.56796658411622" lon="6.769639234989882">
        <ele>782.169999999999959</ele>
        <time>2014-06-14T16:52:41Z</time>
      </trkpt>
      <trkpt lat="46.567992400377989" lon="6.769662955775857">
        <ele>782.169999999999959</ele>
        <time>2014-06-14T16:52:43Z</time>
      </trkpt>
      <trkpt lat="46.568227764219046" lon="6.769951293244958">
        <ele>783.129999999999995</ele>
        <time>2014-06-14T16:52:55Z</time>
      </trkpt>
      <trkpt lat="46.568484166637063" lon="6.770208952948451">
        <ele>789.379999999999995</ele>
        <time>2014-06-14T16:53:07Z</time>
      </trkpt>
      <trkpt lat="46.568607045337558" lon="6.770348427817225">
        <ele>791.779999999999973</ele>
        <time>2014-06-14T16:53:13Z</time>
      </trkpt>
      <trkpt lat="46.568627078086138" lon="6.770376171916723">
        <ele>791.779999999999973</ele>
        <time>2014-06-14T16:53:14Z</time>
      </trkpt>
      <trkpt lat="46.56864870339632" lon="6.770401317626238">
        <ele>792.259999999999991</ele>
        <time>2014-06-14T16:53:15Z</time>
      </trkpt>
      <trkpt lat="46.568669993430376" lon="6.770422775298357">
        <ele>793.220000000000027</ele>
        <time>2014-06-14T16:53:16Z</time>
      </trkpt>
      <trkpt lat="46.568691954016685" lon="6.770437275990844">
        <ele>793.710000000000036</ele>
        <time>2014-06-14T16:53:17Z</time>
      </trkpt>
      <trkpt lat="46.568711148574948" lon="6.770445993170142">
        <ele>793.710000000000036</ele>
        <time>2014-06-14T16:53:18Z</time>
      </trkpt>
      <trkpt lat="46.568903345614672" lon="6.770649589598179">
        <ele>798.029999999999973</ele>
        <time>2014-06-14T16:53:30Z</time>
      </trkpt>
      <trkpt lat="46.569000324234366" lon="6.770747154951096">
        <ele>798.990000000000009</ele>
        <time>2014-06-14T16:53:37Z</time>
      </trkpt>
      <trkpt lat="46.569013148546219" lon="6.770753441378474">
        <ele>798.990000000000009</ele>
        <time>2014-06-14T16:53:38Z</time>
      </trkpt>
      <trkpt lat="46.569104846566916" lon="6.770807504653931">
        <ele>802.360000000000014</ele>
        <time>2014-06-14T16:53:52Z</time>
      </trkpt>
      <trkpt lat="46.569187911227345" lon="6.770840780809522">
        <ele>805.720000000000027</ele>
        <time>2014-06-14T16:54:04Z</time>
      </trkpt>
      <trkpt lat="46.569290421903133" lon="6.770925689488649">
        <ele>810.529999999999973</ele>
        <time>2014-06-14T16:54:17Z</time>
      </trkpt>
      <trkpt lat="46.569390250369906" lon="6.770967096090317">
        <ele>812.92999999999995</ele>
        <time>2014-06-14T16:54:27Z</time>
      </trkpt>
      <trkpt lat="46.569405924528837" lon="6.770971119403839">
        <ele>812.92999999999995</ele>
        <time>2014-06-14T16:54:28Z</time>
      </trkpt>
      <trkpt lat="46.569560235366225" lon="6.770916385576129">
        <ele>816.299999999999955</ele>
        <time>2014-06-14T16:54:42Z</time>
      </trkpt>
      <trkpt lat="46.569687640294433" lon="6.770898615941405">
        <ele>814.850000000000023</ele>
        <time>2014-06-14T16:54:51Z</time>
      </trkpt>
      <trkpt lat="46.56972267664969" lon="6.770881684496999">
        <ele>814.850000000000023</ele>
        <time>2014-06-14T16:54:58Z</time>
      </trkpt>
      <trkpt lat="46.569740613922477" lon="6.770879924297333">
        <ele>814.850000000000023</ele>
        <time>2014-06-14T16:54:59Z</time>
      </trkpt>
      <trkpt lat="46.569759892299771" lon="6.770895514637232">
        <ele>814.850000000000023</ele>
        <time>2014-06-14T16:55:00Z</time>
      </trkpt>
      <trkpt lat="46.570005314424634" lon="6.771102966740727">
        <ele>811.490000000000009</ele>
        <time>2014-06-14T16:55:07Z</time>
      </trkpt>
      <trkpt lat="46.57010824419558" lon="6.771172704175115">
        <ele>810.049999999999955</ele>
        <time>2014-06-14T16:55:09Z</time>
      </trkpt>
      <trkpt lat="46.570158787071705" lon="6.771194245666265">
        <ele>809.57000000000005</ele>
        <time>2014-06-14T16:55:10Z</time>
      </trkpt>
      <trkpt lat="46.570257442072034" lon="6.771239172667265">
        <ele>808.129999999999995</ele>
        <time>2014-06-14T16:55:12Z</time>
      </trkpt>
      <trkpt lat="46.570300692692399" lon="6.771271862089634">
        <ele>807.159999999999968</ele>
        <time>2014-06-14T16:55:13Z</time>
      </trkpt>
      <trkpt lat="46.570336734876037" lon="6.771319974213839">
        <ele>806.67999999999995</ele>
        <time>2014-06-14T16:55:14Z</time>
      </trkpt>
      <trkpt lat="46.570420386269689" lon="6.771431704983115">
        <ele>805.720000000000027</ele>
        <time>2014-06-14T16:55:16Z</time>
      </trkpt>
      <trkpt lat="46.570457015186548" lon="6.771454587578773">
        <ele>805.240000000000009</ele>
        <time>2014-06-14T16:55:17Z</time>
      </trkpt>
      <trkpt lat="46.570511413738132" lon="6.771473279222846">
        <ele>804.759999999999991</ele>
        <time>2014-06-14T16:55:18Z</time>
      </trkpt>
      <trkpt lat="46.570567069575191" lon="6.771473614498973">
        <ele>804.279999999999973</ele>
        <time>2014-06-14T16:55:19Z</time>
      </trkpt>
      <trkpt lat="46.570616271346807" lon="6.771458610892296">
        <ele>803.799999999999955</ele>
        <time>2014-06-14T16:55:20Z</time>
      </trkpt>
      <trkpt lat="46.570658180862665" lon="6.77143489010632">
        <ele>803.799999999999955</ele>
        <time>2014-06-14T16:55:21Z</time>
      </trkpt>
      <trkpt lat="46.570686511695385" lon="6.771413935348392">
        <ele>803.32000000000005</ele>
        <time>2014-06-14T16:55:22Z</time>
      </trkpt>
      <trkpt lat="46.570753315463662" lon="6.77127119153738">
        <ele>802.840000000000032</ele>
        <time>2014-06-14T16:55:30Z</time>
      </trkpt>
      <trkpt lat="46.570857167243958" lon="6.770613044500351">
        <ele>799.950000000000045</ele>
        <time>2014-06-14T16:55:39Z</time>
      </trkpt>
      <trkpt lat="46.570886336266994" lon="6.770538780838251">
        <ele>799.470000000000027</ele>
        <time>2014-06-14T16:55:40Z</time>
      </trkpt>
      <trkpt lat="46.570923635736108" lon="6.770485639572144">
        <ele>799.470000000000027</ele>
        <time>2014-06-14T16:55:41Z</time>
      </trkpt>
      <trkpt lat="46.5709672216326" lon="6.770458063110709">
        <ele>798.990000000000009</ele>
        <time>2014-06-14T16:55:42Z</time>
      </trkpt>
      <trkpt lat="46.571017177775502" lon="6.770459739491343">
        <ele>798.509999999999991</ele>
        <time>2014-06-14T16:55:43Z</time>
      </trkpt>
      <trkpt lat="46.571075599640608" lon="6.770488154143095">
        <ele>798.029999999999973</ele>
        <time>2014-06-14T16:55:44Z</time>
      </trkpt>
      <trkpt lat="46.571138296276331" lon="6.770536936819553">
        <ele>797.549999999999955</ele>
        <time>2014-06-14T16:55:45Z</time>
      </trkpt>
      <trkpt lat="46.571202417835593" lon="6.770598962903023">
        <ele>796.590000000000032</ele>
        <time>2014-06-14T16:55:46Z</time>
      </trkpt>
      <trkpt lat="46.571264611557126" lon="6.770662497729063">
        <ele>795.629999999999995</ele>
        <time>2014-06-14T16:55:47Z</time>
      </trkpt>
      <trkpt lat="46.571330577135086" lon="6.770718907937407">
        <ele>795.149999999999977</ele>
        <time>2014-06-14T16:55:48Z</time>
      </trkpt>
      <trkpt lat="46.571400482207537" lon="6.770760230720043">
        <ele>794.669999999999959</ele>
        <time>2014-06-14T16:55:49Z</time>
      </trkpt>
      <trkpt lat="46.571468040347099" lon="6.770773055031896">
        <ele>794.190000000000055</ele>
        <time>2014-06-14T16:55:50Z</time>
      </trkpt>
      <trkpt lat="46.571535598486662" lon="6.770753273740411">
        <ele>793.220000000000027</ele>
        <time>2014-06-14T16:55:51Z</time>
      </trkpt>
      <trkpt lat="46.57159804366529" lon="6.770701557397842">
        <ele>792.740000000000009</ele>
        <time>2014-06-14T16:55:52Z</time>
      </trkpt>
      <trkpt lat="46.571648502722383" lon="6.77063450217247">
        <ele>792.259999999999991</ele>
        <time>2014-06-14T16:55:53Z</time>
      </trkpt>
      <trkpt lat="46.57168990932405" lon="6.770560322329402">
        <ele>791.779999999999973</ele>
        <time>2014-06-14T16:55:54Z</time>
      </trkpt>
      <trkpt lat="46.57172754406929" lon="6.770472563803196">
        <ele>791.299999999999955</ele>
        <time>2014-06-14T16:55:55Z</time>
      </trkpt>
      <trkpt lat="46.571757048368454" lon="6.770386481657624">
        <ele>790.82000000000005</ele>
        <time>2014-06-14T16:55:56Z</time>
      </trkpt>
      <trkpt lat="46.571787474676967" lon="6.770294113084674">
        <ele>789.860000000000014</ele>
        <time>2014-06-14T16:55:57Z</time>
      </trkpt>
      <trkpt lat="46.571875233203173" lon="6.770025892183185">
        <ele>787.940000000000055</ele>
        <time>2014-06-14T16:56:00Z</time>
      </trkpt>
      <trkpt lat="46.571913287043571" lon="6.769944420084357">
        <ele>786.980000000000018</ele>
        <time>2014-06-14T16:56:01Z</time>
      </trkpt>
      <trkpt lat="46.571959219872952" lon="6.769877532497048">
        <ele>786.019999999999982</ele>
        <time>2014-06-14T16:56:02Z</time>
      </trkpt>
      <trkpt lat="46.572003643959761" lon="6.769845765084028">
        <ele>785.529999999999973</ele>
        <time>2014-06-14T16:56:03Z</time>
      </trkpt>
      <trkpt lat="46.572048738598824" lon="6.769831432029605">
        <ele>785.049999999999955</ele>
        <time>2014-06-14T16:56:04Z</time>
      </trkpt>
      <trkpt lat="46.572100538760424" lon="6.769831851124763">
        <ele>784.090000000000032</ele>
        <time>2014-06-14T16:56:05Z</time>
      </trkpt>
      <trkpt lat="46.572153680026531" lon="6.769848866388202">
        <ele>783.610000000000014</ele>
        <time>2014-06-14T16:56:06Z</time>
      </trkpt>
      <trkpt lat="46.572209587320685" lon="6.769882226362824">
        <ele>783.129999999999995</ele>
        <time>2014-06-14T16:56:07Z</time>
      </trkpt>
      <trkpt lat="46.572261890396476" lon="6.769918855279684">
        <ele>782.169999999999959</ele>
        <time>2014-06-14T16:56:08Z</time>
      </trkpt>
      <trkpt lat="46.572530949488282" lon="6.770078865811229">
        <ele>779.289999999999964</ele>
        <time>2014-06-14T16:56:12Z</time>
      </trkpt>
      <trkpt lat="46.572606135159731" lon="6.770100072026253">
        <ele>777.840000000000032</ele>
        <time>2014-06-14T16:56:13Z</time>
      </trkpt>
      <trkpt lat="46.572682913392782" lon="6.770108118653297">
        <ele>776.879999999999995</ele>
        <time>2014-06-14T16:56:14Z</time>
      </trkpt>
      <trkpt lat="46.5727648884058" lon="6.770104598253965">
        <ele>775.919999999999959</ele>
        <time>2014-06-14T16:56:15Z</time>
      </trkpt>
      <trkpt lat="46.572845689952374" lon="6.770096216350794">
        <ele>774.480000000000018</ele>
        <time>2014-06-14T16:56:16Z</time>
      </trkpt>
      <trkpt lat="46.57306051813066" lon="6.770050786435604">
        <ele>771.600000000000023</ele>
        <time>2014-06-14T16:56:19Z</time>
      </trkpt>
      <trkpt lat="46.573118520900607" lon="6.770017091184855">
        <ele>770.149999999999977</ele>
        <time>2014-06-14T16:56:20Z</time>
      </trkpt>
      <trkpt lat="46.573171578347683" lon="6.769967470318079">
        <ele>769.190000000000055</ele>
        <time>2014-06-14T16:56:21Z</time>
      </trkpt>
      <trkpt lat="46.573222288861871" lon="6.769901840016246">
        <ele>768.230000000000018</ele>
        <time>2014-06-14T16:56:22Z</time>
      </trkpt>
      <trkpt lat="46.573274759575725" lon="6.769822966307402">
        <ele>767.75</ele>
        <time>2014-06-14T16:56:23Z</time>
      </trkpt>
      <trkpt lat="46.573461340740323" lon="6.769552985206246">
        <ele>763.899999999999977</ele>
        <time>2014-06-14T16:56:27Z</time>
      </trkpt>
      <trkpt lat="46.573510458692908" lon="6.76951845176518">
        <ele>762.940000000000055</ele>
        <time>2014-06-14T16:56:28Z</time>
      </trkpt>
      <trkpt lat="46.57356183975935" lon="6.769503951072693">
        <ele>761.980000000000018</ele>
        <time>2014-06-14T16:56:29Z</time>
      </trkpt>
      <trkpt lat="46.573606682941318" lon="6.76950235851109">
        <ele>761.019999999999982</ele>
        <time>2014-06-14T16:56:30Z</time>
      </trkpt>
      <trkpt lat="46.573645155876875" lon="6.769512668251991">
        <ele>760.059999999999945</ele>
        <time>2014-06-14T16:56:31Z</time>
      </trkpt>
      <trkpt lat="46.573675414547324" lon="6.769538819789886">
        <ele>758.620000000000005</ele>
        <time>2014-06-14T16:56:32Z</time>
      </trkpt>
      <trkpt lat="46.573697375133634" lon="6.769573269411922">
        <ele>757.659999999999968</ele>
        <time>2014-06-14T16:56:33Z</time>
      </trkpt>
      <trkpt lat="46.573713216930628" lon="6.769619453698397">
        <ele>756.690000000000055</ele>
        <time>2014-06-14T16:56:34Z</time>
      </trkpt>
      <trkpt lat="46.573725370690227" lon="6.769674019888043">
        <ele>755.730000000000018</ele>
        <time>2014-06-14T16:56:35Z</time>
      </trkpt>
      <trkpt lat="46.573728136718273" lon="6.769743086770177">
        <ele>755.25</ele>
        <time>2014-06-14T16:56:36Z</time>
      </trkpt>
      <trkpt lat="46.573720425367355" lon="6.769817098975182">
        <ele>754.769999999999982</ele>
        <time>2014-06-14T16:56:37Z</time>
      </trkpt>
      <trkpt lat="46.573708355426788" lon="6.769879963248968">
        <ele>754.289999999999964</ele>
        <time>2014-06-14T16:56:38Z</time>
      </trkpt>
      <trkpt lat="46.573685640469193" lon="6.769944420084357">
        <ele>753.809999999999945</ele>
        <time>2014-06-14T16:56:39Z</time>
      </trkpt>
      <trkpt lat="46.573665272444487" lon="6.770003512501717">
        <ele>753.330000000000041</ele>
        <time>2014-06-14T16:56:40Z</time>
      </trkpt>
      <trkpt lat="46.57364297658205" lon="6.770055815577507">
        <ele>753.330000000000041</ele>
        <time>2014-06-14T16:56:41Z</time>
      </trkpt>
      <trkpt lat="46.57362001016736" lon="6.770093617960811">
        <ele>753.330000000000041</ele>
        <time>2014-06-14T16:56:42Z</time>
      </trkpt>
      <trkpt lat="46.573598049581051" lon="6.770123708993196">
        <ele>752.850000000000023</ele>
        <time>2014-06-14T16:56:43Z</time>
      </trkpt>
      <trkpt lat="46.573586314916611" lon="6.770151201635599">
        <ele>752.850000000000023</ele>
        <time>2014-06-14T16:56:44Z</time>
      </trkpt>
      <trkpt lat="46.573617579415441" lon="6.770194871351123">
        <ele>755.730000000000018</ele>
        <time>2014-06-14T16:56:54Z</time>
      </trkpt>
      <trkpt lat="46.573671894147992" lon="6.770188668742776">
        <ele>763.419999999999959</ele>
        <time>2014-06-14T16:57:15Z</time>
      </trkpt>
      <trkpt lat="46.573738027364016" lon="6.770182801410556">
        <ele>774.960000000000036</ele>
        <time>2014-06-14T16:57:38Z</time>
      </trkpt>
      <trkpt lat="46.573744984343648" lon="6.770176514983177">
        <ele>778.32000000000005</ele>
        <time>2014-06-14T16:57:58Z</time>
      </trkpt>
      <trkpt lat="46.57375730574131" lon="6.7701874114573">
        <ele>777.840000000000032</ele>
        <time>2014-06-14T16:58:17Z</time>
      </trkpt>
      <trkpt lat="46.573768788948655" lon="6.77020501345396">
        <ele>781.210000000000036</ele>
        <time>2014-06-14T16:58:38Z</time>
      </trkpt>
      <trkpt lat="46.573805417865515" lon="6.770206354558468">
        <ele>784.57000000000005</ele>
        <time>2014-06-14T16:58:54Z</time>
      </trkpt>
      <trkpt lat="46.573797203600407" lon="6.770181460306048">
        <ele>785.049999999999955</ele>
        <time>2014-06-14T16:59:16Z</time>
      </trkpt>
      <trkpt lat="46.573806591331959" lon="6.770180705934763">
        <ele>786.019999999999982</ele>
        <time>2014-06-14T16:59:40Z</time>
      </trkpt>
      <trkpt lat="46.573808938264847" lon="6.77018984220922">
        <ele>787.460000000000036</ele>
        <time>2014-06-14T17:00:03Z</time>
      </trkpt>
      <trkpt lat="46.573800556361675" lon="6.770224710926414">
        <ele>787.460000000000036</ele>
        <time>2014-06-14T17:00:06Z</time>
      </trkpt>
      <trkpt lat="46.573792761191726" lon="6.770251281559467">
        <ele>787.460000000000036</ele>
        <time>2014-06-14T17:00:07Z</time>
      </trkpt>
      <trkpt lat="46.573784295469522" lon="6.770280953496695">
        <ele>787.460000000000036</ele>
        <time>2014-06-14T17:00:08Z</time>
      </trkpt>
      <trkpt lat="46.573773650452495" lon="6.770321605727077">
        <ele>787.460000000000036</ele>
        <time>2014-06-14T17:00:09Z</time>
      </trkpt>
      <trkpt lat="46.573755629360676" lon="6.770370556041598">
        <ele>786.980000000000018</ele>
        <time>2014-06-14T17:00:10Z</time>
      </trkpt>
      <trkpt lat="46.573731824755669" lon="6.77043073810637">
        <ele>786.980000000000018</ele>
        <time>2014-06-14T17:00:11Z</time>
      </trkpt>
      <trkpt lat="46.573702991008759" lon="6.770501313731074">
        <ele>786.5</ele>
        <time>2014-06-14T17:00:12Z</time>
      </trkpt>
      <trkpt lat="46.57367030158639" lon="6.770575828850269">
        <ele>786.5</ele>
        <time>2014-06-14T17:00:13Z</time>
      </trkpt>
      <trkpt lat="46.573357153683901" lon="6.771476296707988">
        <ele>783.129999999999995</ele>
        <time>2014-06-14T17:00:22Z</time>
      </trkpt>
      <trkpt lat="46.573331588879228" lon="6.771614262834191">
        <ele>782.649999999999977</ele>
        <time>2014-06-14T17:00:23Z</time>
      </trkpt>
      <trkpt lat="46.573324548080564" lon="6.771754575893283">
        <ele>781.690000000000055</ele>
        <time>2014-06-14T17:00:24Z</time>
      </trkpt>
      <trkpt lat="46.573345419019461" lon="6.77189078181982">
        <ele>780.730000000000018</ele>
        <time>2014-06-14T17:00:25Z</time>
      </trkpt>
      <trkpt lat="46.573382718488574" lon="6.772018689662218">
        <ele>779.769999999999982</ele>
        <time>2014-06-14T17:00:26Z</time>
      </trkpt>
      <trkpt lat="46.573423873633146" lon="6.772135533392429">
        <ele>778.809999999999945</ele>
        <time>2014-06-14T17:00:27Z</time>
      </trkpt>
      <trkpt lat="46.5734797809273" lon="6.772352457046509">
        <ele>777.360000000000014</ele>
        <time>2014-06-14T17:00:29Z</time>
      </trkpt>
      <trkpt lat="46.573495035991073" lon="6.772454800084233">
        <ele>776.399999999999977</ele>
        <time>2014-06-14T17:00:30Z</time>
      </trkpt>
      <trkpt lat="46.573500484228134" lon="6.772558065131307">
        <ele>775.919999999999959</ele>
        <time>2014-06-14T17:00:31Z</time>
      </trkpt>
      <trkpt lat="46.573497382923961" lon="6.772665018215775">
        <ele>774.960000000000036</ele>
        <time>2014-06-14T17:00:32Z</time>
      </trkpt>
      <trkpt lat="46.573481122031808" lon="6.772771216928959">
        <ele>774</ele>
        <time>2014-06-14T17:00:33Z</time>
      </trkpt>
      <trkpt lat="46.573420856148005" lon="6.77295888774097">
        <ele>772.080000000000041</ele>
        <time>2014-06-14T17:00:35Z</time>
      </trkpt>
      <trkpt lat="46.573337959125638" lon="6.773133231326938">
        <ele>769.669999999999959</ele>
        <time>2014-06-14T17:00:37Z</time>
      </trkpt>
      <trkpt lat="46.572685511782765" lon="6.77431189455092">
        <ele>758.620000000000005</ele>
        <time>2014-06-14T17:00:49Z</time>
      </trkpt>
      <trkpt lat="46.572517035529017" lon="6.774719841778278">
        <ele>757.17999999999995</ele>
        <time>2014-06-14T17:00:53Z</time>
      </trkpt>
      <trkpt lat="46.572496918961406" lon="6.774830901995301">
        <ele>756.690000000000055</ele>
        <time>2014-06-14T17:00:54Z</time>
      </trkpt>
      <trkpt lat="46.572485016658902" lon="6.774938274174929">
        <ele>756.690000000000055</ele>
        <time>2014-06-14T17:00:55Z</time>
      </trkpt>
      <trkpt lat="46.572465905919671" lon="6.775151761248708">
        <ele>756.210000000000036</ele>
        <time>2014-06-14T17:00:57Z</time>
      </trkpt>
      <trkpt lat="46.57244679518044" lon="6.775251924991608">
        <ele>755.730000000000018</ele>
        <time>2014-06-14T17:00:58Z</time>
      </trkpt>
      <trkpt lat="46.572420224547386" lon="6.775344125926495">
        <ele>755.730000000000018</ele>
        <time>2014-06-14T17:00:59Z</time>
      </trkpt>
      <trkpt lat="46.572379572317004" lon="6.775418557226658">
        <ele>756.210000000000036</ele>
        <time>2014-06-14T17:01:00Z</time>
      </trkpt>
      <trkpt lat="46.57232316210866" lon="6.775479577481747">
        <ele>756.690000000000055</ele>
        <time>2014-06-14T17:01:01Z</time>
      </trkpt>
      <trkpt lat="46.572264572605491" lon="6.775533640757203">
        <ele>756.690000000000055</ele>
        <time>2014-06-14T17:01:02Z</time>
      </trkpt>
      <trkpt lat="46.572034824639559" lon="6.775788115337491">
        <ele>756.210000000000036</ele>
        <time>2014-06-14T17:01:06Z</time>
      </trkpt>
      <trkpt lat="46.572003643959761" lon="6.775876963511109">
        <ele>755.730000000000018</ele>
        <time>2014-06-14T17:01:07Z</time>
      </trkpt>
      <trkpt lat="46.571994004771113" lon="6.775975786149502">
        <ele>755.25</ele>
        <time>2014-06-14T17:01:08Z</time>
      </trkpt>
      <trkpt lat="46.571998279541731" lon="6.77608516998589">
        <ele>754.769999999999982</ele>
        <time>2014-06-14T17:01:09Z</time>
      </trkpt>
      <trkpt lat="46.572012780234218" lon="6.776195643469691">
        <ele>754.289999999999964</ele>
        <time>2014-06-14T17:01:10Z</time>
      </trkpt>
      <trkpt lat="46.5720344055444" lon="6.77631139755249">
        <ele>753.809999999999945</ele>
        <time>2014-06-14T17:01:11Z</time>
      </trkpt>
      <trkpt lat="46.572463978081942" lon="6.777654513716698">
        <ele>746.120000000000005</ele>
        <time>2014-06-14T17:01:23Z</time>
      </trkpt>
      <trkpt lat="46.572491303086281" lon="6.777780409902334">
        <ele>744.67999999999995</ele>
        <time>2014-06-14T17:01:27Z</time>
      </trkpt>
      <trkpt lat="46.572484346106648" lon="6.777807651087642">
        <ele>744.67999999999995</ele>
        <time>2014-06-14T17:01:28Z</time>
      </trkpt>
      <trkpt lat="46.572485100477934" lon="6.777828857302666">
        <ele>745.159999999999968</ele>
        <time>2014-06-14T17:01:29Z</time>
      </trkpt>
      <trkpt lat="46.572494907304645" lon="6.777862133458257">
        <ele>744.67999999999995</ele>
        <time>2014-06-14T17:01:30Z</time>
      </trkpt>
      <trkpt lat="46.572513850405812" lon="6.777906976640224">
        <ele>744.67999999999995</ele>
        <time>2014-06-14T17:01:31Z</time>
      </trkpt>
      <trkpt lat="46.572621474042535" lon="6.778253149241209">
        <ele>743.240000000000009</ele>
        <time>2014-06-14T17:01:36Z</time>
      </trkpt>
      <trkpt lat="46.572702443227172" lon="6.779097709804773">
        <ele>741.309999999999945</ele>
        <time>2014-06-14T17:01:45Z</time>
      </trkpt>
      <trkpt lat="46.572725493460894" lon="6.779194353148341">
        <ele>741.309999999999945</ele>
        <time>2014-06-14T17:01:46Z</time>
      </trkpt>
      <trkpt lat="46.573107037693262" lon="6.780363712459803">
        <ele>740.830000000000041</ele>
        <time>2014-06-14T17:02:00Z</time>
      </trkpt>
      <trkpt lat="46.573128746822476" lon="6.780437640845776">
        <ele>740.830000000000041</ele>
        <time>2014-06-14T17:02:01Z</time>
      </trkpt>
      <trkpt lat="46.573151797056198" lon="6.780505450442433">
        <ele>740.350000000000023</ele>
        <time>2014-06-14T17:02:02Z</time>
      </trkpt>
      <trkpt lat="46.573163280263543" lon="6.780569907277822">
        <ele>739.870000000000005</ele>
        <time>2014-06-14T17:02:03Z</time>
      </trkpt>
      <trkpt lat="46.573158670216799" lon="6.780624305829406">
        <ele>739.870000000000005</ele>
        <time>2014-06-14T17:02:04Z</time>
      </trkpt>
      <trkpt lat="46.57314601354301" lon="6.780663868412375">
        <ele>740.350000000000023</ele>
        <time>2014-06-14T17:02:05Z</time>
      </trkpt>
      <trkpt lat="46.573142325505614" lon="6.780697144567966">
        <ele>740.830000000000041</ele>
        <time>2014-06-14T17:02:06Z</time>
      </trkpt>
      <trkpt lat="46.573139643296599" lon="6.780731342732906">
        <ele>740.830000000000041</ele>
        <time>2014-06-14T17:02:07Z</time>
      </trkpt>
      <trkpt lat="46.573144337162375" lon="6.78077450953424">
        <ele>741.309999999999945</ele>
        <time>2014-06-14T17:02:08Z</time>
      </trkpt>
      <trkpt lat="46.573167135939002" lon="6.780836367979646">
        <ele>741.309999999999945</ele>
        <time>2014-06-14T17:02:09Z</time>
      </trkpt>
      <trkpt lat="46.573193706572056" lon="6.780888922512531">
        <ele>741.309999999999945</ele>
        <time>2014-06-14T17:02:10Z</time>
      </trkpt>
      <trkpt lat="46.573203429579735" lon="6.780925635248423">
        <ele>741.309999999999945</ele>
        <time>2014-06-14T17:02:11Z</time>
      </trkpt>
      <trkpt lat="46.573205189779401" lon="6.780993780121207">
        <ele>741.789999999999964</ele>
        <time>2014-06-14T17:02:12Z</time>
      </trkpt>
      <trkpt lat="46.573187923058867" lon="6.781053459271789">
        <ele>741.789999999999964</ele>
        <time>2014-06-14T17:02:13Z</time>
      </trkpt>
      <trkpt lat="46.573162609711289" lon="6.781098721548915">
        <ele>742.279999999999973</ele>
        <time>2014-06-14T17:02:14Z</time>
      </trkpt>
      <trkpt lat="46.573130926117301" lon="6.781152114272118">
        <ele>742.759999999999991</ele>
        <time>2014-06-14T17:02:15Z</time>
      </trkpt>
      <trkpt lat="46.573098404332995" lon="6.781206009909511">
        <ele>742.759999999999991</ele>
        <time>2014-06-14T17:02:16Z</time>
      </trkpt>
      <trkpt lat="46.573059931397438" lon="6.781255630776286">
        <ele>742.759999999999991</ele>
        <time>2014-06-14T17:02:17Z</time>
      </trkpt>
      <trkpt lat="46.573018608614802" lon="6.781300138682127">
        <ele>742.759999999999991</ele>
        <time>2014-06-14T17:02:18Z</time>
      </trkpt>
      <trkpt lat="46.572231883183122" lon="6.782123073935509">
        <ele>742.279999999999973</ele>
        <time>2014-06-14T17:02:34Z</time>
      </trkpt>
      <trkpt lat="46.57218343578279" lon="6.782178729772568">
        <ele>742.279999999999973</ele>
        <time>2014-06-14T17:02:35Z</time>
      </trkpt>
      <trkpt lat="46.572140688076615" lon="6.782242264598608">
        <ele>742.279999999999973</ele>
        <time>2014-06-14T17:02:36Z</time>
      </trkpt>
      <trkpt lat="46.572104394435883" lon="6.782317282631993">
        <ele>742.279999999999973</ele>
        <time>2014-06-14T17:02:37Z</time>
      </trkpt>
      <trkpt lat="46.57207639887929" lon="6.782404705882072">
        <ele>742.279999999999973</ele>
        <time>2014-06-14T17:02:38Z</time>
      </trkpt>
      <trkpt lat="46.572062317281961" lon="6.782490704208612">
        <ele>741.789999999999964</ele>
        <time>2014-06-14T17:02:39Z</time>
      </trkpt>
      <trkpt lat="46.572058964520693" lon="6.782583659514785">
        <ele>741.789999999999964</ele>
        <time>2014-06-14T17:02:40Z</time>
      </trkpt>
      <trkpt lat="46.572065921500325" lon="6.782676866278052">
        <ele>741.789999999999964</ele>
        <time>2014-06-14T17:02:41Z</time>
      </trkpt>
      <trkpt lat="46.572078661993146" lon="6.782769234851003">
        <ele>741.309999999999945</ele>
        <time>2014-06-14T17:02:42Z</time>
      </trkpt>
      <trkpt lat="46.572119817137718" lon="6.783116916194558">
        <ele>741.309999999999945</ele>
        <time>2014-06-14T17:02:46Z</time>
      </trkpt>
      <trkpt lat="46.572125935927033" lon="6.78320400416851">
        <ele>740.830000000000041</ele>
        <time>2014-06-14T17:02:47Z</time>
      </trkpt>
      <trkpt lat="46.572137083858252" lon="6.783278435468674">
        <ele>740.830000000000041</ele>
        <time>2014-06-14T17:02:48Z</time>
      </trkpt>
      <trkpt lat="46.572165666148067" lon="6.783370384946465">
        <ele>740.830000000000041</ele>
        <time>2014-06-14T17:02:49Z</time>
      </trkpt>
      <trkpt lat="46.572193996980786" lon="6.783429812639952">
        <ele>740.830000000000041</ele>
        <time>2014-06-14T17:02:50Z</time>
      </trkpt>
      <trkpt lat="46.572232134640217" lon="6.783492425456643">
        <ele>740.830000000000041</ele>
        <time>2014-06-14T17:02:51Z</time>
      </trkpt>
      <trkpt lat="46.572279408574104" lon="6.783555541187525">
        <ele>740.830000000000041</ele>
        <time>2014-06-14T17:02:52Z</time>
      </trkpt>
      <trkpt lat="46.572329280897975" lon="6.783615723252296">
        <ele>740.830000000000041</ele>
        <time>2014-06-14T17:02:53Z</time>
      </trkpt>
      <trkpt lat="46.572438832372427" lon="6.783721167594194">
        <ele>740.830000000000041</ele>
        <time>2014-06-14T17:02:55Z</time>
      </trkpt>
      <trkpt lat="46.572500020265579" lon="6.783759389072657">
        <ele>740.830000000000041</ele>
        <time>2014-06-14T17:02:56Z</time>
      </trkpt>
      <trkpt lat="46.573263108730316" lon="6.784223830327392">
        <ele>741.789999999999964</ele>
        <time>2014-06-14T17:03:11Z</time>
      </trkpt>
      <trkpt lat="46.573525462299585" lon="6.784731606021523">
        <ele>743.240000000000009</ele>
        <time>2014-06-14T17:03:21Z</time>
      </trkpt>
      <trkpt lat="46.573507944121957" lon="6.78479447029531">
        <ele>743.240000000000009</ele>
        <time>2014-06-14T17:03:22Z</time>
      </trkpt>
      <trkpt lat="46.573490342125297" lon="6.784830177202821">
        <ele>743.240000000000009</ele>
        <time>2014-06-14T17:03:23Z</time>
      </trkpt>
      <trkpt lat="46.573429992422462" lon="6.784931849688292">
        <ele>743.240000000000009</ele>
        <time>2014-06-14T17:03:25Z</time>
      </trkpt>
      <trkpt lat="46.573270065709949" lon="6.785154053941369">
        <ele>742.759999999999991</ele>
        <time>2014-06-14T17:03:29Z</time>
      </trkpt>
      <trkpt lat="46.572601860389113" lon="6.785844387486577">
        <ele>739.389999999999986</ele>
        <time>2014-06-14T17:03:40Z</time>
      </trkpt>
      <trkpt lat="46.572527680546045" lon="6.785880597308278">
        <ele>739.389999999999986</ele>
        <time>2014-06-14T17:03:41Z</time>
      </trkpt>
      <trkpt lat="46.571055566892028" lon="6.786546455696225">
        <ele>736.029999999999973</ele>
        <time>2014-06-14T17:04:02Z</time>
      </trkpt>
      <trkpt lat="46.570100616663694" lon="6.787202088162303">
        <ele>727.370000000000005</ele>
        <time>2014-06-14T17:04:13Z</time>
      </trkpt>
      <trkpt lat="46.570001374930143" lon="6.787310969084501">
        <ele>726.409999999999968</ele>
        <time>2014-06-14T17:04:14Z</time>
      </trkpt>
      <trkpt lat="46.569907832890749" lon="6.787438709288836">
        <ele>724.970000000000027</ele>
        <time>2014-06-14T17:04:15Z</time>
      </trkpt>
      <trkpt lat="46.569525366649032" lon="6.788026029244065">
        <ele>718.240000000000009</ele>
        <time>2014-06-14T17:04:20Z</time>
      </trkpt>
      <trkpt lat="46.569480188190937" lon="6.788140442222357">
        <ele>717.279999999999973</ele>
        <time>2014-06-14T17:04:21Z</time>
      </trkpt>
      <trkpt lat="46.569459484890103" lon="6.788273043930531">
        <ele>715.840000000000032</ele>
        <time>2014-06-14T17:04:22Z</time>
      </trkpt>
      <trkpt lat="46.569461412727833" lon="6.788402209058404">
        <ele>714.879999999999995</ele>
        <time>2014-06-14T17:04:23Z</time>
      </trkpt>
      <trkpt lat="46.5694734826684" lon="6.788530619814992">
        <ele>713.919999999999959</ele>
        <time>2014-06-14T17:04:24Z</time>
      </trkpt>
      <trkpt lat="46.569506926462054" lon="6.789508201181889">
        <ele>708.149999999999977</ele>
        <time>2014-06-14T17:04:31Z</time>
      </trkpt>
      <trkpt lat="46.569486474618316" lon="6.789649268612266">
        <ele>707.669999999999959</ele>
        <time>2014-06-14T17:04:32Z</time>
      </trkpt>
      <trkpt lat="46.569451605901122" lon="6.789789665490389">
        <ele>707.190000000000055</ele>
        <time>2014-06-14T17:04:33Z</time>
      </trkpt>
      <trkpt lat="46.569407433271408" lon="6.789922015741467">
        <ele>706.710000000000036</ele>
        <time>2014-06-14T17:04:34Z</time>
      </trkpt>
      <trkpt lat="46.569356555119157" lon="6.790047325193882">
        <ele>707.190000000000055</ele>
        <time>2014-06-14T17:04:35Z</time>
      </trkpt>
      <trkpt lat="46.569302240386605" lon="6.790159810334444">
        <ele>707.190000000000055</ele>
        <time>2014-06-14T17:04:36Z</time>
      </trkpt>
      <trkpt lat="46.568905357271433" lon="6.791052483022213">
        <ele>710.549999999999955</ele>
        <time>2014-06-14T17:04:46Z</time>
      </trkpt>
      <trkpt lat="46.568760853260756" lon="6.79151214659214">
        <ele>717.279999999999973</ele>
        <time>2014-06-14T17:04:58Z</time>
      </trkpt>
      <trkpt lat="46.56873076222837" lon="6.791535029187799">
        <ele>717.279999999999973</ele>
        <time>2014-06-14T17:04:59Z</time>
      </trkpt>
      <trkpt lat="46.56869363039732" lon="6.791539806872606">
        <ele>717.759999999999991</ele>
        <time>2014-06-14T17:05:00Z</time>
      </trkpt>
      <trkpt lat="46.568669490516186" lon="6.79153268225491">
        <ele>717.759999999999991</ele>
        <time>2014-06-14T17:05:01Z</time>
      </trkpt>
      <trkpt lat="46.568635459989309" lon="6.791518768295646">
        <ele>717.759999999999991</ele>
        <time>2014-06-14T17:05:02Z</time>
      </trkpt>
      <trkpt lat="46.56814000569284" lon="6.791351214051247">
        <ele>719.67999999999995</ele>
        <time>2014-06-14T17:05:15Z</time>
      </trkpt>
      <trkpt lat="46.567370798438787" lon="6.79110218770802">
        <ele>721.610000000000014</ele>
        <time>2014-06-14T17:05:33Z</time>
      </trkpt>
      <trkpt lat="46.567155886441469" lon="6.791031947359443">
        <ele>722.090000000000032</ele>
        <time>2014-06-14T17:05:38Z</time>
      </trkpt>
      <trkpt lat="46.567113054916263" lon="6.79103814996779">
        <ele>722.57000000000005</ele>
        <time>2014-06-14T17:05:39Z</time>
      </trkpt>
      <trkpt lat="46.567069385200739" lon="6.791072096675634">
        <ele>722.57000000000005</ele>
        <time>2014-06-14T17:05:40Z</time>
      </trkpt>
      <trkpt lat="46.567037533968687" lon="6.79113538004458">
        <ele>722.57000000000005</ele>
        <time>2014-06-14T17:05:41Z</time>
      </trkpt>
      <trkpt lat="46.567025044932961" lon="6.791187599301338">
        <ele>722.090000000000032</ele>
        <time>2014-06-14T17:05:42Z</time>
      </trkpt>
      <trkpt lat="46.567010125145316" lon="6.791265634819865">
        <ele>722.090000000000032</ele>
        <time>2014-06-14T17:05:43Z</time>
      </trkpt>
      <trkpt lat="46.566778030246496" lon="6.792208096012473">
        <ele>719.67999999999995</ele>
        <time>2014-06-14T17:05:53Z</time>
      </trkpt>
      <trkpt lat="46.566166738048196" lon="6.794522926211357">
        <ele>718.720000000000027</ele>
        <time>2014-06-14T17:06:14Z</time>
      </trkpt>
      <trkpt lat="46.565940594300628" lon="6.795369498431683">
        <ele>721.129999999999995</ele>
        <time>2014-06-14T17:06:26Z</time>
      </trkpt>
      <trkpt lat="46.565508423373103" lon="6.796335848048329">
        <ele>714.399999999999977</ele>
        <time>2014-06-14T17:06:36Z</time>
      </trkpt>
      <trkpt lat="46.565381269901991" lon="6.796514382585883">
        <ele>712.470000000000027</ele>
        <time>2014-06-14T17:06:38Z</time>
      </trkpt>
      <trkpt lat="46.565311700105667" lon="6.796579509973526">
        <ele>711.029999999999973</ele>
        <time>2014-06-14T17:06:39Z</time>
      </trkpt>
      <trkpt lat="46.564730750396848" lon="6.797018889337778">
        <ele>700.460000000000036</ele>
        <time>2014-06-14T17:06:48Z</time>
      </trkpt>
      <trkpt lat="46.564275864511728" lon="6.797144534066319">
        <ele>693.25</ele>
        <time>2014-06-14T17:06:55Z</time>
      </trkpt>
      <trkpt lat="46.564194643869996" lon="6.797128105536103">
        <ele>692.769999999999982</ele>
        <time>2014-06-14T17:06:56Z</time>
      </trkpt>
      <trkpt lat="46.563491150736809" lon="6.796768857166171">
        <ele>692.769999999999982</ele>
        <time>2014-06-14T17:07:07Z</time>
      </trkpt>
      <trkpt lat="46.563378414139152" lon="6.796697527170181">
        <ele>691.809999999999945</ele>
        <time>2014-06-14T17:07:09Z</time>
      </trkpt>
      <trkpt lat="46.563320579007268" lon="6.796677829697728">
        <ele>691.809999999999945</ele>
        <time>2014-06-14T17:07:10Z</time>
      </trkpt>
      <trkpt lat="46.563267018646002" lon="6.796669028699398">
        <ele>691.330000000000041</ele>
        <time>2014-06-14T17:07:11Z</time>
      </trkpt>
      <trkpt lat="46.563220834359527" lon="6.796669699251652">
        <ele>691.330000000000041</ele>
        <time>2014-06-14T17:07:12Z</time>
      </trkpt>
      <trkpt lat="46.563187558203936" lon="6.796686295419931">
        <ele>690.840000000000032</ele>
        <time>2014-06-14T17:07:13Z</time>
      </trkpt>
      <trkpt lat="46.56316283158958" lon="6.79672141559422">
        <ele>690.840000000000032</ele>
        <time>2014-06-14T17:07:14Z</time>
      </trkpt>
      <trkpt lat="46.563148749992251" lon="6.796775059774518">
        <ele>690.840000000000032</ele>
        <time>2014-06-14T17:07:15Z</time>
      </trkpt>
      <trkpt lat="46.56314866617322" lon="6.796827111393213">
        <ele>690.360000000000014</ele>
        <time>2014-06-14T17:07:16Z</time>
      </trkpt>
      <trkpt lat="46.563159059733152" lon="6.796905230730772">
        <ele>690.360000000000014</ele>
        <time>2014-06-14T17:07:17Z</time>
      </trkpt>
      <trkpt lat="46.563182445243001" lon="6.796989468857646">
        <ele>689.879999999999995</ele>
        <time>2014-06-14T17:07:18Z</time>
      </trkpt>
      <trkpt lat="46.563209099695086" lon="6.79707420989871">
        <ele>689.399999999999977</ele>
        <time>2014-06-14T17:07:19Z</time>
      </trkpt>
      <trkpt lat="46.563237011432648" lon="6.797169344499707">
        <ele>688.440000000000055</ele>
        <time>2014-06-14T17:07:20Z</time>
      </trkpt>
      <trkpt lat="46.563624674454331" lon="6.798423528671265">
        <ele>680.75</ele>
        <time>2014-06-14T17:07:30Z</time>
      </trkpt>
      <trkpt lat="46.564302686601877" lon="6.800687983632088">
        <ele>663.92999999999995</ele>
        <time>2014-06-14T17:07:44Z</time>
      </trkpt>
      <trkpt lat="46.565088909119368" lon="6.803288636729121">
        <ele>646.620000000000005</ele>
        <time>2014-06-14T17:08:00Z</time>
      </trkpt>
      <trkpt lat="46.565226707607508" lon="6.803736565634608">
        <ele>645.659999999999968</ele>
        <time>2014-06-14T17:08:04Z</time>
      </trkpt>
      <trkpt lat="46.565250428393483" lon="6.803828347474337">
        <ele>645.17999999999995</ele>
        <time>2014-06-14T17:08:05Z</time>
      </trkpt>
      <trkpt lat="46.565272472798824" lon="6.803896659985185">
        <ele>645.17999999999995</ele>
        <time>2014-06-14T17:08:06Z</time>
      </trkpt>
      <trkpt lat="46.565289488062263" lon="6.803950220346451">
        <ele>645.17999999999995</ele>
        <time>2014-06-14T17:08:07Z</time>
      </trkpt>
      <trkpt lat="46.565304910764098" lon="6.80398341268301">
        <ele>645.17999999999995</ele>
        <time>2014-06-14T17:08:08Z</time>
      </trkpt>
      <trkpt lat="46.565334666520357" lon="6.804001769050956">
        <ele>645.17999999999995</ele>
        <time>2014-06-14T17:08:09Z</time>
      </trkpt>
      <trkpt lat="46.565368361771107" lon="6.803987268358469">
        <ele>645.17999999999995</ele>
        <time>2014-06-14T17:08:10Z</time>
      </trkpt>
      <trkpt lat="46.565386801958084" lon="6.80396044626832">
        <ele>645.17999999999995</ele>
        <time>2014-06-14T17:08:11Z</time>
      </trkpt>
      <trkpt lat="46.565391244366765" lon="6.803915435448289">
        <ele>645.17999999999995</ele>
        <time>2014-06-14T17:08:12Z</time>
      </trkpt>
      <trkpt lat="46.565376576036215" lon="6.803885092958808">
        <ele>645.659999999999968</ele>
        <time>2014-06-14T17:08:13Z</time>
      </trkpt>
      <trkpt lat="46.565363751724362" lon="6.803876208141446">
        <ele>645.659999999999968</ele>
        <time>2014-06-14T17:08:14Z</time>
      </trkpt>
      <trkpt lat="46.565242214128375" lon="6.80361402221024">
        <ele>646.620000000000005</ele>
        <time>2014-06-14T17:08:23Z</time>
      </trkpt>
      <trkpt lat="46.565179685130715" lon="6.803436409682035">
        <ele>647.100000000000023</ele>
        <time>2014-06-14T17:08:26Z</time>
      </trkpt>
      <trkpt lat="46.565123442560434" lon="6.803320152685046">
        <ele>647.590000000000032</ele>
        <time>2014-06-14T17:08:28Z</time>
      </trkpt>
      <trkpt lat="46.565057812258601" lon="6.803206913173199">
        <ele>647.590000000000032</ele>
        <time>2014-06-14T17:08:30Z</time>
      </trkpt>
      <trkpt lat="46.565019842237234" lon="6.803157292306423">
        <ele>647.590000000000032</ele>
        <time>2014-06-14T17:08:31Z</time>
      </trkpt>
      <trkpt lat="46.564975082874298" lon="6.803118651732802">
        <ele>647.590000000000032</ele>
        <time>2014-06-14T17:08:32Z</time>
      </trkpt>
      <trkpt lat="46.564928228035569" lon="6.80308286100626">
        <ele>648.07000000000005</ele>
        <time>2014-06-14T17:08:33Z</time>
      </trkpt>
      <trkpt lat="46.564882546663284" lon="6.803040616214275">
        <ele>648.07000000000005</ele>
        <time>2014-06-14T17:08:34Z</time>
      </trkpt>
      <trkpt lat="46.564835608005524" lon="6.802992336452007">
        <ele>647.590000000000032</ele>
        <time>2014-06-14T17:08:35Z</time>
      </trkpt>
      <trkpt lat="46.564123313874006" lon="6.802137298509479">
        <ele>648.07000000000005</ele>
        <time>2014-06-14T17:08:51Z</time>
      </trkpt>
      <trkpt lat="46.563795413821936" lon="6.801725830882788">
        <ele>649.509999999999991</ele>
        <time>2014-06-14T17:09:00Z</time>
      </trkpt>
      <trkpt lat="46.563757443800569" lon="6.801694063469768">
        <ele>649.509999999999991</ele>
        <time>2014-06-14T17:09:01Z</time>
      </trkpt>
      <trkpt lat="46.563665494322777" lon="6.801643772050738">
        <ele>649.509999999999991</ele>
        <time>2014-06-14T17:09:03Z</time>
      </trkpt>
      <trkpt lat="46.563451169058681" lon="6.801622062921524">
        <ele>649.029999999999973</ele>
        <time>2014-06-14T17:09:07Z</time>
      </trkpt>
      <trkpt lat="46.563016148284078" lon="6.801679646596313">
        <ele>648.07000000000005</ele>
        <time>2014-06-14T17:09:14Z</time>
      </trkpt>
      <trkpt lat="46.562814563512802" lon="6.801723735406995">
        <ele>647.100000000000023</ele>
        <time>2014-06-14T17:09:17Z</time>
      </trkpt>
      <trkpt lat="46.56275630928576" lon="6.801798082888126">
        <ele>646.620000000000005</ele>
        <time>2014-06-14T17:09:18Z</time>
      </trkpt>
      <trkpt lat="46.562723619863391" lon="6.801869077607989">
        <ele>646.620000000000005</ele>
        <time>2014-06-14T17:09:19Z</time>
      </trkpt>
      <trkpt lat="46.562693193554878" lon="6.801966475322843">
        <ele>646.139999999999986</ele>
        <time>2014-06-14T17:09:20Z</time>
      </trkpt>
      <trkpt lat="46.562672238796949" lon="6.802072003483772">
        <ele>645.659999999999968</ele>
        <time>2014-06-14T17:09:21Z</time>
      </trkpt>
      <trkpt lat="46.562657654285431" lon="6.802181471139193">
        <ele>645.17999999999995</ele>
        <time>2014-06-14T17:09:22Z</time>
      </trkpt>
      <trkpt lat="46.56264491379261" lon="6.802296051755548">
        <ele>644.700000000000045</ele>
        <time>2014-06-14T17:09:23Z</time>
      </trkpt>
      <trkpt lat="46.562626138329506" lon="6.802535019814968">
        <ele>643.740000000000009</ele>
        <time>2014-06-14T17:09:25Z</time>
      </trkpt>
      <trkpt lat="46.562669137492776" lon="6.803914429619908">
        <ele>636.049999999999955</ele>
        <time>2014-06-14T17:09:35Z</time>
      </trkpt>
      <trkpt lat="46.5626937802881" lon="6.804018532857299">
        <ele>635.57000000000005</ele>
        <time>2014-06-14T17:09:36Z</time>
      </trkpt>
      <trkpt lat="46.562734013423324" lon="6.804114505648613">
        <ele>635.090000000000032</ele>
        <time>2014-06-14T17:09:37Z</time>
      </trkpt>
      <trkpt lat="46.562787154689431" lon="6.804202431812882">
        <ele>634.129999999999995</ele>
        <time>2014-06-14T17:09:38Z</time>
      </trkpt>
      <trkpt lat="46.562849432229996" lon="6.804278120398521">
        <ele>633.649999999999977</ele>
        <time>2014-06-14T17:09:39Z</time>
      </trkpt>
      <trkpt lat="46.562915481626987" lon="6.804343080148101">
        <ele>633.169999999999959</ele>
        <time>2014-06-14T17:09:40Z</time>
      </trkpt>
      <trkpt lat="46.562979770824313" lon="6.804396891966462">
        <ele>632.200000000000045</ele>
        <time>2014-06-14T17:09:41Z</time>
      </trkpt>
      <trkpt lat="46.563035259023309" lon="6.804443662986159">
        <ele>632.200000000000045</ele>
        <time>2014-06-14T17:09:42Z</time>
      </trkpt>
      <trkpt lat="46.563075156882405" lon="6.804491272196174">
        <ele>631.720000000000027</ele>
        <time>2014-06-14T17:09:43Z</time>
      </trkpt>
      <trkpt lat="46.563091920688748" lon="6.804542653262615">
        <ele>631.240000000000009</ele>
        <time>2014-06-14T17:09:44Z</time>
      </trkpt>
      <trkpt lat="46.563079012557864" lon="6.80459713563323">
        <ele>631.240000000000009</ele>
        <time>2014-06-14T17:09:45Z</time>
      </trkpt>
      <trkpt lat="46.563041293993592" lon="6.804619180038571">
        <ele>630.759999999999991</ele>
        <time>2014-06-14T17:09:46Z</time>
      </trkpt>
      <trkpt lat="46.563015477731824" lon="6.804615575820208">
        <ele>630.759999999999991</ele>
        <time>2014-06-14T17:09:47Z</time>
      </trkpt>
      <trkpt lat="46.562970383092761" lon="6.804604679346085">
        <ele>630.759999999999991</ele>
        <time>2014-06-14T17:09:48Z</time>
      </trkpt>
      <trkpt lat="46.562485406175256" lon="6.80456000380218">
        <ele>627.399999999999977</ele>
        <time>2014-06-14T17:09:55Z</time>
      </trkpt>
      <trkpt lat="46.562400246039033" lon="6.804574253037572">
        <ele>626.919999999999959</ele>
        <time>2014-06-14T17:09:56Z</time>
      </trkpt>
      <trkpt lat="46.562314247712493" lon="6.804607026278973">
        <ele>625.960000000000036</ele>
        <time>2014-06-14T17:09:57Z</time>
      </trkpt>
      <trkpt lat="46.562229506671429" lon="6.804665867239237">
        <ele>625.470000000000027</ele>
        <time>2014-06-14T17:09:58Z</time>
      </trkpt>
      <trkpt lat="46.562151135876775" lon="6.804751111194491">
        <ele>624.990000000000009</ele>
        <time>2014-06-14T17:09:59Z</time>
      </trkpt>
      <trkpt lat="46.562080811709166" lon="6.804852029308677">
        <ele>624.509999999999991</ele>
        <time>2014-06-14T17:10:00Z</time>
      </trkpt>
      <trkpt lat="46.562014678493142" lon="6.804960826411843">
        <ele>623.549999999999955</ele>
        <time>2014-06-14T17:10:01Z</time>
      </trkpt>
      <trkpt lat="46.561887692660093" lon="6.805151849985123">
        <ele>622.590000000000032</ele>
        <time>2014-06-14T17:10:03Z</time>
      </trkpt>
      <trkpt lat="46.56182155944407" lon="6.805216642096639">
        <ele>622.110000000000014</ele>
        <time>2014-06-14T17:10:04Z</time>
      </trkpt>
      <trkpt lat="46.561751654371619" lon="6.805249750614166">
        <ele>622.110000000000014</ele>
        <time>2014-06-14T17:10:05Z</time>
      </trkpt>
      <trkpt lat="46.561682000756264" lon="6.805243631824851">
        <ele>621.629999999999995</ele>
        <time>2014-06-14T17:10:06Z</time>
      </trkpt>
      <trkpt lat="46.56162173487246" lon="6.805198453366756">
        <ele>621.149999999999977</ele>
        <time>2014-06-14T17:10:07Z</time>
      </trkpt>
      <trkpt lat="46.561577562242746" lon="6.8051219265908">
        <ele>620.669999999999959</ele>
        <time>2014-06-14T17:10:08Z</time>
      </trkpt>
      <trkpt lat="46.561547052115202" lon="6.805036766454577">
        <ele>620.669999999999959</ele>
        <time>2014-06-14T17:10:09Z</time>
      </trkpt>
      <trkpt lat="46.561520649120212" lon="6.80495772510767">
        <ele>620.669999999999959</ele>
        <time>2014-06-14T17:10:10Z</time>
      </trkpt>
      <trkpt lat="46.561427358537912" lon="6.804749853909016">
        <ele>620.669999999999959</ele>
        <time>2014-06-14T17:10:13Z</time>
      </trkpt>
      <trkpt lat="46.561321662738919" lon="6.804591855034232">
        <ele>621.149999999999977</ele>
        <time>2014-06-14T17:10:16Z</time>
      </trkpt>
      <trkpt lat="46.561293331906199" lon="6.804551957175136">
        <ele>621.629999999999995</ele>
        <time>2014-06-14T17:10:17Z</time>
      </trkpt>
      <trkpt lat="46.561124185100198" lon="6.80429907515645">
        <ele>626.919999999999959</ele>
        <time>2014-06-14T17:10:27Z</time>
      </trkpt>
      <trkpt lat="46.560888653621078" lon="6.804006043821573">
        <ele>631.240000000000009</ele>
        <time>2014-06-14T17:10:38Z</time>
      </trkpt>
      <trkpt lat="46.560799805447459" lon="6.803910741582513">
        <ele>633.649999999999977</ele>
        <time>2014-06-14T17:10:44Z</time>
      </trkpt>
      <trkpt lat="46.560790836811066" lon="6.803892301395535">
        <ele>633.649999999999977</ele>
        <time>2014-06-14T17:10:45Z</time>
      </trkpt>
      <trkpt lat="46.560782454907894" lon="6.803875537589192">
        <ele>633.649999999999977</ele>
        <time>2014-06-14T17:10:46Z</time>
      </trkpt>
      <trkpt lat="46.560773737728596" lon="6.803859528154135">
        <ele>634.129999999999995</ele>
        <time>2014-06-14T17:10:47Z</time>
      </trkpt>
      <trkpt lat="46.560763763263822" lon="6.803844524547458">
        <ele>634.610000000000014</ele>
        <time>2014-06-14T17:10:48Z</time>
      </trkpt>
      <trkpt lat="46.560753118246794" lon="6.803827676922083">
        <ele>635.090000000000032</ele>
        <time>2014-06-14T17:10:49Z</time>
      </trkpt>
      <trkpt lat="46.560743981972337" lon="6.803811835125089">
        <ele>635.090000000000032</ele>
        <time>2014-06-14T17:10:50Z</time>
      </trkpt>
      <trkpt lat="46.560659324750304" lon="6.803516037762165">
        <ele>637.970000000000027</ele>
        <time>2014-06-14T17:11:05Z</time>
      </trkpt>
      <trkpt lat="46.560635603964329" lon="6.803184952586889">
        <ele>642.779999999999973</ele>
        <time>2014-06-14T17:11:22Z</time>
      </trkpt>
      <trkpt lat="46.560634011402726" lon="6.803136756643653">
        <ele>643.259999999999991</ele>
        <time>2014-06-14T17:11:25Z</time>
      </trkpt>
      <trkpt lat="46.560641136020422" lon="6.803120076656342">
        <ele>643.259999999999991</ele>
        <time>2014-06-14T17:11:26Z</time>
      </trkpt>
      <trkpt lat="46.560620851814747" lon="6.802951265126467">
        <ele>644.220000000000027</ele>
        <time>2014-06-14T17:11:37Z</time>
      </trkpt>
      <trkpt lat="46.56060534529388" lon="6.802917150780559">
        <ele>644.700000000000045</ele>
        <time>2014-06-14T17:11:39Z</time>
      </trkpt>
      <trkpt lat="46.560596292838454" lon="6.802898375317454">
        <ele>644.700000000000045</ele>
        <time>2014-06-14T17:11:40Z</time>
      </trkpt>
      <trkpt lat="46.560574499890208" lon="6.802863171324134">
        <ele>644.700000000000045</ele>
        <time>2014-06-14T17:11:42Z</time>
      </trkpt>
      <trkpt lat="46.560561843216419" lon="6.802848000079393">
        <ele>644.700000000000045</ele>
        <time>2014-06-14T17:11:43Z</time>
      </trkpt>
      <trkpt lat="46.560550024732947" lon="6.802833499386907">
        <ele>644.700000000000045</ele>
        <time>2014-06-14T17:11:44Z</time>
      </trkpt>
      <trkpt lat="46.560539966449142" lon="6.80281707085669">
        <ele>644.700000000000045</ele>
        <time>2014-06-14T17:11:45Z</time>
      </trkpt>
      <trkpt lat="46.560426978394389" lon="6.802657060325146">
        <ele>647.590000000000032</ele>
        <time>2014-06-14T17:11:57Z</time>
      </trkpt>
      <trkpt lat="46.560314912348986" lon="6.802511718124151">
        <ele>651.42999999999995</ele>
        <time>2014-06-14T17:12:08Z</time>
      </trkpt>
      <trkpt lat="46.560306195169687" lon="6.802496127784252">
        <ele>651.42999999999995</ele>
        <time>2014-06-14T17:12:09Z</time>
      </trkpt>
      <trkpt lat="46.56018222682178" lon="6.802314408123493">
        <ele>655.279999999999973</ele>
        <time>2014-06-14T17:12:23Z</time>
      </trkpt>
      <trkpt lat="46.560171330347657" lon="6.80230108089745">
        <ele>655.759999999999991</ele>
        <time>2014-06-14T17:12:24Z</time>
      </trkpt>
      <trkpt lat="46.56009379774332" lon="6.802200833335519">
        <ele>661.039999999999964</ele>
        <time>2014-06-14T17:12:35Z</time>
      </trkpt>
      <trkpt lat="46.559970919042826" lon="6.802123803645372">
        <ele>662.970000000000027</ele>
        <time>2014-06-14T17:12:46Z</time>
      </trkpt>
      <trkpt lat="46.559950970113277" lon="6.802113577723503">
        <ele>663.450000000000045</ele>
        <time>2014-06-14T17:12:47Z</time>
      </trkpt>
      <trkpt lat="46.559842424467206" lon="6.802017102017999">
        <ele>663.92999999999995</ele>
        <time>2014-06-14T17:12:55Z</time>
      </trkpt>
      <trkpt lat="46.55963153578341" lon="6.801923140883446">
        <ele>666.330000000000041</ele>
        <time>2014-06-14T17:13:07Z</time>
      </trkpt>
      <trkpt lat="46.559367505833507" lon="6.801826413720846">
        <ele>669.700000000000045</ele>
        <time>2014-06-14T17:13:21Z</time>
      </trkpt>
      <trkpt lat="46.559349903836846" lon="6.801811829209328">
        <ele>670.17999999999995</ele>
        <time>2014-06-14T17:13:22Z</time>
      </trkpt>
      <trkpt lat="46.559331128373742" lon="6.801796657964587">
        <ele>670.659999999999968</ele>
        <time>2014-06-14T17:13:23Z</time>
      </trkpt>
      <trkpt lat="46.559311430901289" lon="6.801780480891466">
        <ele>670.659999999999968</ele>
        <time>2014-06-14T17:13:24Z</time>
      </trkpt>
      <trkpt lat="46.559290811419487" lon="6.801764387637377">
        <ele>670.659999999999968</ele>
        <time>2014-06-14T17:13:25Z</time>
      </trkpt>
      <trkpt lat="46.559271700680256" lon="6.801747288554907">
        <ele>670.659999999999968</ele>
        <time>2014-06-14T17:13:26Z</time>
      </trkpt>
      <trkpt lat="46.55925233848393" lon="6.8017269205302">
        <ele>670.659999999999968</ele>
        <time>2014-06-14T17:13:27Z</time>
      </trkpt>
      <trkpt lat="46.55923230573535" lon="6.801701691001654">
        <ele>670.659999999999968</ele>
        <time>2014-06-14T17:13:28Z</time>
      </trkpt>
      <trkpt lat="46.559212105348706" lon="6.801677383482456">
        <ele>670.659999999999968</ele>
        <time>2014-06-14T17:13:29Z</time>
      </trkpt>
      <trkpt lat="46.559191066771746" lon="6.801655003800988">
        <ele>670.659999999999968</ele>
        <time>2014-06-14T17:13:30Z</time>
      </trkpt>
      <trkpt lat="46.558918403461576" lon="6.801294833421707">
        <ele>670.659999999999968</ele>
        <time>2014-06-14T17:13:45Z</time>
      </trkpt>
      <trkpt lat="46.558511042967439" lon="6.80087330751121">
        <ele>672.100000000000023</ele>
        <time>2014-06-14T17:14:03Z</time>
      </trkpt>
      <trkpt lat="46.558165038004518" lon="6.800665771588683">
        <ele>675.460000000000036</ele>
        <time>2014-06-14T17:14:19Z</time>
      </trkpt>
      <trkpt lat="46.558010391891003" lon="6.80043057538569">
        <ele>679.309999999999945</ele>
        <time>2014-06-14T17:14:34Z</time>
      </trkpt>
      <trkpt lat="46.557938139885664" lon="6.800144417211413">
        <ele>683.149999999999977</ele>
        <time>2014-06-14T17:14:49Z</time>
      </trkpt>
      <trkpt lat="46.557880556210876" lon="6.79983839392662">
        <ele>687</ele>
        <time>2014-06-14T17:15:05Z</time>
      </trkpt>
      <trkpt lat="46.557863792404532" lon="6.799634965136647">
        <ele>689.399999999999977</ele>
        <time>2014-06-14T17:15:15Z</time>
      </trkpt>
      <trkpt lat="46.55786806717515" lon="6.799614429473877">
        <ele>689.399999999999977</ele>
        <time>2014-06-14T17:15:16Z</time>
      </trkpt>
      <trkpt lat="46.557926572859287" lon="6.799201369285583">
        <ele>690.360000000000014</ele>
        <time>2014-06-14T17:15:32Z</time>
      </trkpt>
      <trkpt lat="46.557867648079991" lon="6.798717398196459">
        <ele>690.840000000000032</ele>
        <time>2014-06-14T17:15:45Z</time>
      </trkpt>
      <trkpt lat="46.557594146579504" lon="6.798110296949744">
        <ele>688.440000000000055</ele>
        <time>2014-06-14T17:16:01Z</time>
      </trkpt>
      <trkpt lat="46.557226600125432" lon="6.797840232029557">
        <ele>690.360000000000014</ele>
        <time>2014-06-14T17:16:14Z</time>
      </trkpt>
      <trkpt lat="46.556753357872367" lon="6.797558348625898">
        <ele>693.730000000000018</ele>
        <time>2014-06-14T17:16:31Z</time>
      </trkpt>
      <trkpt lat="46.556295705959201" lon="6.797100445255637">
        <ele>696.129999999999995</ele>
        <time>2014-06-14T17:16:47Z</time>
      </trkpt>
      <trkpt lat="46.555895386263728" lon="6.796897351741791">
        <ele>698.049999999999955</ele>
        <time>2014-06-14T17:17:00Z</time>
      </trkpt>
      <trkpt lat="46.555420970544219" lon="6.796788051724434">
        <ele>696.610000000000014</ele>
        <time>2014-06-14T17:17:10Z</time>
      </trkpt>
      <trkpt lat="46.554630808532238" lon="6.796215400099754">
        <ele>694.690000000000055</ele>
        <time>2014-06-14T17:17:23Z</time>
      </trkpt>
      <trkpt lat="46.553730256855488" lon="6.794867338612676">
        <ele>689.399999999999977</ele>
        <time>2014-06-14T17:17:38Z</time>
      </trkpt>
      <trkpt lat="46.55293439514935" lon="6.794005176052451">
        <ele>684.120000000000005</ele>
        <time>2014-06-14T17:17:48Z</time>
      </trkpt>
      <trkpt lat="46.552828196436167" lon="6.793893110007048">
        <ele>684.120000000000005</ele>
        <time>2014-06-14T17:17:51Z</time>
      </trkpt>
      <trkpt lat="46.552835237234831" lon="6.793849272653461">
        <ele>684.600000000000023</ele>
        <time>2014-06-14T17:17:52Z</time>
      </trkpt>
      <trkpt lat="46.552941687405109" lon="6.793600665405393">
        <ele>684.600000000000023</ele>
        <time>2014-06-14T17:17:56Z</time>
      </trkpt>
      <trkpt lat="46.553050400689244" lon="6.793305454775691">
        <ele>684.600000000000023</ele>
        <time>2014-06-14T17:18:00Z</time>
      </trkpt>
      <trkpt lat="46.553326500579715" lon="6.792562650516629">
        <ele>683.629999999999995</ele>
        <time>2014-06-14T17:18:12Z</time>
      </trkpt>
      <trkpt lat="46.553336139768362" lon="6.792559046298265">
        <ele>684.600000000000023</ele>
        <time>2014-06-14T17:18:24Z</time>
      </trkpt>
      <trkpt lat="46.553338654339314" lon="6.792528452351689">
        <ele>685.080000000000041</ele>
        <time>2014-06-14T17:18:31Z</time>
      </trkpt>
      <trkpt lat="46.55327444896102" lon="6.792453182861209">
        <ele>684.600000000000023</ele>
        <time>2014-06-14T17:18:37Z</time>
      </trkpt>
      <trkpt lat="46.553288279101253" lon="6.792477909475565">
        <ele>685.080000000000041</ele>
        <time>2014-06-14T17:18:45Z</time>
      </trkpt>
      <trkpt lat="46.553275035694242" lon="6.792717799544334">
        <ele>685.559999999999945</ele>
        <time>2014-06-14T17:18:52Z</time>
      </trkpt>
      <trkpt lat="46.552982507273555" lon="6.793495891615748">
        <ele>686.519999999999982</ele>
        <time>2014-06-14T17:19:08Z</time>
      </trkpt>
      <trkpt lat="46.552909919992089" lon="6.793715748935938">
        <ele>687.480000000000018</ele>
        <time>2014-06-14T17:19:12Z</time>
      </trkpt>
      <trkpt lat="46.552877398207784" lon="6.793999224901199">
        <ele>689.879999999999995</ele>
        <time>2014-06-14T17:19:20Z</time>
      </trkpt>
      <trkpt lat="46.552906986325979" lon="6.794015485793352">
        <ele>689.879999999999995</ele>
        <time>2014-06-14T17:19:21Z</time>
      </trkpt>
      <trkpt lat="46.552927270531654" lon="6.79402906447649">
        <ele>689.879999999999995</ele>
        <time>2014-06-14T17:19:22Z</time>
      </trkpt>
      <trkpt lat="46.55295442789793" lon="6.794051695615053">
        <ele>690.360000000000014</ele>
        <time>2014-06-14T17:19:23Z</time>
      </trkpt>
      <trkpt lat="46.553399423137307" lon="6.794467689469457">
        <ele>690.360000000000014</ele>
        <time>2014-06-14T17:19:38Z</time>
      </trkpt>
      <trkpt lat="46.553459689021111" lon="6.794518986716866">
        <ele>690.360000000000014</ele>
        <time>2014-06-14T17:19:40Z</time>
      </trkpt>
      <trkpt lat="46.553501430898905" lon="6.794507671147585">
        <ele>690.360000000000014</ele>
        <time>2014-06-14T17:19:41Z</time>
      </trkpt>
      <trkpt lat="46.553526576608419" lon="6.794474646449089">
        <ele>690.360000000000014</ele>
        <time>2014-06-14T17:19:42Z</time>
      </trkpt>
      <trkpt lat="46.553545603528619" lon="6.794428462162614">
        <ele>689.879999999999995</ele>
        <time>2014-06-14T17:19:43Z</time>
      </trkpt>
      <trkpt lat="46.55356521718204" lon="6.794377584010363">
        <ele>689.879999999999995</ele>
        <time>2014-06-14T17:19:44Z</time>
      </trkpt>
      <trkpt lat="46.553847854956985" lon="6.793757490813732">
        <ele>688.440000000000055</ele>
        <time>2014-06-14T17:19:56Z</time>
      </trkpt>
      <trkpt lat="46.554039046168327" lon="6.793423555791378">
        <ele>687.480000000000018</ele>
        <time>2014-06-14T17:20:06Z</time>
      </trkpt>
      <trkpt lat="46.554056731984019" lon="6.793435290455818">
        <ele>687</ele>
        <time>2014-06-14T17:20:07Z</time>
      </trkpt>
      <trkpt lat="46.554074501618743" lon="6.7934500426054">
        <ele>687</ele>
        <time>2014-06-14T17:20:08Z</time>
      </trkpt>
      <trkpt lat="46.554133091121912" lon="6.793503519147635">
        <ele>687.480000000000018</ele>
        <time>2014-06-14T17:20:12Z</time>
      </trkpt>
      <trkpt lat="46.554267033934593" lon="6.793183917179704">
        <ele>687.960000000000036</ele>
        <time>2014-06-14T17:20:24Z</time>
      </trkpt>
      <trkpt lat="46.554444311186671" lon="6.792681170627475">
        <ele>687.480000000000018</ele>
        <time>2014-06-14T17:20:37Z</time>
      </trkpt>
      <trkpt lat="46.554557550698519" lon="6.792372548952699">
        <ele>685.559999999999945</ele>
        <time>2014-06-14T17:20:44Z</time>
      </trkpt>
      <trkpt lat="46.554628042504191" lon="6.792236007750034">
        <ele>684.600000000000023</ele>
        <time>2014-06-14T17:20:47Z</time>
      </trkpt>
      <trkpt lat="46.554656205698848" lon="6.792221926152706">
        <ele>684.120000000000005</ele>
        <time>2014-06-14T17:20:48Z</time>
      </trkpt>
      <trkpt lat="46.55468319542706" lon="6.792229721322656">
        <ele>684.120000000000005</ele>
        <time>2014-06-14T17:20:49Z</time>
      </trkpt>
      <trkpt lat="46.554707000032067" lon="6.792248748242855">
        <ele>683.629999999999995</ele>
        <time>2014-06-14T17:20:50Z</time>
      </trkpt>
      <trkpt lat="46.554731391370296" lon="6.792269451543689">
        <ele>683.629999999999995</ele>
        <time>2014-06-14T17:20:51Z</time>
      </trkpt>
      <trkpt lat="46.554757207632065" lon="6.79228906519711">
        <ele>683.629999999999995</ele>
        <time>2014-06-14T17:20:52Z</time>
      </trkpt>
      <trkpt lat="46.555131375789642" lon="6.792514286935329">
        <ele>682.669999999999959</ele>
        <time>2014-06-14T17:21:05Z</time>
      </trkpt>
      <trkpt lat="46.555370595306158" lon="6.792459385469556">
        <ele>682.190000000000055</ele>
        <time>2014-06-14T17:21:11Z</time>
      </trkpt>
      <trkpt lat="46.555408984422684" lon="6.792428959161043">
        <ele>682.190000000000055</ele>
        <time>2014-06-14T17:21:12Z</time>
      </trkpt>
      <trkpt lat="46.555486265569925" lon="6.79234815761447">
        <ele>682.190000000000055</ele>
        <time>2014-06-14T17:21:14Z</time>
      </trkpt>
      <trkpt lat="46.555520799010992" lon="6.792298788204789">
        <ele>682.190000000000055</ele>
        <time>2014-06-14T17:21:15Z</time>
      </trkpt>
      <trkpt lat="46.55554954893887" lon="6.792248832061887">
        <ele>682.190000000000055</ele>
        <time>2014-06-14T17:21:16Z</time>
      </trkpt>
      <trkpt lat="46.555685419589281" lon="6.791716832667589">
        <ele>685.080000000000041</ele>
        <time>2014-06-14T17:21:28Z</time>
      </trkpt>
      <trkpt lat="46.555817183107138" lon="6.791009064763784">
        <ele>688.440000000000055</ele>
        <time>2014-06-14T17:21:45Z</time>
      </trkpt>
      <trkpt lat="46.555955400690436" lon="6.790587203577161">
        <ele>691.330000000000041</ele>
        <time>2014-06-14T17:21:57Z</time>
      </trkpt>
      <trkpt lat="46.555943917483091" lon="6.790549401193857">
        <ele>691.330000000000041</ele>
        <time>2014-06-14T17:21:58Z</time>
      </trkpt>
      <trkpt lat="46.555935954675078" lon="6.790532469749451">
        <ele>690.840000000000032</ele>
        <time>2014-06-14T17:21:59Z</time>
      </trkpt>
      <trkpt lat="46.555923968553543" lon="6.790504558011889">
        <ele>690.840000000000032</ele>
        <time>2014-06-14T17:22:00Z</time>
      </trkpt>
      <trkpt lat="46.555915419012308" lon="6.79047379642725">
        <ele>690.840000000000032</ele>
        <time>2014-06-14T17:22:01Z</time>
      </trkpt>
      <trkpt lat="46.555913491174579" lon="6.790438257157803">
        <ele>690.840000000000032</ele>
        <time>2014-06-14T17:22:02Z</time>
      </trkpt>
      <trkpt lat="46.555919358506799" lon="6.790404981002212">
        <ele>690.840000000000032</ele>
        <time>2014-06-14T17:22:03Z</time>
      </trkpt>
      <trkpt lat="46.555924722924829" lon="6.790385786443949">
        <ele>690.360000000000014</ele>
        <time>2014-06-14T17:22:04Z</time>
      </trkpt>
      <trkpt lat="46.555932350456715" lon="6.790363406762481">
        <ele>690.840000000000032</ele>
        <time>2014-06-14T17:22:05Z</time>
      </trkpt>
      <trkpt lat="46.555940648540854" lon="6.790344044566154">
        <ele>690.840000000000032</ele>
        <time>2014-06-14T17:22:06Z</time>
      </trkpt>
      <trkpt lat="46.555948611348867" lon="6.790323425084352">
        <ele>690.840000000000032</ele>
        <time>2014-06-14T17:22:07Z</time>
      </trkpt>
      <trkpt lat="46.5559555683285" lon="6.790300458669662">
        <ele>690.840000000000032</ele>
        <time>2014-06-14T17:22:08Z</time>
      </trkpt>
      <trkpt lat="46.556078866124153" lon="6.789926122874022">
        <ele>694.210000000000036</ele>
        <time>2014-06-14T17:22:25Z</time>
      </trkpt>
      <trkpt lat="46.556182466447353" lon="6.789607778191566">
        <ele>692.769999999999982</ele>
        <time>2014-06-14T17:22:41Z</time>
      </trkpt>
      <trkpt lat="46.556294532492757" lon="6.789336204528809">
        <ele>695.169999999999959</ele>
        <time>2014-06-14T17:22:56Z</time>
      </trkpt>
      <trkpt lat="46.556323282420635" lon="6.789246434345841">
        <ele>696.129999999999995</ele>
        <time>2014-06-14T17:23:01Z</time>
      </trkpt>
      <trkpt lat="46.556326719000936" lon="6.789228161796927">
        <ele>696.610000000000014</ele>
        <time>2014-06-14T17:23:02Z</time>
      </trkpt>
      <trkpt lat="46.55633233487606" lon="6.789208715781569">
        <ele>697.090000000000032</ele>
        <time>2014-06-14T17:23:03Z</time>
      </trkpt>
      <trkpt lat="46.556338286027312" lon="6.789190610870719">
        <ele>697.090000000000032</ele>
        <time>2014-06-14T17:23:04Z</time>
      </trkpt>
      <trkpt lat="46.556341890245676" lon="6.789159011095762">
        <ele>697.57000000000005</ele>
        <time>2014-06-14T17:23:06Z</time>
      </trkpt>
      <trkpt lat="46.556341554969549" lon="6.78914031945169">
        <ele>698.049999999999955</ele>
        <time>2014-06-14T17:23:07Z</time>
      </trkpt>
      <trkpt lat="46.556341052055359" lon="6.789123555645347">
        <ele>698.529999999999973</ele>
        <time>2014-06-14T17:23:08Z</time>
      </trkpt>
      <trkpt lat="46.55633962713182" lon="6.789104444906116">
        <ele>699.019999999999982</ele>
        <time>2014-06-14T17:23:09Z</time>
      </trkpt>
      <trkpt lat="46.55633769929409" lon="6.789084244519472">
        <ele>699.5</ele>
        <time>2014-06-14T17:23:10Z</time>
      </trkpt>
      <trkpt lat="46.556335603818297" lon="6.789065049961209">
        <ele>699.980000000000018</ele>
        <time>2014-06-14T17:23:11Z</time>
      </trkpt>
      <trkpt lat="46.556334597989917" lon="6.789041412994266">
        <ele>700.460000000000036</ele>
        <time>2014-06-14T17:23:12Z</time>
      </trkpt>
      <trkpt lat="46.556330993771553" lon="6.789020458236337">
        <ele>700.940000000000055</ele>
        <time>2014-06-14T17:23:13Z</time>
      </trkpt>
      <trkpt lat="46.55632940120995" lon="6.789002604782581">
        <ele>701.419999999999959</ele>
        <time>2014-06-14T17:23:14Z</time>
      </trkpt>
      <trkpt lat="46.556329568848014" lon="6.788982907310128">
        <ele>701.419999999999959</ele>
        <time>2014-06-14T17:23:15Z</time>
      </trkpt>
      <trkpt lat="46.556269638240337" lon="6.788627849891782">
        <ele>707.669999999999959</ele>
        <time>2014-06-14T17:23:33Z</time>
      </trkpt>
      <trkpt lat="46.556248515844345" lon="6.788563979789615">
        <ele>710.07000000000005</ele>
        <time>2014-06-14T17:23:37Z</time>
      </trkpt>
      <trkpt lat="46.556192273274064" lon="6.788269188255072">
        <ele>717.279999999999973</ele>
        <time>2014-06-14T17:23:53Z</time>
      </trkpt>
      <trkpt lat="46.556164361536503" lon="6.787968948483467">
        <ele>721.129999999999995</ele>
        <time>2014-06-14T17:24:08Z</time>
      </trkpt>
      <trkpt lat="46.556115914136171" lon="6.787673318758607">
        <ele>720.649999999999977</ele>
        <time>2014-06-14T17:24:21Z</time>
      </trkpt>
      <trkpt lat="46.555965710431337" lon="6.787322703748941">
        <ele>722.090000000000032</ele>
        <time>2014-06-14T17:24:35Z</time>
      </trkpt>
      <trkpt lat="46.555733531713486" lon="6.787119694054127">
        <ele>723.529999999999973</ele>
        <time>2014-06-14T17:24:47Z</time>
      </trkpt>
      <trkpt lat="46.55543421395123" lon="6.786891035735607">
        <ele>723.529999999999973</ele>
        <time>2014-06-14T17:25:00Z</time>
      </trkpt>
      <trkpt lat="46.55509801581502" lon="6.78658383898437">
        <ele>724.009999999999991</ele>
        <time>2014-06-14T17:25:14Z</time>
      </trkpt>
      <trkpt lat="46.55473792925477" lon="6.78614848293364">
        <ele>725.450000000000045</ele>
        <time>2014-06-14T17:25:31Z</time>
      </trkpt>
      <trkpt lat="46.554345572367311" lon="6.785676162689924">
        <ele>727.860000000000014</ele>
        <time>2014-06-14T17:25:49Z</time>
      </trkpt>
      <trkpt lat="46.554056145250797" lon="6.785277854651213">
        <ele>729.779999999999973</ele>
        <time>2014-06-14T17:26:07Z</time>
      </trkpt>
      <trkpt lat="46.554103586822748" lon="6.785033019259572">
        <ele>733.620000000000005</ele>
        <time>2014-06-14T17:26:20Z</time>
      </trkpt>
      <trkpt lat="46.554238619282842" lon="6.784798074513674">
        <ele>738.909999999999968</ele>
        <time>2014-06-14T17:26:36Z</time>
      </trkpt>
      <trkpt lat="46.554405754432082" lon="6.784615349024534">
        <ele>742.759999999999991</ele>
        <time>2014-06-14T17:26:53Z</time>
      </trkpt>
      <trkpt lat="46.554590156301856" lon="6.784412758424878">
        <ele>747.080000000000041</ele>
        <time>2014-06-14T17:27:11Z</time>
      </trkpt>
      <trkpt lat="46.554790483787656" lon="6.784259453415871">
        <ele>749.970000000000027</ele>
        <time>2014-06-14T17:27:28Z</time>
      </trkpt>
      <trkpt lat="46.554839266464114" lon="6.784222489222884">
        <ele>750.450000000000045</ele>
        <time>2014-06-14T17:27:32Z</time>
      </trkpt>
      <trkpt lat="46.55485276132822" lon="6.78421737626195">
        <ele>750.92999999999995</ele>
        <time>2014-06-14T17:27:33Z</time>
      </trkpt>
      <trkpt lat="46.5548659209162" lon="6.784209832549095">
        <ele>750.92999999999995</ele>
        <time>2014-06-14T17:27:34Z</time>
      </trkpt>
      <trkpt lat="46.55487815849483" lon="6.784200863912702">
        <ele>750.92999999999995</ele>
        <time>2014-06-14T17:27:35Z</time>
      </trkpt>
      <trkpt lat="46.554890898987651" lon="6.784190135076642">
        <ele>750.92999999999995</ele>
        <time>2014-06-14T17:27:36Z</time>
      </trkpt>
      <trkpt lat="46.554903807118535" lon="6.784179070964456">
        <ele>751.409999999999968</ele>
        <time>2014-06-14T17:27:37Z</time>
      </trkpt>
      <trkpt lat="46.554916966706514" lon="6.784168006852269">
        <ele>751.409999999999968</ele>
        <time>2014-06-14T17:27:38Z</time>
      </trkpt>
      <trkpt lat="46.555059291422367" lon="6.783957369625568">
        <ele>750.92999999999995</ele>
        <time>2014-06-14T17:27:52Z</time>
      </trkpt>
      <trkpt lat="46.555148642510176" lon="6.783780176192522">
        <ele>752.370000000000005</ele>
        <time>2014-06-14T17:28:02Z</time>
      </trkpt>
      <trkpt lat="46.555154509842396" lon="6.783437943086028">
        <ele>751.409999999999968</ele>
        <time>2014-06-14T17:28:13Z</time>
      </trkpt>
      <trkpt lat="46.555154593661427" lon="6.783406930044293">
        <ele>750.92999999999995</ele>
        <time>2014-06-14T17:28:14Z</time>
      </trkpt>
      <trkpt lat="46.555147552862763" lon="6.783373989164829">
        <ele>750.92999999999995</ele>
        <time>2014-06-14T17:28:15Z</time>
      </trkpt>
      <trkpt lat="46.555114695802331" lon="6.783264940604568">
        <ele>750.92999999999995</ele>
        <time>2014-06-14T17:28:18Z</time>
      </trkpt>
      <trkpt lat="46.555094411596656" lon="6.783232586458325">
        <ele>750.450000000000045</ele>
        <time>2014-06-14T17:28:19Z</time>
      </trkpt>
      <trkpt lat="46.555076977238059" lon="6.783198472112417">
        <ele>750.450000000000045</ele>
        <time>2014-06-14T17:28:20Z</time>
      </trkpt>
      <trkpt lat="46.555062476545572" lon="6.783165615051985">
        <ele>750.450000000000045</ele>
        <time>2014-06-14T17:28:21Z</time>
      </trkpt>
      <trkpt lat="46.555051915347576" lon="6.783134266734123">
        <ele>749.970000000000027</ele>
        <time>2014-06-14T17:28:22Z</time>
      </trkpt>
      <trkpt lat="46.555041018873453" lon="6.78310040384531">
        <ele>749.970000000000027</ele>
        <time>2014-06-14T17:28:23Z</time>
      </trkpt>
      <trkpt lat="46.555024841800332" lon="6.783065116032958">
        <ele>749.970000000000027</ele>
        <time>2014-06-14T17:28:24Z</time>
      </trkpt>
      <trkpt lat="46.555011849850416" lon="6.783026056364179">
        <ele>749.970000000000027</ele>
        <time>2014-06-14T17:28:25Z</time>
      </trkpt>
      <trkpt lat="46.554997684434056" lon="6.782986661419272">
        <ele>749.490000000000009</ele>
        <time>2014-06-14T17:28:26Z</time>
      </trkpt>
      <trkpt lat="46.554980082437396" lon="6.782945673912764">
        <ele>749.490000000000009</ele>
        <time>2014-06-14T17:28:27Z</time>
      </trkpt>
      <trkpt lat="46.554962312802672" lon="6.782903512939811">
        <ele>749</ele>
        <time>2014-06-14T17:28:28Z</time>
      </trkpt>
      <trkpt lat="46.554747568443418" lon="6.782407220453024">
        <ele>744.67999999999995</ele>
        <time>2014-06-14T17:28:40Z</time>
      </trkpt>
      <trkpt lat="46.554462248459458" lon="6.781739769503474">
        <ele>741.309999999999945</ele>
        <time>2014-06-14T17:28:53Z</time>
      </trkpt>
      <trkpt lat="46.554367365315557" lon="6.781648993492126">
        <ele>740.830000000000041</ele>
        <time>2014-06-14T17:28:56Z</time>
      </trkpt>
      <trkpt lat="46.554343979805708" lon="6.781648490577936">
        <ele>740.830000000000041</ele>
        <time>2014-06-14T17:28:57Z</time>
      </trkpt>
      <trkpt lat="46.554153291508555" lon="6.781718228012323">
        <ele>742.279999999999973</ele>
        <time>2014-06-14T17:29:07Z</time>
      </trkpt>
      <trkpt lat="46.553842574357986" lon="6.781871700659394">
        <ele>751.409999999999968</ele>
        <time>2014-06-14T17:29:22Z</time>
      </trkpt>
      <trkpt lat="46.553532779216766" lon="6.78207672201097">
        <ele>764.389999999999986</ele>
        <time>2014-06-14T17:29:38Z</time>
      </trkpt>
      <trkpt lat="46.553391795605421" lon="6.782160121947527">
        <ele>767.75</ele>
        <time>2014-06-14T17:29:45Z</time>
      </trkpt>
      <trkpt lat="46.552878236398101" lon="6.782118966802955">
        <ele>763.419999999999959</ele>
        <time>2014-06-14T17:29:57Z</time>
      </trkpt>
      <trkpt lat="46.552812019363046" lon="6.782100861892104">
        <ele>762.940000000000055</ele>
        <time>2014-06-14T17:29:58Z</time>
      </trkpt>
      <trkpt lat="46.55217356979847" lon="6.781724179163575">
        <ele>756.690000000000055</ele>
        <time>2014-06-14T17:30:07Z</time>
      </trkpt>
      <trkpt lat="46.551890010014176" lon="6.781510943546891">
        <ele>752.850000000000023</ele>
        <time>2014-06-14T17:30:12Z</time>
      </trkpt>
      <trkpt lat="46.551831755787134" lon="6.781486216932535">
        <ele>751.889999999999986</ele>
        <time>2014-06-14T17:30:13Z</time>
      </trkpt>
      <trkpt lat="46.551771992817521" lon="6.781473057344556">
        <ele>751.409999999999968</ele>
        <time>2014-06-14T17:30:14Z</time>
      </trkpt>
      <trkpt lat="46.551705440506339" lon="6.781471548601985">
        <ele>750.450000000000045</ele>
        <time>2014-06-14T17:30:15Z</time>
      </trkpt>
      <trkpt lat="46.551634529605508" lon="6.781478673219681">
        <ele>749.490000000000009</ele>
        <time>2014-06-14T17:30:16Z</time>
      </trkpt>
      <trkpt lat="46.55156428925693" lon="6.781493006274104">
        <ele>748.519999999999982</ele>
        <time>2014-06-14T17:30:17Z</time>
      </trkpt>
      <trkpt lat="46.551492540165782" lon="6.78151186555624">
        <ele>747.559999999999945</ele>
        <time>2014-06-14T17:30:18Z</time>
      </trkpt>
      <trkpt lat="46.551419952884316" lon="6.781525360420346">
        <ele>747.080000000000041</ele>
        <time>2014-06-14T17:30:19Z</time>
      </trkpt>
      <trkpt lat="46.551350550726056" lon="6.781523264944553">
        <ele>746.120000000000005</ele>
        <time>2014-06-14T17:30:20Z</time>
      </trkpt>
      <trkpt lat="46.551284668967128" lon="6.78150063380599">
        <ele>745.159999999999968</ele>
        <time>2014-06-14T17:30:21Z</time>
      </trkpt>
      <trkpt lat="46.551221972331405" lon="6.781461574137211">
        <ele>744.200000000000045</ele>
        <time>2014-06-14T17:30:22Z</time>
      </trkpt>
      <trkpt lat="46.551160281524062" lon="6.781414216384292">
        <ele>743.240000000000009</ele>
        <time>2014-06-14T17:30:23Z</time>
      </trkpt>
      <trkpt lat="46.551100350916386" lon="6.781369708478451">
        <ele>742.759999999999991</ele>
        <time>2014-06-14T17:30:24Z</time>
      </trkpt>
      <trkpt lat="46.551040755584836" lon="6.781340958550572">
        <ele>741.789999999999964</ele>
        <time>2014-06-14T17:30:25Z</time>
      </trkpt>
      <trkpt lat="46.550986524671316" lon="6.781330062076449">
        <ele>740.830000000000041</ele>
        <time>2014-06-14T17:30:26Z</time>
      </trkpt>
      <trkpt lat="46.550938664004207" lon="6.781342132017016">
        <ele>740.350000000000023</ele>
        <time>2014-06-14T17:30:27Z</time>
      </trkpt>
      <trkpt lat="46.5508992690593" lon="6.781373312696815">
        <ele>739.870000000000005</ele>
        <time>2014-06-14T17:30:28Z</time>
      </trkpt>
      <trkpt lat="46.550875380635262" lon="6.781422263011336">
        <ele>739.870000000000005</ele>
        <time>2014-06-14T17:30:29Z</time>
      </trkpt>
      <trkpt lat="46.550863394513726" lon="6.781480852514505">
        <ele>739.389999999999986</ele>
        <time>2014-06-14T17:30:30Z</time>
      </trkpt>
      <trkpt lat="46.550859622657299" lon="6.781541788950562">
        <ele>739.389999999999986</ele>
        <time>2014-06-14T17:30:31Z</time>
      </trkpt>
      <trkpt lat="46.550856521353126" lon="6.781600546091795">
        <ele>739.389999999999986</ele>
        <time>2014-06-14T17:30:32Z</time>
      </trkpt>
      <trkpt lat="46.550856856629252" lon="6.781655950471759">
        <ele>739.389999999999986</ele>
        <time>2014-06-14T17:30:33Z</time>
      </trkpt>
      <trkpt lat="46.550866747274995" lon="6.781706996262074">
        <ele>739.389999999999986</ele>
        <time>2014-06-14T17:30:34Z</time>
      </trkpt>
      <trkpt lat="46.55088460072875" lon="6.78175468929112">
        <ele>739.389999999999986</ele>
        <time>2014-06-14T17:30:35Z</time>
      </trkpt>
      <trkpt lat="46.550907148048282" lon="6.781803388148546">
        <ele>739.389999999999986</ele>
        <time>2014-06-14T17:30:36Z</time>
      </trkpt>
      <trkpt lat="46.551070678979158" lon="6.782367741689086">
        <ele>741.309999999999945</ele>
        <time>2014-06-14T17:30:48Z</time>
      </trkpt>
      <trkpt lat="46.551135387271643" lon="6.782605703920126">
        <ele>742.759999999999991</ele>
        <time>2014-06-14T17:30:55Z</time>
      </trkpt>
      <trkpt lat="46.551133124157786" lon="6.782624144107103">
        <ele>742.759999999999991</ele>
        <time>2014-06-14T17:30:56Z</time>
      </trkpt>
      <trkpt lat="46.551130022853613" lon="6.782640069723129">
        <ele>743.240000000000009</ele>
        <time>2014-06-14T17:30:57Z</time>
      </trkpt>
      <trkpt lat="46.551120551303029" lon="6.782665634527802">
        <ele>744.200000000000045</ele>
        <time>2014-06-14T17:30:59Z</time>
      </trkpt>
      <trkpt lat="46.551032038405538" lon="6.782684745267034">
        <ele>746.120000000000005</ele>
        <time>2014-06-14T17:31:12Z</time>
      </trkpt>
      <trkpt lat="46.550973365083337" lon="6.782603105530143">
        <ele>747.080000000000041</ele>
        <time>2014-06-14T17:31:26Z</time>
      </trkpt>
      <trkpt lat="46.550906477496028" lon="6.782519705593586">
        <ele>746.120000000000005</ele>
        <time>2014-06-14T17:31:34Z</time>
      </trkpt>
      <trkpt lat="46.550894994288683" lon="6.782508809119463">
        <ele>746.120000000000005</ele>
        <time>2014-06-14T17:31:35Z</time>
      </trkpt>
      <trkpt lat="46.550885355100036" lon="6.782497493550181">
        <ele>746.120000000000005</ele>
        <time>2014-06-14T17:31:36Z</time>
      </trkpt>
      <trkpt lat="46.550863394513726" lon="6.782478466629982">
        <ele>746.120000000000005</ele>
        <time>2014-06-14T17:31:38Z</time>
      </trkpt>
      <trkpt lat="46.550851408392191" lon="6.782471844926476">
        <ele>746.120000000000005</ele>
        <time>2014-06-14T17:31:39Z</time>
      </trkpt>
      <trkpt lat="46.550840260460973" lon="6.7824602779001">
        <ele>746.120000000000005</ele>
        <time>2014-06-14T17:31:40Z</time>
      </trkpt>
      <trkpt lat="46.550789214670658" lon="6.782404873520136">
        <ele>746.120000000000005</ele>
        <time>2014-06-14T17:31:45Z</time>
      </trkpt>
      <trkpt lat="46.550779072567821" lon="6.782390791922808">
        <ele>746.120000000000005</ele>
        <time>2014-06-14T17:31:46Z</time>
      </trkpt>
      <trkpt lat="46.550768427550793" lon="6.782378973439336">
        <ele>745.639999999999986</ele>
        <time>2014-06-14T17:31:47Z</time>
      </trkpt>
      <trkpt lat="46.550649488344789" lon="6.782234972342849">
        <ele>747.080000000000041</ele>
        <time>2014-06-14T17:32:00Z</time>
      </trkpt>
      <trkpt lat="46.550549492239952" lon="6.782087869942188">
        <ele>749</ele>
        <time>2014-06-14T17:32:12Z</time>
      </trkpt>
      <trkpt lat="46.550421752035618" lon="6.781927859410644">
        <ele>751.409999999999968</ele>
        <time>2014-06-14T17:32:27Z</time>
      </trkpt>
      <trkpt lat="46.550394929945469" lon="6.781883100047708">
        <ele>750.92999999999995</ele>
        <time>2014-06-14T17:32:31Z</time>
      </trkpt>
      <trkpt lat="46.550340196117759" lon="6.781824175268412">
        <ele>750.92999999999995</ele>
        <time>2014-06-14T17:32:37Z</time>
      </trkpt>
      <trkpt lat="46.550332400947809" lon="6.781812105327845">
        <ele>750.92999999999995</ele>
        <time>2014-06-14T17:32:38Z</time>
      </trkpt>
      <trkpt lat="46.550315888598561" lon="6.781789138913155">
        <ele>750.92999999999995</ele>
        <time>2014-06-14T17:32:40Z</time>
      </trkpt>
      <trkpt lat="46.550303902477026" lon="6.781766256317496">
        <ele>751.409999999999968</ele>
        <time>2014-06-14T17:32:42Z</time>
      </trkpt>
      <trkpt lat="46.550293676555157" lon="6.781756617128849">
        <ele>751.409999999999968</ele>
        <time>2014-06-14T17:32:43Z</time>
      </trkpt>
      <trkpt lat="46.550283534452319" lon="6.781749073415995">
        <ele>751.889999999999986</ele>
        <time>2014-06-14T17:32:44Z</time>
      </trkpt>
      <trkpt lat="46.550200134515762" lon="6.781674474477768">
        <ele>753.809999999999945</ele>
        <time>2014-06-14T17:32:53Z</time>
      </trkpt>
      <trkpt lat="46.550173815339804" lon="6.7816779948771">
        <ele>754.769999999999982</ele>
        <time>2014-06-14T17:32:56Z</time>
      </trkpt>
      <trkpt lat="46.550127798691392" lon="6.781616220250726">
        <ele>754.769999999999982</ele>
        <time>2014-06-14T17:33:00Z</time>
      </trkpt>
      <trkpt lat="46.54993518255651" lon="6.781296031549573">
        <ele>755.25</ele>
        <time>2014-06-14T17:33:15Z</time>
      </trkpt>
      <trkpt lat="46.549644330516458" lon="6.780922533944249">
        <ele>755.25</ele>
        <time>2014-06-14T17:33:29Z</time>
      </trkpt>
      <trkpt lat="46.549328416585922" lon="6.780536631122231">
        <ele>754.769999999999982</ele>
        <time>2014-06-14T17:33:42Z</time>
      </trkpt>
      <trkpt lat="46.54906296171248" lon="6.780122984200716">
        <ele>754.769999999999982</ele>
        <time>2014-06-14T17:33:50Z</time>
      </trkpt>
      <trkpt lat="46.548846708610654" lon="6.779711516574025">
        <ele>754.769999999999982</ele>
        <time>2014-06-14T17:33:58Z</time>
      </trkpt>
      <trkpt lat="46.548256035894156" lon="6.778785903006792">
        <ele>752.850000000000023</ele>
        <time>2014-06-14T17:34:15Z</time>
      </trkpt>
      <trkpt lat="46.547773322090507" lon="6.77798543125391">
        <ele>749.970000000000027</ele>
        <time>2014-06-14T17:34:28Z</time>
      </trkpt>
      <trkpt lat="46.547134788706899" lon="6.777431555092335">
        <ele>748.519999999999982</ele>
        <time>2014-06-14T17:34:39Z</time>
      </trkpt>
      <trkpt lat="46.546764308586717" lon="6.777004078030586">
        <ele>752.370000000000005</ele>
        <time>2014-06-14T17:34:51Z</time>
      </trkpt>
      <trkpt lat="46.54621135443449" lon="6.776380548253655">
        <ele>749</ele>
        <time>2014-06-14T17:35:05Z</time>
      </trkpt>
      <trkpt lat="46.546062072739005" lon="6.776244342327118">
        <ele>748.519999999999982</ele>
        <time>2014-06-14T17:35:08Z</time>
      </trkpt>
      <trkpt lat="46.545824697241187" lon="6.775969583541155">
        <ele>747.080000000000041</ele>
        <time>2014-06-14T17:35:13Z</time>
      </trkpt>
      <trkpt lat="46.545626716688275" lon="6.775684766471386">
        <ele>744.67999999999995</ele>
        <time>2014-06-14T17:35:17Z</time>
      </trkpt>
      <trkpt lat="46.545569719746709" lon="6.775601198896766">
        <ele>744.200000000000045</ele>
        <time>2014-06-14T17:35:18Z</time>
      </trkpt>
      <trkpt lat="46.545226899906993" lon="6.774971969425678">
        <ele>745.639999999999986</ele>
        <time>2014-06-14T17:35:27Z</time>
      </trkpt>
      <trkpt lat="46.544863125309348" lon="6.774405688047409">
        <ele>747.080000000000041</ele>
        <time>2014-06-14T17:35:40Z</time>
      </trkpt>
      <trkpt lat="46.54474938288331" lon="6.774195721372962">
        <ele>746.120000000000005</ele>
        <time>2014-06-14T17:35:44Z</time>
      </trkpt>
      <trkpt lat="46.544730607420206" lon="6.774133611470461">
        <ele>746.120000000000005</ele>
        <time>2014-06-14T17:35:45Z</time>
      </trkpt>
      <trkpt lat="46.544715017080307" lon="6.774055156856775">
        <ele>746.120000000000005</ele>
        <time>2014-06-14T17:35:46Z</time>
      </trkpt>
      <trkpt lat="46.54470831155777" lon="6.773978043347597">
        <ele>746.120000000000005</ele>
        <time>2014-06-14T17:35:47Z</time>
      </trkpt>
      <trkpt lat="46.544710239395499" lon="6.773926243185997">
        <ele>746.120000000000005</ele>
        <time>2014-06-14T17:35:48Z</time>
      </trkpt>
      <trkpt lat="46.544717364013195" lon="6.773860193789005">
        <ele>746.600000000000023</ele>
        <time>2014-06-14T17:35:49Z</time>
      </trkpt>
      <trkpt lat="46.544725745916367" lon="6.773800766095519">
        <ele>746.600000000000023</ele>
        <time>2014-06-14T17:35:50Z</time>
      </trkpt>
      <trkpt lat="46.544762458652258" lon="6.773513769730926">
        <ele>747.559999999999945</ele>
        <time>2014-06-14T17:35:55Z</time>
      </trkpt>
      <trkpt lat="46.544742761179805" lon="6.773442607372999">
        <ele>747.080000000000041</ele>
        <time>2014-06-14T17:35:56Z</time>
      </trkpt>
      <trkpt lat="46.544716525822878" lon="6.773394579067826">
        <ele>746.600000000000023</ele>
        <time>2014-06-14T17:35:57Z</time>
      </trkpt>
      <trkpt lat="46.544675789773464" lon="6.773340851068497">
        <ele>746.600000000000023</ele>
        <time>2014-06-14T17:35:58Z</time>
      </trkpt>
      <trkpt lat="46.544634215533733" lon="6.773299109190702">
        <ele>746.600000000000023</ele>
        <time>2014-06-14T17:35:59Z</time>
      </trkpt>
      <trkpt lat="46.544586857780814" lon="6.773259378969669">
        <ele>746.600000000000023</ele>
        <time>2014-06-14T17:36:00Z</time>
      </trkpt>
      <trkpt lat="46.544136498123407" lon="6.772850174456835">
        <ele>743.720000000000027</ele>
        <time>2014-06-14T17:36:08Z</time>
      </trkpt>
      <trkpt lat="46.544061815366149" lon="6.772793512791395">
        <ele>743.720000000000027</ele>
        <time>2014-06-14T17:36:09Z</time>
      </trkpt>
      <trkpt lat="46.543992999941111" lon="6.772724445909262">
        <ele>743.240000000000009</ele>
        <time>2014-06-14T17:36:10Z</time>
      </trkpt>
      <trkpt lat="46.543925022706389" lon="6.772651355713606">
        <ele>742.759999999999991</ele>
        <time>2014-06-14T17:36:11Z</time>
      </trkpt>
      <trkpt lat="46.543723940849304" lon="6.772451531141996">
        <ele>740.830000000000041</ele>
        <time>2014-06-14T17:36:15Z</time>
      </trkpt>
      <trkpt lat="46.543713798746467" lon="6.772405514493585">
        <ele>740.350000000000023</ele>
        <time>2014-06-14T17:36:16Z</time>
      </trkpt>
      <trkpt lat="46.543717319145799" lon="6.772348517552018">
        <ele>739.870000000000005</ele>
        <time>2014-06-14T17:36:17Z</time>
      </trkpt>
      <trkpt lat="46.543731736019254" lon="6.772273415699601">
        <ele>739.389999999999986</ele>
        <time>2014-06-14T17:36:18Z</time>
      </trkpt>
      <trkpt lat="46.543872132897377" lon="6.771686263382435">
        <ele>736.509999999999991</ele>
        <time>2014-06-14T17:36:25Z</time>
      </trkpt>
      <trkpt lat="46.543886130675673" lon="6.771615101024508">
        <ele>736.029999999999973</ele>
        <time>2014-06-14T17:36:26Z</time>
      </trkpt>
      <trkpt lat="46.543965004384518" lon="6.771164406090975">
        <ele>734.100000000000023</ele>
        <time>2014-06-14T17:36:34Z</time>
      </trkpt>
      <trkpt lat="46.543948240578175" lon="6.771126687526703">
        <ele>734.100000000000023</ele>
        <time>2014-06-14T17:36:35Z</time>
      </trkpt>
      <trkpt lat="46.543923430144787" lon="6.771089639514685">
        <ele>734.100000000000023</ele>
        <time>2014-06-14T17:36:36Z</time>
      </trkpt>
      <trkpt lat="46.543867355212569" lon="6.771024344488978">
        <ele>733.620000000000005</ele>
        <time>2014-06-14T17:36:38Z</time>
      </trkpt>
      <trkpt lat="46.543599218130112" lon="6.770837428048253">
        <ele>731.700000000000045</ele>
        <time>2014-06-14T17:36:43Z</time>
      </trkpt>
      <trkpt lat="46.543449684977531" lon="6.770761739462614">
        <ele>730.740000000000009</ele>
        <time>2014-06-14T17:36:45Z</time>
      </trkpt>
      <trkpt lat="46.543384809046984" lon="6.770712370052934">
        <ele>730.259999999999991</ele>
        <time>2014-06-14T17:36:46Z</time>
      </trkpt>
      <trkpt lat="46.542264232411981" lon="6.769880969077349">
        <ele>726.409999999999968</ele>
        <time>2014-06-14T17:37:00Z</time>
      </trkpt>
      <trkpt lat="46.541163353249431" lon="6.769509315490723">
        <ele>723.529999999999973</ele>
        <time>2014-06-14T17:37:12Z</time>
      </trkpt>
      <trkpt lat="46.540585588663816" lon="6.769443266093731">
        <ele>721.610000000000014</ele>
        <time>2014-06-14T17:37:18Z</time>
      </trkpt>
      <trkpt lat="46.540511241182685" lon="6.769405379891396">
        <ele>721.129999999999995</ele>
        <time>2014-06-14T17:37:19Z</time>
      </trkpt>
      <trkpt lat="46.540437564253807" lon="6.769326003268361">
        <ele>720.649999999999977</ele>
        <time>2014-06-14T17:37:20Z</time>
      </trkpt>
      <trkpt lat="46.540383417159319" lon="6.769219636917114">
        <ele>720.159999999999968</ele>
        <time>2014-06-14T17:37:21Z</time>
      </trkpt>
      <trkpt lat="46.540359444916248" lon="6.769160628318787">
        <ele>720.159999999999968</ele>
        <time>2014-06-14T17:37:22Z</time>
      </trkpt>
      <trkpt lat="46.540326001122594" lon="6.769063649699092">
        <ele>719.67999999999995</ele>
        <time>2014-06-14T17:37:23Z</time>
      </trkpt>
      <trkpt lat="46.540312590077519" lon="6.768980920314789">
        <ele>719.200000000000045</ele>
        <time>2014-06-14T17:37:24Z</time>
      </trkpt>
      <trkpt lat="46.540320217609406" lon="6.76890280097723">
        <ele>719.200000000000045</ele>
        <time>2014-06-14T17:37:25Z</time>
      </trkpt>
      <trkpt lat="46.540438821539283" lon="6.768579175695777">
        <ele>717.279999999999973</ele>
        <time>2014-06-14T17:37:31Z</time>
      </trkpt>
      <trkpt lat="46.540410658344626" lon="6.768522597849369">
        <ele>716.799999999999955</ele>
        <time>2014-06-14T17:37:32Z</time>
      </trkpt>
      <trkpt lat="46.540403114631772" lon="6.768509522080421">
        <ele>716.32000000000005</ele>
        <time>2014-06-14T17:37:33Z</time>
      </trkpt>
    </trkseg>
  </trk>

</gpx>
